[[{"header":{"parameterUnit":"m.s-1","parameterCategory":1,"la1":30.6,"la2":29.2853,"lo1":-89.7004,"lo2":-87.6739,"dy":0.0162,"dx":0.0183,"nx":112,"ny":82,"refTime":"2024-08-19T06:00:00:Z","depth":0,"parameterNumber":2,"parameterNumberName":"U-component_of_WINDS"},"data":[0.0,0.0,0.0,0.0,0.0,0.0,0.0,0.0,0.0,0.0,0.0,0.0,0.0,0.0,0.0,0.0,0.0,0.0,0.0,0.0,0.0,0.0,0.0,0.0,0.0,0.0,0.0,0.0,0.0,0.0,0.0,0.0,0.0,0.0,0.0,0.0,0.0,0.0,0.0,0.0,0.0,0.0,0.0,0.0,0.0,0.0,0.0,0.0,0.0,0.0,0.0,0.0,0.0,0.0,0.0,0.0,0.0,0.0,0.0,0.0,0.0,0.0,0.0,0.0,0.0,0.0,0.0,0.0,0.0,0.0,0.0,0.0,0.0,0.0,0.0,0.0,0.0,0.0,0.0,0.0,0.0,0.0,0.0,0.0,0.0,0.0,0.0,0.0,0.0,0.0,0.0,1.8305,1.9356,2.0085,2.0085,2.0085,1.9364,1.7508,0.0,0.0,0.0,0.0,0.0,0.0,0.0,0.0,0.0,0.0,0.0,0.0,0.0,0.0,0.0,0.0,0.0,0.0,0.0,0.0,0.0,0.0,0.0,0.0,0.0,0.0,0.0,0.0,0.0,0.0,0.0,0.0,0.0,0.0,0.0,0.0,0.0,0.0,0.0,0.0,0.0,0.0,0.0,0.0,0.0,0.0,0.0,0.0,0.0,0.0,0.0,0.0,0.0,0.0,0.0,0.0,0.0,0.0,0.0,0.0,0.0,0.0,0.0,0.0,0.0,0.0,0.0,0.0,0.0,0.0,0.0,0.0,0.0,0.0,0.0,0.0,0.0,0.0,0.0,0.0,0.0,0.0,0.0,0.0,0.0,0.0,0.0,0.0,0.0,0.0,0.0,0.0,0.0,0.0,0.0,0.0,0.0,0.0,0.0,0.0,0.0,0.0,0.0,0.0,1.801,1.9585,1.9955,2.0085,2.0085,2.0085,1.9443,1.7999,0.0,0.0,0.0,0.0,0.0,0.0,0.0,0.0,0.0,0.0,0.0,0.0,0.0,0.0,0.0,0.0,0.0,0.0,0.0,0.0,0.0,0.0,0.0,0.0,0.0,0.0,0.0,0.0,0.0,0.0,0.0,0.0,0.0,0.0,0.0,0.0,0.0,0.0,0.0,0.0,0.0,0.0,0.0,0.0,0.0,0.0,0.0,0.0,0.0,0.0,0.0,0.0,0.0,0.0,0.0,0.0,0.0,0.0,0.0,0.0,0.0,0.0,0.0,0.0,0.0,0.0,0.0,0.0,0.0,0.0,0.0,0.0,0.0,0.0,0.0,0.0,0.0,0.0,0.0,0.0,0.0,0.0,0.0,0.0,0.0,0.0,0.0,0.0,0.0,0.0,0.0,0.0,0.0,0.0,0.0,0.0,0.0,0.0,0.0,0.0,0.0,0.0,0.0,1.7682,1.8305,1.99,2.0085,2.0085,2.0085,2.0085,1.9419,1.7715,1.7342,0.0,0.0,0.0,0.0,0.0,0.0,0.0,0.0,0.0,0.0,0.0,0.0,0.0,0.0,0.0,0.0,0.0,0.0,0.0,0.0,0.0,0.0,0.0,0.0,0.0,0.0,0.0,0.0,0.0,0.0,0.0,0.0,0.0,0.0,0.0,0.0,0.0,0.0,0.0,0.0,0.0,0.0,0.0,0.0,0.0,0.0,0.0,0.0,0.0,0.0,0.0,0.0,0.0,0.0,0.0,0.0,0.0,0.0,0.0,0.0,0.0,0.0,0.0,0.0,0.0,0.0,0.0,0.0,0.0,0.0,0.0,0.0,0.0,0.0,0.0,0.0,0.0,0.0,0.0,0.0,0.0,0.0,0.0,0.0,0.0,0.0,0.0,0.0,0.0,0.0,0.0,0.0,0.0,0.0,0.0,0.0,0.0,0.0,0.0,0.0,0.0,0.0,1.8447,1.8927,1.9966,2.0085,2.0085,2.0085,1.9868,1.9018,1.7376,1.6938,0.0,0.0,0.0,0.0,0.0,0.0,0.0,0.0,0.0,0.0,0.0,0.0,0.0,0.0,0.0,0.0,0.0,0.0,0.0,0.0,0.0,0.0,0.0,0.0,0.0,0.0,0.0,0.0,0.0,0.0,0.0,0.0,0.0,0.0,0.0,0.0,0.0,0.0,0.0,0.0,0.0,0.0,0.0,0.0,0.0,0.0,0.0,0.0,0.0,0.0,0.0,0.0,0.0,0.0,0.0,0.0,0.0,0.0,0.0,0.0,0.0,0.0,0.0,0.0,0.0,0.0,0.0,0.0,0.0,0.0,0.0,0.0,0.0,0.0,0.0,0.0,0.0,0.0,0.0,0.0,0.0,0.0,0.0,0.0,0.0,0.0,0.0,0.0,0.0,0.0,0.0,0.0,0.0,0.0,0.0,0.0,0.0,0.0,0.0,0.0,0.0,0.0,1.8905,1.9966,2.0074,2.0085,2.0085,2.0085,1.931,1.83,1.721,1.6202,0.0,0.0,0.0,0.0,0.0,0.0,0.0,0.0,0.0,0.0,0.0,0.0,0.0,0.0,0.0,0.0,0.0,0.0,0.0,0.0,0.0,0.0,0.0,0.0,0.0,0.0,0.0,0.0,0.0,0.0,0.0,0.0,0.0,0.0,0.0,0.0,0.0,0.0,0.0,0.0,0.0,0.0,0.0,0.0,0.0,0.0,0.0,0.0,0.0,0.0,0.0,0.0,0.0,0.0,0.0,0.0,0.0,0.0,0.0,0.0,0.0,0.0,0.0,0.0,0.0,0.0,0.0,0.0,0.0,0.0,0.0,0.0,0.0,0.0,0.0,0.0,0.0,0.0,0.0,0.0,0.0,0.0,0.0,0.0,0.0,0.0,0.0,0.0,0.0,0.0,0.0,0.0,0.0,0.0,0.0,0.0,0.0,0.0,0.0,0.0,0.0,0.0,1.8425,1.941,0.0,2.0009,1.9944,1.9813,1.9285,1.844,1.7006,0.0,0.0,0.0,0.0,0.0,0.0,0.0,0.0,0.0,0.0,0.0,0.0,0.0,0.0,0.0,0.0,0.0,0.0,0.0,0.0,0.0,0.0,0.0,0.0,0.0,0.0,0.0,0.0,0.0,0.0,0.0,0.0,0.0,0.0,0.0,0.0,0.0,0.0,0.0,0.0,0.0,0.0,0.0,0.0,0.0,0.0,0.0,0.0,0.0,0.0,0.0,0.0,0.0,0.0,0.0,0.0,0.0,0.0,0.0,0.0,0.0,0.0,0.0,0.0,0.0,0.0,0.0,0.0,0.0,0.0,0.0,0.0,0.0,0.0,0.0,0.0,0.0,0.0,0.0,0.0,0.0,0.0,0.0,0.0,0.0,0.0,0.0,0.0,0.0,0.0,0.0,0.0,0.0,0.0,0.0,0.0,0.0,0.0,0.0,0.0,0.0,0.0,1.7191,1.837,1.9334,0.0,1.9944,1.9868,1.9736,1.9051,1.813,1.6825,0.0,0.0,0.0,0.0,0.0,0.0,0.0,0.0,0.0,0.0,0.0,0.0,0.0,0.0,0.0,0.0,0.0,0.0,0.0,0.0,0.0,0.0,0.0,0.0,0.0,0.0,0.0,0.0,0.0,0.0,0.0,0.0,0.0,0.0,0.0,0.0,0.0,0.0,0.0,0.0,0.0,0.0,0.0,0.0,0.0,0.0,0.0,0.0,0.0,0.0,0.0,0.0,0.0,0.0,0.0,0.0,0.0,0.0,0.0,0.0,0.0,0.0,0.0,0.0,0.0,0.0,0.0,0.0,0.0,0.0,0.0,0.0,0.0,0.0,0.0,0.0,0.0,0.0,0.0,0.0,0.0,0.0,0.0,0.0,0.0,0.0,0.0,0.0,0.0,0.0,0.0,0.0,0.0,0.0,0.0,0.0,0.0,0.0,0.0,0.0,0.0,0.0,1.7278,1.896,2.0074,2.0085,1.9933,1.9868,1.9857,1.8451,1.726,0.0,0.0,0.0,0.0,0.0,0.0,0.0,0.0,0.0,0.0,0.0,0.0,0.0,0.0,0.0,0.0,0.0,0.0,0.0,0.0,0.0,0.0,0.0,0.0,0.0,0.0,0.0,0.0,0.0,0.0,0.0,0.0,0.0,0.0,0.0,0.0,0.0,0.0,0.0,0.0,0.0,0.0,0.0,0.0,0.0,0.0,0.0,0.0,0.0,0.0,0.0,0.0,0.0,0.0,0.0,0.0,0.0,0.0,0.0,0.0,0.0,0.0,0.0,0.0,0.0,0.0,0.0,0.0,0.0,0.0,0.0,0.0,0.0,0.0,0.0,0.0,0.0,0.0,0.0,0.0,0.0,0.0,0.0,0.0,0.0,0.0,0.0,0.0,0.0,0.0,0.0,0.0,0.0,0.0,0.0,0.0,0.0,0.0,0.0,0.0,0.0,0.0,0.0,1.7054,1.8642,1.9681,1.955,1.9483,1.927,1.8868,1.8176,1.7284,1.6061,0.0,0.0,0.0,0.0,0.0,0.0,0.0,0.0,0.0,0.0,0.0,0.0,0.0,0.0,0.0,0.0,0.0,0.0,0.0,0.0,0.0,0.0,0.0,0.0,0.0,0.0,0.0,0.0,0.0,0.0,0.0,0.0,0.0,0.0,0.0,0.0,0.0,0.0,0.0,0.0,0.0,0.0,0.0,0.0,0.0,0.0,0.0,0.0,0.0,0.0,0.0,0.0,0.0,0.0,0.0,0.0,0.0,0.0,0.0,0.0,0.0,0.0,0.0,0.0,0.0,0.0,0.0,0.0,0.0,0.0,0.0,0.0,0.0,0.0,0.0,0.0,0.0,0.0,0.0,0.0,0.0,0.0,0.0,0.0,0.0,0.0,0.0,0.0,0.0,0.0,0.0,0.0,0.0,0.0,0.0,0.0,0.0,0.0,0.0,0.0,0.0,0.0,1.6941,1.8518,1.9539,1.9407,1.9351,1.917,1.8812,1.8207,1.7272,1.6032,0.0,0.0,0.0,0.0,0.0,0.0,0.0,0.0,0.0,0.0,0.0,0.0,0.0,0.0,0.0,0.0,0.0,0.0,0.0,0.0,0.0,0.0,0.0,0.0,0.0,0.0,0.0,0.0,0.0,0.0,0.0,0.0,0.0,0.0,0.0,0.0,0.0,0.0,0.0,0.0,0.0,0.0,0.0,0.0,0.0,0.0,0.0,0.0,0.0,0.0,0.0,0.0,0.0,0.0,0.0,0.0,0.0,0.0,0.0,0.0,0.0,0.0,0.0,0.0,0.0,0.0,0.0,0.0,0.0,0.0,0.0,0.0,0.0,0.0,0.0,0.0,0.0,0.0,0.0,0.0,0.0,0.0,0.0,0.0,0.0,0.0,0.0,0.0,0.0,0.0,0.0,0.0,0.0,0.0,0.0,0.0,0.0,0.0,0.0,0.0,0.0,0.0,1.6814,1.8415,1.9539,1.9539,1.9417,1.9264,1.9222,1.829,1.7286,1.6378,0.0,0.0,0.0,0.0,0.0,0.0,0.0,0.0,0.0,0.0,0.0,0.0,0.0,0.0,0.0,0.0,0.0,0.0,0.0,0.0,0.0,0.0,0.0,0.0,0.0,0.0,0.0,0.0,0.0,0.0,0.0,0.0,0.0,0.0,0.0,0.0,0.0,0.0,0.0,0.0,0.0,0.0,0.0,0.0,0.0,0.0,0.0,0.0,0.0,0.0,0.0,0.0,0.0,0.0,0.0,0.0,0.0,0.0,0.0,0.0,1.6929,0.0,0.0,0.0,0.0,0.0,0.0,0.0,0.0,0.0,0.0,0.0,0.0,0.0,0.0,0.0,0.0,0.0,0.0,0.0,0.0,0.0,0.0,0.0,0.0,0.0,0.0,0.0,0.0,0.0,0.0,0.0,0.0,0.0,0.0,0.0,0.0,0.0,0.0,0.0,0.0,0.0,1.7063,1.8354,1.9208,1.9208,1.9142,1.8986,1.8622,1.804,1.7093,1.5712,1.4403,0.0,0.0,0.0,0.0,0.0,0.0,0.0,0.0,0.0,0.0,0.0,0.0,0.0,0.0,0.0,0.0,0.0,0.0,0.0,0.0,0.0,0.0,0.0,0.0,0.0,0.0,0.0,0.0,0.0,0.0,0.0,0.0,0.0,0.0,0.0,0.0,0.0,0.0,0.0,0.0,0.0,0.0,0.0,0.0,0.0,0.0,0.0,0.0,0.0,0.0,0.0,0.0,0.0,0.0,0.0,0.0,0.0,0.0,0.0,0.0,1.7243,0.0,0.0,0.0,0.0,0.0,0.0,0.0,0.0,0.0,0.0,0.0,0.0,0.0,0.0,0.0,0.0,0.0,0.0,0.0,0.0,0.0,0.0,0.0,0.0,0.0,0.0,0.0,0.0,0.0,0.0,0.0,0.0,0.0,0.0,0.0,0.0,0.0,0.0,0.0,0.0,1.7033,1.829,1.9075,1.9075,1.9075,1.8971,1.8733,1.8299,1.74,1.5841,1.4893,0.0,0.0,0.0,0.0,0.0,0.0,0.0,0.0,0.0,0.0,0.0,0.0,0.0,0.0,0.0,0.0,0.0,0.0,0.0,0.0,0.0,0.0,0.0,0.0,0.0,0.0,0.0,0.0,0.0,0.0,0.0,0.0,0.0,0.0,0.0,0.0,0.0,0.0,0.0,0.0,0.0,0.0,0.0,0.0,0.0,0.0,0.0,0.0,0.0,0.0,0.0,0.0,0.0,1.9855,2.0006,2.0424,2.0049,2.0081,2.0472,1.9188,1.8621,1.8608,0.0,0.0,0.0,0.0,0.0,0.0,0.0,0.0,0.0,0.0,0.0,0.0,0.0,0.0,0.0,0.0,0.0,0.0,0.0,0.0,0.0,0.0,0.0,0.0,0.0,1.6383,1.6929,0.0,0.0,0.0,0.0,0.0,0.0,0.0,0.0,0.0,0.0,0.0,0.0,1.7212,1.8402,1.9158,1.9075,1.9075,1.9075,1.9075,1.864,1.7734,1.6257,1.5621,1.4352,0.0,0.0,0.0,0.0,0.0,0.0,0.0,0.0,0.0,0.0,0.0,0.0,0.0,0.0,0.0,0.0,0.0,0.0,0.0,0.0,0.0,0.0,0.0,0.0,0.0,0.0,0.0,0.0,0.0,0.0,0.0,0.0,1.546,1.5581,0.0,0.0,0.0,0.0,0.0,0.0,0.0,0.0,0.0,0.0,0.0,0.0,0.0,1.9848,1.9616,2.0773,2.1316,2.1223,2.1818,2.218,2.2249,2.1924,2.1767,2.1812,2.1373,0.0,1.9633,1.9052,0.0,0.0,0.0,0.0,0.0,0.0,0.0,0.0,0.0,0.0,0.0,0.0,0.0,0.0,0.0,0.0,0.0,0.0,0.0,0.0,0.0,0.0,1.842,1.8213,1.7628,1.7142,0.0,1.7014,1.6595,1.6394,1.5481,0.0,0.0,0.0,0.0,0.0,0.0,0.0,1.8143,1.9065,1.9588,1.9116,1.9075,1.9075,1.9075,1.864,1.7795,1.6346,1.5575,1.4479,1.3002,1.233,0.0,0.0,0.0,0.0,0.0,0.0,0.0,0.0,0.0,0.0,0.0,0.0,0.0,0.0,0.0,0.0,0.0,0.0,0.0,0.0,0.0,0.0,0.0,0.0,0.0,0.0,0.0,0.0,0.0,1.5182,1.6081,1.603,1.6273,1.6199,0.0,0.0,0.0,0.0,0.0,0.0,0.0,0.0,0.0,1.9887,2.0384,2.074,2.1085,2.1711,2.2151,2.2514,2.2648,2.2886,2.3157,2.28,2.2595,2.2584,2.2451,2.1947,2.1206,2.0423,1.9918,1.9561,0.0,0.0,0.0,0.0,1.9124,1.8971,1.9506,1.9342,0.0,1.8567,0.0,0.0,0.0,0.0,0.0,0.0,0.0,0.0,0.0,0.0,1.7961,1.7414,1.7642,1.8052,1.8366,1.8663,1.8562,0.0,1.7317,1.6947,1.5884,0.0,0.0,0.0,0.0,1.8311,1.8713,1.9344,1.965,1.9116,1.9075,1.9075,1.9075,1.8878,1.8107,1.6381,1.5974,1.5045,1.3435,1.2885,1.2385,0.0,0.0,0.0,0.0,0.0,0.0,0.0,0.0,0.0,0.0,0.0,0.0,0.0,0.0,0.0,0.0,0.0,0.0,0.0,0.0,0.0,0.0,0.0,0.0,0.0,0.0,0.0,0.0,1.6165,1.6874,1.6658,1.7345,1.7401,0.0,0.0,0.0,0.0,0.0,0.0,2.0118,2.0391,2.085,2.157,2.1723,2.2039,2.2473,2.2544,2.2737,2.327,2.2983,2.3028,2.3446,2.315,2.3001,2.3001,2.3001,2.2805,2.2433,2.1581,2.1155,2.1013,2.0653,2.0445,2.0555,2.0915,2.0828,2.062,2.1341,2.1112,2.0456,2.0096,0.0,1.9113,1.8403,0.0,0.0,0.0,0.0,1.8317,1.8331,1.8209,1.7942,1.718,1.7723,1.8416,1.8497,1.9373,1.9853,0.0,1.8919,1.8823,1.7663,0.0,0.0,0.0,0.0,1.9023,1.9375,1.982,1.9882,1.9313,1.9251,1.9199,1.9085,1.8931,1.8168,1.6548,1.626,1.5469,1.393,1.3529,1.3187,1.283,0.0,0.0,0.0,0.0,0.0,0.0,0.0,0.0,0.0,0.0,0.0,0.0,0.0,0.0,0.0,0.0,0.0,0.0,0.0,0.0,0.0,0.0,0.0,0.0,0.0,0.0,0.0,0.0,0.0,1.7944,1.9113,0.0,0.0,0.0,0.0,1.99,2.0882,2.1625,2.2149,2.3023,2.3536,2.358,2.405,2.4082,2.3624,2.3624,2.3405,2.3043,2.2968,2.2979,2.3001,2.3001,2.3001,2.3001,2.3001,2.299,2.2925,2.2444,2.1974,2.1549,2.1527,2.1516,2.1516,2.1538,2.1538,2.1516,2.157,2.1559,2.1516,2.1483,2.1144,2.0807,2.0764,2.0283,0.0,0.0,2.0104,2.0267,2.0329,1.995,1.9389,1.892,1.8122,1.7456,1.6952,1.8132,1.95,0.0,1.9713,1.9134,1.8714,0.0,1.8874,1.9555,2.0017,2.0327,2.0348,2.0762,2.071,1.9889,1.9796,1.9551,1.9106,1.8452,1.7745,1.6904,1.6219,1.5446,1.4585,1.4252,1.3894,1.3537,1.2838,0.0,0.0,0.0,0.0,0.0,0.0,0.0,0.0,0.0,0.0,0.0,0.0,0.0,0.0,0.0,0.0,0.0,0.0,0.0,0.0,0.0,0.0,0.0,0.0,0.0,0.0,0.0,0.0,1.9364,2.0313,0.0,1.9953,2.0435,2.1144,2.192,2.2597,2.3187,2.3689,2.4039,2.4213,2.4213,2.4388,2.4399,2.4224,2.4213,2.4137,2.3962,2.3962,2.3962,2.3962,2.3962,2.3962,2.394,2.3613,2.3471,2.3427,2.2957,2.2652,2.2499,2.2499,2.2499,2.2499,2.2499,2.2499,2.2499,2.2499,2.2302,2.2007,2.1691,2.1472,2.133,2.1192,2.0532,1.98,1.9727,1.9297,1.8784,1.8551,1.8317,1.8188,1.832,1.8504,1.8777,1.9079,2.006,2.0961,2.1192,2.1039,2.0693,1.9951,2.0063,2.0237,2.0163,2.0576,2.0866,2.0866,2.101,2.0876,2.0255,2.0193,2.0006,1.9619,1.9305,1.8547,1.7019,1.6655,1.5965,1.4641,1.4522,1.4283,1.3934,1.3457,1.2591,0.0,0.0,0.0,0.0,0.0,0.0,0.0,0.0,0.0,0.0,0.0,0.0,0.0,0.0,0.0,0.0,0.0,0.0,0.0,0.0,0.0,0.0,0.0,0.0,0.0,0.0,2.0698,2.0609,2.1702,2.2247,2.1684,2.2182,2.2892,2.3667,2.4028,2.4432,2.4934,2.4967,2.4967,2.4967,2.4967,2.4891,2.4727,2.4727,2.4639,2.4486,2.4486,2.4486,2.4486,2.4486,2.4486,2.4465,2.4126,2.3984,2.3962,2.3635,2.3504,2.3471,2.3132,2.3001,2.3001,2.3001,2.3001,2.3001,2.3001,2.2805,2.2499,2.2171,2.1836,2.1549,2.156,2.0639,1.9564,1.9793,1.9081,1.8264,1.8496,1.8336,1.8095,1.8399,1.863,1.8948,1.9195,1.9904,2.0576,2.0644,2.1275,2.1611,2.1,2.1145,2.1248,2.0938,2.1155,2.1352,2.1352,2.1352,2.1176,2.071,2.0659,2.041,1.9879,1.954,1.8715,1.7028,1.6664,1.5965,1.4641,1.4522,1.4347,1.4117,1.3656,1.2957,1.2027,0.0,0.0,0.0,0.0,0.0,0.0,0.0,0.0,0.0,0.0,0.0,0.0,0.0,0.0,0.0,0.0,0.0,0.0,0.0,0.0,0.0,0.0,0.0,1.9572,2.1155,2.2193,2.1734,2.334,2.4115,2.3165,2.394,2.4705,2.5164,2.5196,2.5404,2.5874,2.5895,2.5895,2.5895,2.5895,2.5677,2.5196,2.5196,2.4967,2.453,2.453,2.453,2.453,2.453,2.453,2.453,2.4519,2.4508,2.4508,2.4497,2.4486,2.4388,2.3427,2.3045,2.3045,2.3023,2.3012,2.3001,2.3001,2.3001,2.3001,2.3001,2.2295,2.1517,2.1939,2.0682,1.9265,2.0187,1.958,1.8966,2.0372,1.9972,1.9265,1.9265,1.863,1.7764,1.6984,1.7465,1.8207,1.8511,2.0375,2.1849,2.1772,2.1849,2.1849,2.1828,2.1828,0.0,2.1807,2.1807,2.1631,2.1186,2.1135,2.0772,1.9882,1.9143,1.8168,1.6978,1.6184,1.5417,1.4657,1.4331,1.414,1.414,1.3481,1.3132,1.3124,0.0,0.0,0.0,0.0,0.0,0.0,0.0,0.0,0.0,0.0,0.0,0.0,0.0,0.0,0.0,0.0,0.0,0.0,0.0,0.0,0.0,0.0,2.168,2.1538,2.2575,2.3427,2.3667,2.4159,2.4508,2.4574,2.4825,2.5185,2.5666,2.5699,2.5764,2.5895,2.5895,2.5895,2.5895,2.5895,2.5841,2.5699,2.5699,2.5633,2.5513,2.5513,2.5513,2.5513,2.5513,2.5513,2.5491,2.5142,2.4989,2.4956,2.4628,2.4486,2.4465,2.4192,2.4082,2.4039,2.3667,2.3307,2.3001,2.3001,2.3001,2.3001,2.2852,2.2542,2.2231,2.1385,2.076,2.0207,1.9728,1.8948,1.8238,1.863,1.8078,1.7602,1.8238,1.8158,1.8155,1.883,1.9714,2.0239,1.9895,2.139,2.2551,2.1859,2.2291,2.2687,2.2356,2.2304,0.0,2.1849,2.1807,2.1756,2.1631,2.1621,2.1148,1.9979,1.9403,1.8385,1.6552,1.6059,1.5535,1.5022,1.4943,1.4887,1.4887,1.4442,1.4085,0.0,0.0,0.0,0.0,0.0,0.0,0.0,0.0,0.0,0.0,0.0,0.0,0.0,0.0,0.0,0.0,0.0,0.0,0.0,0.0,0.0,0.0,2.228,2.3296,2.3493,2.3984,2.4443,2.4738,2.4956,2.5185,2.5448,2.548,2.56,2.5884,2.5895,2.5895,2.5895,2.5895,2.5895,2.5895,2.5895,2.5895,2.5895,2.5895,2.5895,2.5895,2.5895,2.5895,2.5895,2.5895,2.5895,0.0,2.56,2.548,2.5459,2.5185,2.5087,0.0,0.0,0.0,0.0,0.0,2.3733,2.3307,2.3307,2.3101,2.2885,2.294,2.2363,2.1524,2.1164,2.0335,1.9435,1.9035,1.8468,1.7979,1.8402,1.7821,1.7411,1.8237,1.8145,1.8204,1.9327,1.9961,2.0421,2.0649,2.1587,0.0,2.1807,2.2496,2.3091,2.2832,2.2625,2.2397,2.2128,2.1921,2.1807,2.1807,2.1807,2.1308,2.0026,1.9678,0.0,0.0,0.0,1.5911,1.5255,1.5189,0.0,0.0,0.0,0.0,0.0,0.0,0.0,0.0,1.4855,1.4885,0.0,0.0,0.0,0.0,0.0,0.0,0.0,0.0,0.0,0.0,0.0,0.0,0.0,0.0,0.0,0.0,2.3689,2.4727,2.5185,2.5251,2.5251,2.5251,2.5633,2.5895,2.5895,2.5895,2.5895,2.5895,2.5895,2.5895,2.5895,0.0,0.0,0.0,0.0,2.5895,2.5895,2.5895,2.5895,2.5895,2.5895,2.5895,2.5895,2.5895,2.5895,2.5895,2.5895,2.5895,2.5895,2.5895,2.5895,2.5819,2.4978,2.4618,2.4563,2.4563,2.4246,2.3732,2.3732,0.0,0.0,2.3118,2.1869,2.0316,2.0948,1.9715,1.811,1.837,1.8197,1.8118,1.8896,1.8465,1.8032,1.881,1.8378,1.804,1.8929,1.9196,1.9566,2.0725,2.1067,2.136,2.1542,2.2395,2.2982,2.2931,2.2584,2.2298,2.2247,2.1849,2.164,2.1727,0.0,0.0,1.9944,1.979,1.892,1.6835,1.6775,1.6353,1.5447,1.5435,1.5459,1.5419,1.5745,1.6206,1.6794,1.7159,1.7509,1.7787,1.588,1.5682,0.0,0.0,0.0,0.0,0.0,0.0,0.0,0.0,0.0,0.0,0.0,0.0,0.0,0.0,0.0,2.3831,2.4618,2.5207,2.5699,2.5764,2.5764,2.5764,2.5841,2.5895,2.5895,2.5895,2.5895,2.5895,2.5895,2.5895,2.5895,2.5895,2.5895,2.5895,2.5895,2.5895,2.5895,2.5895,2.5895,2.5895,0.0,0.0,2.5895,2.5895,2.5895,2.5895,2.5895,2.5895,2.5895,2.5895,2.5895,2.5884,2.5699,2.5382,2.5043,2.5043,2.4647,2.3996,2.3996,2.3276,2.2392,2.2291,2.1496,2.0356,1.9706,1.9648,0.0,1.9144,1.8896,1.8896,1.9067,1.8465,1.7858,1.8032,1.7945,1.793,1.8394,1.9071,1.9533,1.9282,2.0506,2.1425,2.0692,2.138,2.187,2.1455,2.1334,2.1156,2.0736,2.0417,2.0486,2.1164,2.0918,2.042,1.9468,1.918,1.8267,1.6418,1.6533,1.6661,1.6436,1.6976,1.7143,1.6881,1.7199,1.7302,1.7175,1.7509,1.7858,1.8184,1.7485,1.7461,0.0,0.0,0.0,0.0,0.0,0.0,0.0,0.0,0.0,0.0,0.0,2.1011,2.18,0.0,2.3722,2.4672,2.5229,2.5622,2.5874,2.5895,2.5895,2.5895,2.5895,2.5895,2.5895,2.5895,2.5895,2.5895,2.5895,2.5895,2.5895,2.5895,2.5895,2.5895,2.5895,2.5895,2.5895,2.5895,2.5895,2.5895,2.5895,2.5895,2.5895,2.5895,2.5895,2.5895,2.5895,2.5895,2.5895,2.5895,2.5895,2.5906,2.5812,2.5587,2.537,2.5276,2.482,2.4341,2.4341,2.3685,2.2849,2.2466,2.169,2.0729,2.0515,1.9965,1.9604,1.9701,1.9356,1.8921,1.8921,1.8653,1.8295,1.8295,1.8295,1.8522,1.9142,1.9715,2.0035,2.0223,2.0619,2.0881,2.0339,2.0257,2.0459,2.1244,2.1131,2.093,2.072,2.0345,2.0255,2.0686,2.0489,2.0042,1.9306,1.8646,1.7969,1.7068,1.7159,1.7254,1.7254,1.7588,1.7691,1.7525,1.7858,1.7954,1.7787,1.8136,1.839,1.8557,1.8383,1.8398,0.0,0.0,0.0,0.0,0.0,0.0,0.0,0.0,1.96,2.0307,2.1553,2.2711,2.3329,2.4082,2.477,2.524,2.5644,2.5895,2.5895,2.5895,2.5895,2.5895,2.5895,2.5895,2.5895,2.5895,2.5895,2.5895,2.5895,2.5895,2.5895,2.5895,2.5895,2.5895,2.5895,2.5895,2.5895,2.5895,2.5895,2.5895,2.5895,2.5895,2.5895,2.5895,2.5895,2.5895,2.5895,2.5895,2.5895,2.5895,2.5895,2.5895,2.5644,2.5559,2.5475,2.5285,2.4966,2.4575,2.4315,2.3826,2.3063,2.2451,2.1441,2.0651,2.106,2.0085,1.9004,1.9812,1.9455,1.8827,1.8827,1.8827,1.8827,1.8827,1.8827,1.9004,1.9803,1.9985,2.0257,2.0979,2.0529,1.9985,1.9985,1.9363,1.9363,2.0889,2.0793,2.0597,2.0597,2.0164,2.0,2.0171,2.0099,1.9809,1.9153,1.8292,1.7771,1.7771,1.7834,1.7874,1.7874,1.7938,1.7977,1.7977,1.8255,1.8398,1.8398,1.8684,1.8827,1.8827,1.8827,1.8827,1.4755,1.5351,1.6606,1.8829,1.8684,1.8723,0.0,0.0,2.2039,2.3324,2.3713,2.4129,2.4836,2.5022,2.5262,2.5742,2.5874,2.5895,2.5895,2.5895,2.5895,2.5895,2.5895,2.5895,2.5895,2.5895,2.5895,2.5895,2.5895,2.5895,2.5895,2.5895,2.5895,2.5895,2.5895,2.5895,2.5895,2.5895,2.5895,2.5895,2.5895,2.5895,2.5895,2.5895,2.5895,2.5895,2.5895,2.5895,2.5895,2.5895,2.5895,2.5822,2.538,2.52,2.52,2.52,2.5084,2.4692,2.3806,2.2814,2.1734,2.0891,1.9926,1.9039,1.9088,1.9004,1.8827,1.892,1.892,1.8827,1.8827,1.8827,1.8827,1.8827,1.8827,1.8827,1.8912,1.9004,1.9004,1.9096,1.9004,1.9004,1.9004,1.8827,1.8827,1.9096,1.9063,1.9039,1.9039,1.8725,1.8847,1.9624,1.9419,1.9239,1.9067,1.8292,1.7771,1.7771,1.8065,1.824,1.824,1.8541,1.8708,1.8708,1.8748,1.8772,1.8772,1.8812,1.8827,1.8827,1.8827,1.8827,1.7326,1.7934,0.0,0.0,2.038,2.0665,2.2289,2.2788,2.3187,2.4013,2.462,2.5031,2.5391,2.5507,2.5666,0.0,2.5895,2.5895,2.5895,2.5895,2.5895,2.5895,2.5895,2.5895,2.5895,2.5895,2.5895,2.5895,2.5895,2.5895,2.5895,2.5895,2.5895,2.5895,2.5895,2.5895,2.5895,2.5895,2.5895,2.5895,2.5895,2.5895,2.5895,2.5895,2.5895,2.5895,2.5895,2.5895,2.5895,2.5895,2.5895,2.5895,2.5559,2.538,2.5115,2.4327,2.3887,2.3714,2.2746,2.2129,2.1516,2.0619,1.9985,1.9629,1.9629,1.9271,1.8912,1.9538,1.9271,1.8827,1.8827,1.8827,1.8827,1.8827,1.8827,1.8827,1.8827,1.8827,1.8827,1.8827,1.8827,1.8827,1.8827,1.8827,1.8827,1.8827,1.8827,1.8827,1.8827,1.87,1.8688,1.9134,1.9011,1.8921,1.8921,1.8563,1.839,1.839,1.8526,1.8605,1.8605,1.8748,1.8827,1.8827,1.8827,1.8827,1.8827,1.8827,1.8827,1.8827,1.8827,1.8827,1.9044,0.0,0.0,2.1073,2.1745,2.2304,2.277,2.3306,2.3897,2.4315,2.4987,2.5475,2.5475,2.5728,2.5895,2.5822,2.5895,2.5895,2.5895,2.5895,2.5895,2.5895,2.5895,2.5895,2.5895,2.5895,2.5895,2.5895,2.5895,2.5895,2.5895,2.5895,2.5895,2.5895,2.5895,2.5895,2.5895,2.5895,2.5895,2.5895,2.5895,2.5895,2.5895,2.5895,2.5895,2.5895,2.5895,2.5895,2.5895,2.5895,2.5895,2.5895,2.5654,2.5475,2.5115,2.3444,2.2921,2.2921,2.1774,2.1329,2.115,2.0167,1.9894,1.9894,1.9894,1.9363,1.8912,1.972,1.9363,1.8827,1.8827,1.8827,1.8827,1.8827,1.8827,1.8827,1.8827,1.8827,1.8827,1.8827,1.8827,1.8827,1.8827,1.8827,1.8827,1.8827,1.8827,1.8827,1.8827,1.8827,1.8827,1.8827,1.8827,1.8827,1.8827,1.8827,1.8827,1.8827,1.8827,1.8827,1.8827,1.8827,1.8827,1.8827,1.8827,1.8827,1.8827,1.8827,1.8827,1.8827,1.8827,1.8827,0.0,0.0,2.0627,2.1549,2.247,2.3267,2.3732,2.4178,2.4584,2.484,2.502,2.52,2.52,2.5549,2.5812,2.5644,2.5728,2.5895,2.5895,2.5895,2.5895,2.5895,2.5895,2.5895,0.0,2.5895,2.5895,2.5895,2.5895,2.5895,2.5895,2.5895,2.5895,2.5895,2.5895,2.5895,2.5895,2.5895,2.5895,2.5895,2.5895,2.5895,2.5895,2.5895,2.5895,2.5895,2.5895,2.5895,2.5895,2.5895,2.5895,2.5895,2.5654,2.5559,2.5295,2.2911,2.2473,2.2833,2.0962,2.0339,2.0167,1.918,1.8827,1.8827,1.8827,1.8827,1.8827,1.8827,1.8827,1.8827,1.8827,1.8827,1.8827,1.8827,1.8827,1.8827,1.8827,1.8827,1.8827,1.8827,1.8827,1.8827,1.8827,1.8827,1.8827,1.8827,1.8827,1.8827,1.8827,1.8827,1.8827,1.8827,1.8827,1.8827,1.8827,1.8827,1.8827,1.8827,1.8827,1.8827,1.8827,1.8827,1.8827,1.8827,1.8827,1.8827,1.8827,1.8827,1.8827,1.8827,1.8827,1.8827,0.0,0.0,2.1631,2.2873,2.3412,2.3764,2.4219,2.4436,2.454,2.4615,2.4871,2.5031,2.52,2.5464,2.5728,2.5812,2.5822,2.5895,2.5895,2.5895,2.5895,2.5895,2.5895,0.0,0.0,0.0,0.0,2.5895,2.5895,2.5895,2.5895,2.5895,2.5895,2.5895,2.5895,2.5895,2.5895,2.5895,2.5895,2.5895,2.5895,2.5895,2.5895,2.5895,2.5895,2.5895,2.5895,2.5895,2.5895,2.5895,2.5895,2.5895,2.5822,2.5728,2.5391,2.3963,2.2999,2.212,1.9985,1.9271,1.9271,1.892,1.8827,1.8827,1.8827,1.8827,1.8827,1.8827,1.8827,1.8827,1.8827,1.8827,1.8827,1.8827,1.8827,1.8827,1.8827,1.8827,1.8827,1.8827,1.8827,1.8827,1.8827,1.8827,1.8827,1.8827,1.8827,1.8827,1.8827,1.8827,1.8827,1.8827,1.8827,1.8827,1.8827,1.8827,1.8827,1.8827,1.8827,1.8827,1.8827,1.8827,1.8827,1.8827,1.8827,1.8827,1.8827,1.8827,1.8827,1.8827,1.8827,1.8827,2.1311,2.2045,2.2553,2.3619,2.4002,2.4188,2.4478,2.454,2.454,2.454,2.4575,2.4672,2.4925,2.5167,2.5449,2.5611,2.5812,2.5895,2.5895,2.5895,2.5895,2.5895,2.6059,2.6157,0.0,0.0,0.0,2.5928,2.5895,2.5895,2.5895,2.5895,2.5895,2.5895,2.5895,2.5895,2.5895,2.5895,2.5895,2.5895,2.5895,2.5895,2.5895,2.5895,2.5895,2.5895,2.5895,2.5895,2.5895,2.5895,2.5895,2.5895,2.5895,2.5812,2.5559,2.4402,2.3163,2.1845,2.0068,1.918,1.8827,1.8827,1.8827,1.8827,1.8827,1.8827,1.8827,1.8827,1.8827,1.8827,1.8827,1.8827,1.8827,1.8827,1.8827,1.8827,1.8827,1.8827,1.8827,1.8827,1.8827,1.8827,1.8827,1.8827,1.8827,1.8827,1.8827,1.8827,1.8827,1.8827,1.8827,1.8827,1.8827,1.8827,1.8827,1.8827,1.8827,1.8827,1.8827,1.8827,1.8827,1.8827,1.8827,1.8827,1.8827,1.8827,1.8827,1.8827,1.8827,1.8827,1.8827,1.8827,2.159,2.2511,2.3329,2.3795,2.4229,2.454,2.454,2.454,2.4444,2.4509,2.4325,2.4211,2.4364,0.0,2.4945,2.5135,2.56,2.5895,2.5895,2.5895,2.5906,0.0,0.0,0.0,0.0,0.0,0.0,2.6037,0.0,2.5972,2.5972,2.5972,2.5972,2.5972,2.595,2.5939,2.5939,2.5917,2.5895,2.5895,2.5895,2.5895,2.5895,2.5895,2.5895,2.5895,2.5895,2.5895,2.5895,2.5895,2.5895,2.5895,2.5895,2.5895,2.5717,2.4317,2.325,2.2268,2.1033,1.9803,1.8827,1.8827,1.8827,1.8827,1.8827,1.8827,1.8827,1.8827,1.8827,1.8827,1.8827,1.8827,1.8827,1.8827,1.8827,1.8827,1.8827,1.8827,1.8827,1.8827,1.8827,1.8827,1.8827,1.8827,1.8827,1.8827,1.8827,1.8827,1.8827,1.8827,1.8827,1.8827,1.8827,1.8827,1.8827,1.8827,1.8827,1.8827,1.8827,1.8827,1.8827,1.8827,1.8827,1.8827,1.8827,1.8827,1.8827,1.8827,1.8827,1.8827,1.8827,1.8827,2.2066,2.2998,2.3815,2.426,2.4457,2.454,2.454,2.454,2.4447,2.4115,2.3763,2.3369,2.3301,0.0,0.0,2.4379,2.5261,0.0,2.5895,2.5895,0.0,2.6398,0.0,2.6769,2.7108,2.7239,0.0,0.0,2.6944,2.6944,2.6944,2.6944,2.6944,2.6944,2.6616,2.6441,2.6441,2.6081,2.5895,2.5895,2.5895,2.5895,2.5895,2.5895,2.5895,2.5895,2.5895,2.5895,2.5895,2.5895,2.5895,2.5895,2.5895,2.5895,2.5812,2.4946,2.3887,2.2736,2.1498,2.0076,1.8827,1.8827,1.8827,1.8827,1.8827,1.8827,1.8827,1.8827,1.8827,1.8827,1.8827,1.8827,1.8827,1.8827,1.8827,1.8827,1.8827,1.8827,1.8827,1.8827,1.8827,1.8827,1.8827,1.8827,1.8827,1.8827,1.8827,1.8827,1.8827,1.8827,1.8827,1.8827,1.8827,1.8827,1.8827,1.8827,1.8827,1.8827,1.8827,1.8827,1.8827,1.8827,1.8827,1.8827,1.8827,1.8827,1.8827,1.8827,1.8827,1.8827,1.8827,1.8827,2.2604,2.3474,2.4229,2.4478,2.454,2.4436,2.4043,2.395,2.3764,2.3101,2.2604,0.0,2.2355,0.0,0.0,0.0,0.0,0.0,2.5895,2.6092,2.6321,0.0,2.6998,0.0,2.761,2.7818,2.7949,0.0,2.7555,2.7315,2.7315,2.7315,2.7315,2.7315,2.7064,2.6835,2.6627,2.6354,2.6114,2.5895,2.5895,2.5895,2.5895,2.5895,2.5895,2.5895,0.0,2.5895,2.5895,2.5895,2.5895,2.5895,2.5895,2.5728,2.538,2.4935,2.38,2.2482,2.1774,2.0439,1.9096,1.892,1.8827,1.8827,1.8827,1.8827,1.8827,1.8827,1.8827,1.8827,1.8827,1.8827,1.8827,1.8827,1.8827,1.8827,1.8827,1.8827,1.8827,1.8827,1.8827,1.8827,1.8827,1.8827,1.8827,1.8827,1.8827,1.8827,1.8827,1.8827,1.8827,1.8827,1.8827,1.8827,1.8827,1.8827,1.8827,1.8827,1.8827,1.8827,1.8827,1.8827,1.8827,1.8827,1.8827,1.8827,1.8827,1.8827,1.8827,1.8827,1.8827,1.8827,2.308,2.3857,2.454,2.454,2.4498,2.4229,2.3381,2.3091,2.276,2.189,0.0,2.1052,2.1455,2.2303,2.3097,2.3519,0.0,2.5764,2.5884,2.6321,2.6649,2.6715,2.7501,2.8069,2.8123,2.8517,2.8757,2.8757,2.7981,2.7501,2.7501,2.7501,2.7479,2.7413,2.7348,2.7097,2.6638,2.6562,2.6321,2.5895,2.5895,2.5895,2.5895,2.5895,2.5895,2.5895,2.5895,0.0,2.5895,2.5895,2.5895,2.5895,2.5895,2.5464,2.4861,2.4498,2.3444,2.2041,2.1606,2.0709,1.9646,1.9096,1.8827,1.8827,1.8827,1.8827,1.8827,1.8827,1.8827,1.8827,1.8827,1.8827,1.8827,1.8827,1.8827,1.8827,1.8827,1.8827,1.8827,1.8827,1.8827,1.8827,1.8827,1.8827,1.8827,1.8827,1.8827,1.8827,1.8827,1.8827,1.8827,1.8827,1.8827,1.8827,1.8827,1.8827,1.8827,1.8827,1.8827,1.8827,1.8827,1.8827,1.8827,1.8827,1.8827,1.8827,1.8827,1.8827,1.8827,1.8827,1.8827,1.8827,2.3163,2.3857,2.454,2.454,2.426,2.3846,2.3308,2.2594,0.0,0.0,2.0576,2.0017,2.01,2.0839,2.1647,2.2606,0.0,0.0,0.0,0.0,2.6769,0.0,0.0,0.0,0.0,0.0,0.0,0.0,0.0,2.8506,2.8506,2.8506,2.832,2.7927,2.7523,2.7097,2.6638,2.6234,2.5983,2.5895,2.5895,2.5895,2.5895,2.5895,2.5895,2.5895,2.5895,0.0,2.5895,2.5895,2.5895,2.5895,2.5895,2.5464,2.4861,2.4145,2.3377,2.2432,2.1006,2.0374,2.011,1.9646,1.9188,1.8827,1.8827,1.8827,1.8827,1.8827,1.8827,1.8827,1.8827,1.8827,1.8827,1.8827,1.8827,1.8827,1.8827,1.8827,1.8827,1.8827,1.8827,1.8827,1.8827,1.8827,1.8827,1.8827,1.8827,1.8827,1.8827,1.8827,1.8827,1.8827,1.8827,1.8827,1.8827,1.8827,1.8827,1.8827,1.8827,1.8827,1.8827,1.8827,1.8827,1.8827,1.8827,1.8827,1.8827,1.8827,1.8827,1.8827,1.8827,1.8827,2.3122,2.3681,2.425,2.4478,2.4209,2.3629,2.2687,0.0,0.0,0.0,1.9401,1.884,1.9267,0.0,0.0,0.0,0.0,0.0,0.0,0.0,0.0,0.0,0.0,0.0,0.0,0.0,0.0,0.0,0.0,2.8757,2.8757,2.8757,2.8648,2.8418,2.7949,2.7457,2.6988,2.6518,2.6147,2.5895,2.5895,2.5895,2.5895,2.5895,2.5895,2.5895,2.5895,0.0,2.5895,2.5895,2.5895,2.5895,2.5549,2.4946,2.4241,2.356,2.2872,2.2087,2.1284,2.0826,2.0637,2.0718,1.9812,1.8827,1.8827,1.8827,1.8827,1.8827,1.8827,1.8827,1.8827,1.8827,1.8827,1.8827,1.8827,1.8912,1.9446,1.9538,1.9538,1.9538,1.9994,2.0357,2.0357,2.0357,2.0357,2.0357,1.9903,1.9538,1.9538,1.9538,1.9363,1.8827,1.8827,1.8827,1.8827,1.8827,1.8827,1.8827,1.8827,1.8827,1.8827,1.8827,1.8827,1.8827,1.8827,1.8827,1.8827,1.8827,1.8827,1.8827,1.8827,1.8827,2.306,2.3608,2.4065,2.4426,2.4136,2.337,2.206,2.0949,0.0,0.0,1.8333,1.7904,1.8606,0.0,0.0,0.0,0.0,0.0,0.0,0.0,0.0,0.0,0.0,0.0,0.0,0.0,0.0,0.0,0.0,0.0,2.8757,2.8757,2.8702,2.8604,2.8134,2.7654,2.7173,2.6704,2.6278,2.5895,2.5895,2.5895,2.5895,2.5895,2.5895,2.5895,2.5895,0.0,0.0,2.5895,2.5895,2.5812,2.5295,2.468,2.3983,2.3484,2.2784,2.2167,2.1989,2.1802,2.1516,2.1774,2.0701,1.9279,1.9371,1.9455,1.9455,1.9455,1.9455,1.9455,1.9455,1.9455,1.9455,1.9455,1.9455,1.9629,2.0439,2.061,2.061,2.061,2.1239,2.1695,2.1695,2.1695,2.1695,2.1695,2.106,2.061,2.061,2.061,2.0257,1.9546,1.9455,1.9363,1.9188,1.9096,1.9004,1.8827,1.8827,1.8827,1.8827,1.8827,1.8827,1.8827,1.8827,1.8827,1.8827,1.8827,1.8827,1.8827,1.8827,1.8827,2.314,2.369,2.4232,2.4436,2.3888,2.2974,2.1753,0.0,0.0,1.8427,1.7885,1.7673,1.815,1.8411,0.0,0.0,0.0,0.0,0.0,0.0,0.0,0.0,0.0,0.0,0.0,0.0,0.0,0.0,0.0,0.0,2.8757,2.8757,2.856,2.8123,2.7632,2.7162,2.6693,2.6212,2.595,2.5895,2.5895,2.5895,2.5895,2.5895,2.5895,2.5895,2.5895,0.0,0.0,2.5895,2.5895,2.5895,2.5812,2.538,2.4775,2.4775,2.4241,2.3541,2.3096,2.2921,2.2833,2.2454,2.1676,2.0907,2.1338,2.1427,2.1427,2.1427,2.1427,2.1427,2.1427,2.1427,2.1427,2.1427,2.1427,2.1427,2.1516,2.1606,2.1606,2.1606,2.1606,2.1695,2.1695,2.1695,2.1695,2.1695,2.1606,2.1606,2.1606,2.1606,2.1516,2.1427,2.1427,2.1069,2.0257,2.0158,1.9812,1.8827,1.8827,1.8827,1.8827,1.8827,1.8827,1.8827,1.8827,1.8827,1.8827,1.8827,1.8827,1.8827,1.8827,1.8827,2.2955,2.3343,2.3731,2.4357,2.3907,2.306,2.1893,0.0,1.9369,1.8922,1.7888,1.7387,1.8315,1.8229,1.8462,0.0,2.0249,2.1286,2.3307,0.0,0.0,0.0,0.0,0.0,0.0,0.0,0.0,0.0,0.0,0.0,2.8757,2.8757,2.8528,2.8058,2.7566,2.7097,2.6638,2.6147,2.5895,2.5895,2.5895,2.5895,2.5895,2.5895,2.5895,2.5895,2.5895,0.0,0.0,2.5895,2.5895,2.5895,2.5464,2.5115,2.4861,2.4413,2.4059,2.38,2.3617,2.3531,2.3531,2.3607,2.3434,2.2921,2.2129,2.1863,2.1863,2.1695,2.1695,2.1695,2.1695,2.1695,2.1872,2.2394,2.2138,2.1872,2.2394,2.257,2.257,2.257,2.3018,2.3387,2.3387,2.3387,2.3387,2.3387,2.2931,2.257,2.257,2.257,2.257,2.257,2.205,2.1516,2.115,2.115,2.0709,1.972,1.972,1.9455,1.8827,1.8827,1.8827,1.8827,1.8827,1.8827,1.8827,1.8827,1.8827,1.8827,1.8827,1.8947,2.2647,2.3097,2.3412,2.4129,2.3699,2.2875,0.0,2.0375,1.9362,1.896,1.797,1.7406,1.83,1.8267,1.8295,0.0,1.9681,2.0751,2.2728,0.0,0.0,0.0,0.0,0.0,0.0,0.0,0.0,0.0,0.0,0.0,2.8331,2.8331,2.8167,2.7839,2.7359,2.6889,2.642,2.607,2.5895,2.5895,2.5895,2.5895,2.5895,2.5895,2.5979,2.6052,2.5979,0.0,0.0,2.5979,2.5895,2.5812,2.538,2.5211,2.5115,2.4584,2.4413,2.4413,2.4413,2.4413,2.4498,2.484,2.4935,2.4669,2.3444,2.2999,2.2833,2.258,2.2501,2.2501,2.2501,2.2501,2.2668,2.3367,2.3018,2.2668,2.3367,2.3541,2.3541,2.3541,2.409,2.454,2.454,2.454,2.454,2.454,2.3907,2.3541,2.3541,2.3541,2.3541,2.3541,2.2931,2.2403,2.2129,2.2129,2.1686,2.0791,2.0701,2.0439,1.9729,1.9637,1.9637,1.9637,1.9637,1.9546,1.9271,1.9271,1.9096,1.8827,1.8827,1.9074,2.2232,2.2906,2.3466,2.3711,2.3115,2.2051,0.0,1.9781,1.8908,1.8158,1.801,1.7999,1.801,1.8381,1.8687,1.8698,2.0314,2.1909,2.287,0.0,0.0,0.0,0.0,0.0,0.0,0.0,0.0,0.0,0.0,0.0,2.7348,2.7326,2.7326,2.7315,2.6878,2.6398,2.5917,2.5895,2.5895,2.5895,2.5895,2.5895,2.5895,2.5895,2.6135,0.0,0.0,0.0,0.0,2.6052,2.5895,2.5895,2.5895,2.5906,2.5906,2.5895,2.5895,2.5895,2.5895,2.5895,2.5895,2.5895,2.5906,2.5812,2.5644,2.5211,2.4775,2.454,2.4454,2.4454,2.4454,2.4454,2.4454,2.4454,2.4454,2.4454,2.4454,2.4454,2.4454,2.4454,2.4454,2.454,2.454,2.454,2.454,2.454,2.4454,2.4454,2.4454,2.4454,2.4454,2.4454,2.4454,2.409,2.3183,2.3096,2.2658,2.1784,2.1695,2.1695,2.1695,2.1695,2.1695,2.1695,2.1695,2.1239,2.0249,2.0249,1.9812,1.8827,1.8827,1.9201,2.0698,2.1285,2.1699,2.1826,2.1722,2.1285,1.9998,1.9499,1.9171,1.86,1.8228,1.8206,1.8851,1.8818,1.9015,2.0009,2.0686,0.0,0.0,0.0,0.0,0.0,0.0,0.0,0.0,0.0,0.0,0.0,0.0,0.0,2.7315,2.702,2.6846,2.6846,2.6704,2.6398,2.5906,2.6135,2.629,2.629,2.6622,2.6787,2.6787,2.6787,2.6857,0.0,0.0,0.0,0.0,2.6857,2.6787,2.6787,2.6456,2.629,2.629,2.5979,2.5895,2.5895,2.5895,2.5895,2.5895,2.5895,2.5895,2.5822,2.5644,2.5475,2.5295,2.4871,2.4615,2.454,2.454,2.454,2.454,2.454,2.454,2.454,2.454,2.454,2.454,2.454,2.454,2.454,2.454,2.454,2.454,2.454,2.454,2.454,2.454,2.454,2.454,2.454,2.454,2.4368,2.409,2.409,2.3647,2.2746,2.2658,2.2394,2.1695,2.1695,2.1695,2.1695,2.1695,2.1248,2.0339,2.0339,1.9946,1.9209,1.9431,1.9781,0.0,2.0236,2.0619,2.0597,2.0541,2.0268,1.9323,1.9015,1.8796,1.8501,1.8338,1.8447,1.9037,1.9189,1.9473,2.0194,2.0773,0.0,0.0,0.0,0.0,0.0,0.0,0.0,0.0,0.0,0.0,0.0,0.0,0.0,2.7028,2.6753,2.6672,2.6841,2.6672,2.6528,2.6385,2.6622,2.6764,2.6775,2.7103,2.7185,2.7185,2.7185,2.7267,0.0,0.0,0.0,0.0,2.7267,2.7185,2.7174,2.6693,2.6528,2.6445,2.6063,2.5895,2.5895,2.5895,2.5895,2.5895,2.5895,2.5895,2.5906,2.5728,2.5559,2.5295,2.5031,2.4786,2.454,2.4615,2.4625,2.454,2.454,2.454,2.454,2.454,2.454,2.454,2.454,2.454,2.454,2.454,2.454,2.454,2.454,2.454,2.454,2.454,2.454,2.454,2.454,2.454,2.454,2.454,2.454,2.4272,2.3637,2.3637,2.3377,2.2765,2.2765,2.2765,2.2765,2.2403,2.1774,2.0799,2.0076,1.9652,1.9383,1.9709,2.0051,0.0,1.953,1.9922,1.9889,1.9626,1.9189,1.8698,1.8283,0.0,1.801,1.8348,1.8676,1.8774,1.9506,1.9922,1.967,0.0,0.0,0.0,0.0,0.0,0.0,0.0,0.0,0.0,0.0,0.0,0.0,0.0,0.0,2.655,2.6528,2.6764,2.7267,2.6857,2.6775,2.7185,2.7267,2.7267,2.7267,2.7267,2.7267,2.7267,2.7267,2.7522,0.0,0.0,0.0,0.0,2.7441,2.7267,2.7267,2.6775,2.661,2.6528,2.6052,2.5895,2.5895,2.5895,2.5895,2.5895,2.5895,2.5895,2.5895,2.5895,2.5464,2.4946,2.52,2.4871,2.4625,2.4861,2.47,2.454,2.454,2.454,2.454,2.454,2.454,2.454,2.454,2.454,2.454,2.454,2.454,2.454,2.454,2.454,2.454,2.454,2.454,2.454,2.454,2.454,2.454,2.454,2.454,2.454,2.454,2.454,2.454,2.454,2.454,2.454,2.454,2.3551,2.2658,2.1784,1.9903,1.9196,1.947,1.9806,2.0149,1.7005,0.0,1.8425,1.8043,1.8141,1.8206,0.0,1.7813,1.801,0.0,0.0,0.0,1.9604,0.0,0.0,0.0,0.0,0.0,0.0,0.0,0.0,0.0,0.0,0.0,0.0,0.0,0.0,0.0,0.0,2.6651,2.7021,2.7021,2.7278,2.7708,2.7626,2.7452,2.7185,2.7534,2.7708,2.7708,2.8018,2.8179,2.8179,2.8179,2.8259,0.0,0.0,0.0,2.8351,2.8271,2.8179,2.8179,2.7708,2.7371,2.7021,2.6528,2.6135,2.5895,2.5895,2.5895,2.5895,2.5895,2.5895,2.5895,2.5895,2.5644,2.5475,2.5475,2.5295,2.5031,2.5115,2.5115,2.5031,2.5031,2.4956,2.4786,2.4786,2.4615,2.454,2.454,2.454,2.454,2.454,2.454,2.454,2.454,2.454,2.454,2.454,2.454,2.454,2.454,2.454,2.454,2.454,2.454,2.454,2.454,2.454,2.454,2.454,2.454,2.454,2.454,2.3551,2.3008,2.2746,2.1596,2.082,2.0466,2.0836,2.0728,1.5804,1.6754,1.766,1.7617,1.7813,1.7933,1.7671,0.0,0.0,0.0,0.0,0.0,0.0,0.0,0.0,0.0,0.0,0.0,0.0,0.0,0.0,0.0,0.0,0.0,0.0,0.0,0.0,0.0,0.0,2.7021,2.7534,2.7534,2.7696,2.8203,2.8203,2.803,2.7765,2.803,2.8203,2.8203,2.8431,2.851,2.851,2.851,2.851,0.0,0.0,0.0,2.851,2.851,2.851,2.8431,2.8042,2.7708,2.7452,2.6775,2.6362,2.6135,2.5979,2.5895,2.5895,2.5895,2.5895,2.5895,2.5895,2.5812,2.5738,2.5738,2.5464,2.52,2.538,2.5285,2.52,2.52,2.5115,2.5031,2.5031,2.4861,2.47,2.47,2.4625,2.454,2.454,2.454,2.454,2.454,2.454,2.454,2.454,2.454,2.454,2.454,2.454,2.454,2.454,2.454,2.454,2.454,2.454,2.454,2.454,2.454,2.4272,2.3907,2.3367,2.2658,2.1854,2.1329,2.0728,2.0201,2.0462,2.0541,1.5258,1.6381,1.7555,1.7715,1.789,1.7988,1.7912,0.0,0.0,0.0,0.0,0.0,0.0,0.0,0.0,0.0,0.0,0.0,0.0,0.0,0.0,0.0,0.0,0.0,0.0,0.0,0.0,0.0,0.0,2.7534,2.7962,2.7962,2.8122,2.851,2.851,2.851,2.851,2.851,2.851,2.851,2.851,2.851,2.851,2.851,2.851,2.851,0.0,0.0,2.851,2.851,2.851,2.8431,2.8122,2.7881,2.7708,2.6869,2.6528,2.6373,2.6063,2.5895,2.5895,2.5895,2.5895,2.5895,2.5895,2.5895,2.5895,2.5895,2.5633,2.5369,2.5559,2.5464,2.5285,2.5285,2.5285,2.5285,2.5285,2.5115,2.4946,2.4946,2.47,2.454,2.454,2.454,2.454,2.454,2.454,2.454,2.454,2.454,2.454,2.454,2.454,2.454,2.454,2.454,2.454,2.454,2.454,2.454,2.454,2.454,2.409,2.3367,2.3183,2.2385,2.0962,2.061,2.0246,1.976,1.9966,2.0223,1.5968,1.7335,1.8137,1.6983,1.7387,1.7901,1.7486,0.0,0.0,0.0,0.0,0.0,0.0,0.0,0.0,0.0,0.0,0.0,0.0,0.0,0.0,0.0,0.0,0.0,0.0,0.0,0.0,0.0,0.0,0.0,2.8351,2.8431,2.8431,2.851,2.851,2.851,2.851,2.851,2.851,2.851,2.851,2.851,2.851,2.851,2.851,2.851,0.0,2.851,2.851,2.851,2.851,2.851,2.8431,2.7938,2.7267,2.7185,2.6622,2.5979,2.5895,2.5895,2.5895,2.5895,2.5895,2.5895,2.5895,2.5895,2.5895,2.5895,2.5812,2.5812,2.5812,2.5812,2.5812,2.5812,2.5644,2.5559,2.5559,2.538,2.5115,2.4946,2.4861,2.4786,2.454,2.454,2.454,2.454,2.454,2.454,2.454,2.454,2.454,2.454,2.454,2.454,2.454,2.454,2.454,2.454,2.454,2.454,2.454,2.454,2.4454,2.4272,2.3454,2.3367,2.3831,2.2227,2.1454,2.1356,2.1156,2.066,1.5836,1.6935,1.7765,1.7833,1.884,1.9658,1.8999,0.0,0.0,0.0,0.0,0.0,0.0,0.0,0.0,0.0,0.0,0.0,0.0,0.0,0.0,0.0,0.0,0.0,0.0,0.0,0.0,0.0,0.0,0.0,2.851,2.851,2.851,2.851,2.851,2.851,2.851,2.851,2.851,2.851,2.851,2.851,2.851,2.851,2.851,2.851,0.0,2.851,2.851,2.851,2.851,2.851,2.851,2.8259,2.7857,2.7696,2.7044,2.6207,2.6207,2.6052,2.5895,2.5895,2.5895,2.5895,2.5895,2.5895,2.5895,2.5895,2.5895,2.5895,2.5895,2.5895,2.5895,2.5895,2.5822,2.5728,2.5728,2.5559,2.538,2.5295,2.5115,2.5031,2.4871,2.4871,2.4871,2.47,2.47,2.4615,2.454,2.454,2.454,2.454,2.454,2.454,2.454,2.454,2.454,2.454,2.454,2.454,2.454,2.454,2.454,2.454,2.409,2.3551,2.3028,2.2668,2.1805,2.0508,2.1045,2.092,1.577,1.6672,1.7611,1.8667,0.0,2.0767,2.0608,0.0,0.0,0.0,0.0,0.0,0.0,0.0,0.0,0.0,0.0,0.0,0.0,0.0,0.0,0.0,0.0,0.0,0.0,0.0,0.0,0.0,0.0,0.0,2.851,2.851,2.851,2.851,2.851,2.851,2.851,2.851,2.851,2.851,2.851,2.851,2.851,2.851,2.851,2.851,2.851,2.851,2.851,2.851,2.851,2.851,2.851,2.8431,2.8283,2.7869,2.729,2.6682,2.6682,2.6373,2.6052,2.6052,2.5979,2.5895,2.5895,2.5895,2.5895,2.5895,2.5895,2.5895,2.5895,2.5895,2.5895,2.5895,2.5895,2.5895,2.5895,2.5812,2.5644,2.5644,2.5464,2.5285,2.52,2.52,2.5115,2.4946,2.4861,2.47,2.454,2.454,2.454,2.454,2.454,2.454,2.454,2.454,2.454,2.454,2.454,2.454,2.454,2.454,2.454,2.454,2.4272,2.3464,2.2041,2.2306,2.1482,1.9617,2.0516,2.0679,1.6181,1.7444,1.8534,1.8759,0.0,0.0,2.1498,0.0,0.0,0.0,0.0,0.0,0.0,0.0,0.0,0.0,0.0,0.0,0.0,0.0,0.0,0.0,0.0,0.0,0.0,0.0,0.0,0.0,0.0,0.0,2.851,2.851,2.851,2.851,2.851,2.851,2.851,2.851,2.851,2.851,2.851,2.851,2.851,2.851,2.851,2.851,2.851,2.851,2.851,2.851,2.851,2.851,2.851,2.8271,2.7881,2.7441,2.7185,2.7185,2.7185,2.6857,2.6445,2.6445,2.6218,2.5895,2.5895,2.5895,2.5895,2.5895,2.5895,2.5895,2.5895,2.5895,2.5895,2.5895,2.5895,2.5895,2.5895,2.5906,2.5812,2.5654,2.5559,2.5464,2.52,2.5031,2.4946,2.4861,2.47,2.454,2.454,2.454,2.454,2.454,2.454,2.454,2.454,2.454,2.454,2.454,2.454,2.454,2.454,2.454,2.454,2.454,2.3637,2.3096,2.3008,2.132,2.0447,2.0226,2.0107,1.9973,1.6291,1.7576,1.8814,1.9719,0.0,0.0,0.0,0.0,0.0,0.0,0.0,0.0,0.0,0.0,0.0,0.0,0.0,0.0,0.0,0.0,0.0,0.0,0.0,0.0,0.0,0.0,0.0,0.0,0.0,0.0,0.0,2.851,2.851,2.851,2.851,2.851,2.851,2.851,2.851,2.851,2.851,2.851,2.851,2.851,2.851,2.851,2.851,2.851,2.851,2.851,2.851,2.851,2.851,2.8431,2.8271,2.8099,2.7857,2.7615,2.7267,2.6857,2.6445,2.6207,2.6063,2.5895,2.5895,2.5895,2.5895,2.5895,2.5895,2.5895,2.5895,2.5895,2.5895,2.5895,2.5895,2.5895,2.5895,2.5895,2.5895,2.5822,2.5822,2.5728,2.5633,2.5549,2.5475,2.538,2.5221,2.5126,2.4956,2.4871,2.4786,2.4786,2.4625,2.454,2.454,2.454,2.454,2.454,2.454,2.454,2.454,2.3907,2.3637,2.3637,2.2755,2.1952,2.132,2.1239,2.065,1.9715,2.0259,2.0222,1.6394,1.7277,1.837,0.0,0.0,0.0,0.0,0.0,0.0,0.0,0.0,0.0,0.0,0.0,0.0,0.0,0.0,0.0,0.0,0.0,0.0,0.0,0.0,0.0,0.0,0.0,0.0,0.0,0.0,0.0,0.0,2.851,2.851,2.851,2.851,2.851,2.851,2.851,2.851,2.851,2.851,2.851,2.851,2.851,2.851,2.851,2.851,2.851,2.851,2.851,2.851,2.851,2.851,2.851,2.851,2.851,2.8363,2.8042,2.7684,2.736,2.6869,2.6467,2.6218,2.6052,2.5895,2.5895,2.5895,2.5895,2.5895,2.5895,2.5895,2.5895,2.5895,2.5895,2.5895,2.5895,2.5895,2.5895,2.5895,2.5895,2.5895,2.5895,2.5895,2.5822,2.5728,2.5654,2.5559,2.538,2.52,2.5115,2.5031,2.5031,2.4786,2.4625,2.4625,2.454,2.454,2.454,2.454,2.4368,2.409,2.3454,2.2921,2.2658,2.2041,2.1248,2.0339,2.097,2.0577,1.9201,2.005,2.0136,1.644,1.6596,0.0,0.0,0.0,0.0,0.0,0.0,0.0,0.0,0.0,0.0,0.0,0.0,0.0,0.0,0.0,0.0,0.0,0.0,0.0,0.0,0.0,0.0,0.0,0.0,0.0,0.0,0.0,0.0,0.0,2.851,2.851,2.851,2.851,2.851,2.851,2.851,2.851,2.851,2.851,2.851,2.851,2.851,2.851,2.851,2.851,2.851,2.851,2.851,2.851,2.851,2.851,2.851,2.851,2.851,2.851,2.851,2.851,2.8191,2.78,2.736,2.6857,2.6445,2.6063,2.5895,2.5895,2.5895,2.5895,2.5895,2.5895,2.5895,2.5895,2.5895,2.5895,2.5895,2.5895,2.5895,2.5895,2.5895,2.5895,2.5895,2.5895,2.5728,2.5559,2.5559,2.538,2.52,2.52,2.52,2.52,2.52,2.5031,2.4861,2.4861,2.4615,2.454,2.454,2.454,2.409,2.3183,2.3096,2.2658,2.1695,2.1695,2.1239,2.0257,2.0257,1.9812,1.8835,1.9201,1.9368,1.644,1.7712,0.0,0.0,0.0,0.0,0.0,0.0,0.0,0.0,0.0,0.0,0.0,0.0,0.0,0.0,0.0,0.0,0.0,0.0,0.0,0.0,0.0,0.0,0.0,0.0,0.0,0.0,0.0,0.0,0.0,2.851,2.851,2.851,2.851,2.851,2.851,2.851,2.851,2.851,2.851,2.851,2.851,2.851,2.851,2.851,2.851,2.851,2.851,2.851,2.851,2.851,2.851,2.851,2.851,2.851,2.851,2.8431,2.8203,2.7788,2.736,2.6857,2.6456,2.6063,2.5895,2.5895,2.5895,2.5895,2.5895,2.5895,2.5895,2.5895,2.5895,2.5895,2.5895,2.5895,2.5895,2.5895,2.5895,2.5895,2.5895,2.5895,2.5895,2.5812,2.5812,2.5812,2.5728,2.5633,2.5475,2.5475,2.538,2.52,2.5031,2.4861,2.4861,2.4615,2.454,2.454,2.454,2.4368,2.409,2.2843,2.1961,2.1695,2.0348,1.9546,1.9271,1.9271,1.9096,1.8827,1.8939,1.8994,1.6943,0.0,0.0,0.0,0.0,0.0,0.0,0.0,0.0,0.0,0.0,0.0,0.0,0.0,0.0,0.0,0.0,0.0,0.0,0.0,0.0,0.0,0.0,0.0,0.0,0.0,0.0,0.0,0.0,0.0,0.0,2.8657,2.851,2.851,2.851,2.851,2.851,2.851,2.851,2.851,2.851,2.851,2.851,2.851,2.851,2.851,2.851,2.851,2.851,2.851,2.851,2.851,2.851,2.851,2.851,2.851,2.851,2.8431,2.8203,2.7938,2.7603,2.7196,2.688,2.6644,2.6467,2.6302,2.6135,2.6135,2.6063,2.5895,2.5895,2.5895,2.5895,2.5895,2.5895,2.5895,2.5895,2.5895,2.5895,2.5895,2.5895,2.5895,2.5895,2.5895,2.5895,2.5895,2.5895,2.5822,2.5728,2.5728,2.5644,2.5464,2.5295,2.5115,2.5031,2.4786,2.4433,2.3993,2.3907,2.382,2.3387,2.2315,2.1338,2.0529,1.9363,1.8827,1.8827,1.8827,1.8827,1.8827,1.8827,1.8827,0.0,0.0,0.0,0.0,0.0,0.0,0.0,0.0,0.0,0.0,0.0,0.0,0.0,0.0,0.0,0.0,0.0,0.0,0.0,0.0,0.0,0.0,0.0,0.0,0.0,0.0,0.0,0.0,0.0,0.0,0.0,2.8895,2.859,2.859,2.851,2.851,2.851,2.851,2.851,2.851,2.851,2.851,2.851,2.851,2.851,2.851,2.851,2.851,2.851,2.851,2.851,2.851,2.851,2.851,2.851,2.851,2.851,2.851,2.851,2.851,2.8363,2.8042,2.7893,2.78,2.736,2.6928,2.6517,2.6517,2.629,2.5979,2.5979,2.5979,2.5979,2.5895,2.5895,2.5895,2.5895,2.5895,2.5895,2.5895,2.5895,2.5895,2.5895,2.5895,2.5895,2.5895,2.5895,2.5895,2.5895,2.5895,2.5895,2.5895,2.5728,2.5464,2.52,2.5031,2.4423,2.327,2.3096,2.2658,2.1695,2.1606,2.0709,1.9004,1.8827,1.8827,1.8827,1.8827,1.8827,1.8827,1.8827,1.8827,0.0,0.0,0.0,0.0,0.0,0.0,0.0,0.0,0.0,0.0,0.0,0.0,0.0,0.0,0.0,0.0,0.0,0.0,0.0,0.0,0.0,0.0,0.0,0.0,0.0,0.0,0.0,0.0,0.0,0.0,3.0088,2.9561,2.9184,2.9184,2.8736,2.851,2.851,2.851,2.851,0.0,2.851,2.851,2.851,2.851,2.851,2.851,2.851,2.851,2.851,2.851,2.851,2.851,2.851,2.851,2.851,2.851,2.851,2.851,2.851,2.8271,2.8042,2.7973,2.7626,2.7348,2.7267,2.7103,2.7021,2.7021,2.7021,2.6869,2.6456,2.6373,2.629,2.5979,2.5895,2.5895,2.5895,2.5895,2.5895,2.5895,2.5895,2.5895,2.5895,2.5895,2.5895,2.5895,2.5895,2.5895,2.5895,2.5895,2.5895,2.5895,2.5728,2.5464,2.52,2.5031,2.4519,2.3744,2.328,2.2482,2.1168,2.0799,2.043,1.9985,1.9188,1.8827,1.8827,1.8827,1.8827,1.8827,1.8827,1.8827,0.0,0.0,0.0,0.0,0.0,0.0,0.0,0.0,0.0,0.0,0.0,0.0,0.0,0.0,0.0,0.0,0.0,0.0,0.0,0.0,0.0,0.0,0.0,0.0,0.0,0.0,0.0,0.0,0.0,3.1071,3.0771,3.0177,2.9793,2.9793,2.9275,2.904,2.9341,2.8816,2.8669,2.8961,2.8669,2.851,2.851,2.851,2.851,2.851,2.851,2.851,2.851,2.851,2.851,2.851,2.851,2.851,2.851,2.851,2.851,2.851,2.851,2.8351,2.8203,2.8203,2.803,2.7846,2.7846,2.7684,2.7452,2.7267,2.7021,2.6775,2.629,2.6207,2.6135,2.5979,2.5895,2.5895,2.5895,2.5895,2.5895,2.5895,2.5895,2.5895,2.5895,2.5895,2.5895,2.5895,2.5895,2.5895,2.5895,2.5895,2.5895,2.5895,2.5812,2.5644,2.538,2.5211,2.4594,2.3637,2.2843,2.1863,2.0709,1.9994,1.9538,1.9538,1.9096,1.8827,1.8827,1.8827,1.8827,1.8827,1.8827,1.8827,0.0,0.0,0.0,0.0,0.0,0.0,0.0,0.0,0.0,0.0,0.0,0.0,0.0,0.0,0.0,0.0,0.0,0.0,0.0,0.0,0.0,0.0,0.0,0.0,0.0,0.0,0.0,0.0,0.0,3.1381,3.1381,3.0771,3.0469,3.0469,2.9871,2.9793,3.0317,2.9341,2.904,2.9574,2.8961,2.859,2.851,2.851,2.851,2.851,2.851,2.851,2.851,2.851,2.851,2.851,2.851,2.851,2.851,2.851,2.851,2.851,2.851,2.851,2.851,2.851,2.851,2.851,2.851,2.8271,2.7962,2.7522,2.7185,2.6693,2.6218,2.6146,2.6063,2.5895,2.5895,2.5895,2.5895,2.5895,2.5895,2.5895,2.5895,2.5895,2.5895,2.5895,2.5895,2.5895,2.5895,2.5895,2.5895,2.5895,2.5895,2.5895,2.5895,2.5728,2.5475,2.52,2.4584,2.327,2.2217,2.1248,2.0439,1.9363,1.8827,1.892,1.8827,1.8827,1.892,1.8827,1.8827,1.892,1.8827,1.8827,0.0,0.0,0.0,0.0,0.0,0.0,0.0,0.0,0.0,0.0,0.0,0.0,0.0,0.0,0.0,0.0,0.0,0.0,0.0,0.0,0.0,0.0,0.0,0.0,0.0,0.0,0.0,0.0,3.2096,3.2096,3.2096,3.1468,3.1071,3.1071,3.0469,3.0241,3.0317,3.0165,3.0101,3.0165,2.9574,2.904,2.851,2.851,2.851,2.851,2.851,2.851,2.851,2.851,2.851,2.851,2.851,2.851,2.851,2.851,2.851,2.851,2.851,2.851,2.851,2.851,2.851,2.851,2.851,2.8431,2.8431,2.8339,2.8259,2.8018,2.7278,2.7021,2.6869,2.6063,2.5895,2.5895,2.5895,2.5895,2.5895,2.5895,2.5895,2.5895,2.5895,2.5895,2.5895,2.5895,2.5895,2.5895,2.5895,2.5895,2.5895,2.5895,2.5895,2.5549,2.4765,2.4584,2.3983,2.2599,2.1624,2.1078,2.0898,1.9546,1.9004,1.9463,1.9004,1.9012,1.9455,1.9012,1.9004,1.9463,1.9004,1.8827,0.0,0.0,0.0,0.0,0.0,0.0,0.0,0.0,0.0,0.0,0.0,0.0,0.0,0.0,0.0,0.0,0.0,0.0,0.0,0.0,0.0,0.0,0.0,0.0,0.0,0.0,0.0,0.0,3.1192,3.1192,3.1192,3.0882,3.0726,3.0726,3.0138,2.9993,3.0368,2.9663,2.9282,2.9282,2.8725,2.8673,2.8959,2.8366,2.8234,2.851,2.851,2.851,2.851,2.851,2.851,2.851,2.851,2.851,2.851,2.851,2.851,2.851,2.851,2.851,2.851,2.851,2.851,2.851,2.851,2.851,2.8431,2.7926,2.7765,2.7603,2.6704,2.6456,2.6373,2.5979,2.5895,2.5895,2.5895,2.5895,2.5895,2.5895,2.5895,2.5895,2.5895,2.5895,2.5895,2.5895,2.5895,2.5895,2.5895,2.5559,2.538,2.538,2.4935,2.4413,2.38,2.3617,2.3096,2.2227,2.1159,2.0619,2.0619,1.9455,1.892,1.9188,1.892,1.892,1.9188,1.892,1.9096,1.9546,1.9371,1.9279,0.0,0.0,0.0,0.0,0.0,0.0,0.0,0.0,0.0,0.0,0.0,0.0,0.0,0.0,0.0,0.0,0.0,0.0,0.0,0.0,0.0,0.0,0.0,0.0,0.0,0.0,0.0,0.0,3.0405,3.0405,3.0405,3.0405,3.0405,3.0405,2.9977,2.9907,3.0405,2.9434,2.8912,2.8756,2.8363,2.8445,2.891,2.811,2.7806,2.8114,2.8246,2.8318,2.8294,2.8162,2.8114,2.8114,2.8114,2.8114,2.8114,2.8114,2.8114,2.8114,2.8114,2.8114,2.8114,2.8114,2.821,2.8318,2.8318,2.8318,2.8148,2.7485,2.7325,2.7163,2.6278,2.613,2.6135,2.5979,2.5895,2.5895,2.5895,2.5895,2.5895,2.5895,2.5895,2.5895,2.5895,2.5895,2.5895,2.5895,2.5728,2.5644,2.5644,2.5031,2.4594,2.4594,2.4145,2.3627,2.3105,2.2843,2.2482,2.1774,2.097,2.0439,2.0257,1.9455,1.9012,1.9012,1.8827,1.892,1.9196,1.892,1.9104,1.9737,1.9554,1.9371,0.0,0.0,0.0,0.0,0.0,0.0,0.0,0.0,0.0,0.0,0.0,0.0,0.0,0.0,0.0,0.0,0.0,0.0,0.0,0.0,0.0,0.0,0.0,0.0,0.0,0.0,0.0,0.0,3.0405,3.0405,3.0405,3.0405,3.0405,3.0405,3.0336,3.0336,3.0405,3.0336,3.0033,2.9434,2.939,2.8833,2.7767,2.7767,2.7421,2.7043,2.7548,2.7765,2.7717,2.7224,2.7007,2.7007,2.7007,2.7007,2.7007,2.7007,2.7007,2.7007,2.7007,2.7007,2.7007,2.7007,2.7356,2.7765,2.7765,2.7765,2.7765,2.7687,2.7687,2.7442,2.6632,2.6748,2.694,2.6063,2.5895,2.5895,2.5895,2.5895,2.5895,2.5895,2.5895,2.5895,2.5895,2.5895,2.5895,2.5895,2.538,2.4946,2.4946,2.4327,2.3887,2.3887,2.38,2.3551,2.2882,2.2794,2.2344,2.1168,2.0997,2.0727,2.0292,1.9828,1.9546,1.9546,1.9096,1.9288,2.0201,1.9279,1.9279,2.0201,1.9288,1.8827,0.0,0.0,0.0,0.0,0.0,0.0,0.0,0.0,0.0,0.0,0.0,0.0,0.0,0.0,0.0,0.0,0.0,0.0,0.0,0.0,0.0,0.0,0.0,0.0,0.0,0.0,0.0,0.0,0.0,2.9238,2.9238,2.9238,2.9238,2.9238,2.9238,2.9238,2.9238,2.9238,2.8959,2.8396,2.8069,2.7837,2.783,2.704,2.6944,2.7422,2.6892,2.6887,2.72,2.7007,2.6935,2.6935,2.6935,2.6935,2.6935,2.6935,2.6935,2.6935,2.6935,2.6935,2.6935,2.6935,2.7055,2.7224,2.7224,2.7224,2.7136,2.6895,2.6806,2.6736,2.6505,2.6565,2.6622,2.6378,2.6052,2.5895,2.5895,2.5895,2.5895,2.5895,2.5895,2.5895,2.5895,2.5895,2.5728,2.5295,2.5031,2.4765,2.4241,2.3551,2.3135,2.3135,2.2687,2.2246,2.1713,2.1365,2.0916,2.0184,1.982,1.9554,1.9379,1.9196,1.9104,1.9104,1.892,1.9012,1.9379,1.9012,1.9196,1.9828,1.9463,1.9279,0.0,0.0,0.0,0.0,0.0,0.0,0.0,0.0,0.0,0.0,0.0,0.0,0.0,0.0,0.0,0.0,0.0,0.0,0.0,0.0,0.0,0.0,0.0,0.0,0.0,0.0,0.0,0.0,0.0,0.0,2.8587,2.8587,2.8587,2.8587,2.8587,2.8587,2.8587,2.8587,2.8327,2.7776,2.7443,2.7301,2.7316,2.6473,2.6467,2.693,2.613,2.6142,2.6635,2.6466,2.6394,2.6394,2.6394,2.6394,2.6394,2.6394,2.6394,2.6394,2.6394,2.6394,2.6394,2.6394,2.6502,2.6647,2.6647,2.6647,2.6572,2.6336,2.6261,2.6193,2.6151,2.6186,2.6245,2.6416,2.6218,2.5895,2.5895,2.5895,2.5895,2.5895,2.5895,2.5895,2.5895,2.5728,2.538,2.4946,2.4519,2.3993,2.3551,2.2872,2.2441,2.2441,2.1998,2.1553,2.1275,2.0916,2.0555,2.0093,1.9911,1.9646,1.9288,1.9288,1.9196,1.9096,1.892,1.8827,1.8827,1.8827,1.9096,1.9637,1.9463,1.9371,0.0,0.0,0.0,0.0,0.0,0.0,0.0,0.0,0.0,0.0,0.0,0.0,0.0,0.0,0.0,0.0,0.0,0.0,0.0,0.0,0.0,0.0,0.0,0.0,0.0,0.0,0.0,0.0,2.8587,2.8587,2.8587,2.8587,2.8587,2.8587,2.8587,2.8587,2.8587,2.8587,2.8327,2.7776,2.7776,2.7175,2.6151,2.6151,2.5873,2.5312,2.5312,2.56,2.6033,2.5516,2.5312,2.5312,2.5312,2.5312,2.5312,2.5312,2.5312,2.5312,2.5312,2.5312,2.5312,2.5312,2.5661,2.6069,2.6069,2.6069,2.6069,2.6069,2.6069,2.6008,2.5592,2.5681,2.5923,2.6393,2.6185,2.5884,2.5895,2.5895,2.5895,2.5895,2.5895,2.5895,2.5895,2.538,2.4861,2.4861,2.3657,2.2794,2.2803,2.2176,2.1741,2.1741,2.1741,2.1741,2.1741,2.1651,2.1463,2.0997,2.1365,2.1195,2.0292,2.0292,2.0011,1.9554,1.9104,1.8827,1.8827,1.8827,1.9104,1.9546,1.9004,1.8827,1.5461,0.0,0.0,0.0,0.0,0.0,0.0,0.0,0.0,0.0,0.0,0.0,0.0,0.0,0.0,0.0,0.0,0.0,0.0,0.0,0.0,0.0,0.0,0.0,0.0,0.0,0.0,0.0,2.8587,2.8587,2.8587,2.8587,2.8587,2.8587,2.8587,2.8587,2.8587,2.8197,2.7776,2.7242,2.6837,2.6289,2.5523,2.5523,2.5453,2.5312,2.5312,2.5396,2.5516,2.5372,2.5312,2.5312,2.5312,2.5312,2.5312,2.5312,2.5312,2.5312,2.5312,2.5312,2.5312,2.5312,2.5408,2.5528,2.5528,2.5528,2.5528,2.5528,2.5528,2.5553,2.5498,2.5569,2.5802,2.5959,2.5676,2.5469,2.5819,2.5895,2.5895,2.5895,2.5895,2.5895,2.5895,2.538,2.468,2.4145,2.3396,2.2627,2.2087,2.183,2.1741,2.1741,2.1741,2.1741,2.1741,2.1365,2.0997,2.0555,2.0283,1.992,1.9279,1.9196,1.9188,1.9004,1.892,1.8827,1.8827,1.8827,1.892,1.9004,1.8827,1.8827,0.0,0.0,0.0,0.0,0.0,0.0,0.0,2.0928,0.0,0.0,0.0,0.0,0.0,0.0,0.0,0.0,0.0,0.0,0.0,0.0,0.0,0.0,0.0,0.0,0.0,2.8451,2.8587,2.8587,2.8587,2.8587,2.8587,2.8587,2.8587,2.8587,2.8587,2.8587,2.8587,2.8052,2.751,2.6973,2.644,2.5873,2.5312,2.5312,2.5312,2.5312,2.5312,2.5312,2.5312,2.5312,2.5312,2.5312,2.5312,2.5312,2.5312,2.5312,2.5312,2.5312,2.5312,2.5312,2.5312,2.5312,2.5312,2.5312,2.5312,2.5312,2.5312,2.5312,2.5312,2.5361,2.5682,2.5679,2.5662,2.5913,2.5734,2.5495,2.5782,2.5837,2.5895,2.5895,2.5895,2.5895,2.5895,2.538,2.4765,2.4327,2.3396,2.2618,2.2176,2.1919,2.1741,2.1741,2.1741,2.1642,2.1454,2.1177,2.0817,2.0292,2.0192,1.9911,1.9471,1.9471,1.9379,1.9096,1.892,1.8827,1.8827,1.8827,1.8827,1.8827,1.8827,1.8827,0.0,1.7176,0.0,0.0,0.0,0.0,2.0663,2.0772,0.0,0.0,0.0,0.0,0.0,0.0,0.0,0.0,0.0,0.0,0.0,0.0,0.0,0.0,0.0,0.0,2.761,2.8085,2.8397,2.8397,2.8397,2.8424,2.8492,2.8492,2.8519,2.8587,2.8587,2.8587,2.8522,2.7987,2.7443,2.6905,2.6358,2.5804,2.5312,2.5312,2.5312,2.5312,2.5312,2.5312,2.5312,2.5312,2.5312,2.5312,2.5312,2.5312,2.5312,2.5312,2.5312,2.5312,2.5312,2.5312,2.5312,2.5312,2.5312,2.5312,2.5312,2.5312,2.5312,2.5312,2.5312,2.542,2.5817,2.5656,2.5503,2.6019,2.6003,2.5835,2.5891,2.5875,2.5979,2.5979,2.5895,2.5895,2.5895,2.538,2.4861,2.4861,2.3744,2.2882,2.2794,2.2264,2.182,2.1741,2.1741,2.1553,2.1087,2.1087,2.0916,2.0382,2.0727,2.0727,2.0201,2.0201,2.0011,1.9554,1.9004,1.8827,1.8827,1.8827,1.8827,1.8827,1.8827,1.8827,1.8493,1.8466,1.8779,1.9361,0.0,0.0,1.9293,1.9578,0.0,0.0,0.0,0.0,0.0,0.0,0.0,0.0,0.0,0.0,0.0,0.0,0.0,0.0,0.0,0.0,2.6999,2.7094,2.7162,2.7162,2.7162,2.7379,2.7854,2.7881,2.8098,2.8573,2.8587,2.8392,2.7987,2.7443,2.6905,2.6358,2.5734,2.5382,2.5312,2.5312,2.5312,2.5312,2.5312,2.5312,2.5312,2.5312,2.5312,2.5312,2.5312,2.5312,2.5312,2.5312,2.5312,2.5312,2.5312,2.5312,2.5312,2.5312,2.5312,2.5312,2.5312,2.5312,2.5312,2.5312,2.5312,2.5265,2.5111,2.5015,2.4987,2.5108,2.5474,2.5812,2.6188,2.6355,2.6362,2.6362,2.6135,2.5895,2.5895,2.538,2.4861,2.4861,2.4155,2.3377,2.2882,2.2715,2.2353,2.1741,2.1741,2.1651,2.1553,2.1553,2.1365,2.0907,2.0907,2.0637,1.9729,1.9737,1.9463,1.9012,1.8827,1.8827,1.8827,1.8827,1.8827,1.8827,1.8827,1.8827,1.9469,1.9429,1.9795,2.0406,0.0,0.0,0.0,0.0,2.0152,0.0,0.0,0.0,0.0,0.0,0.0,0.0,0.0,0.0,0.0,0.0,0.0,0.0,0.0,0.0,2.5914,2.647,2.6823,2.6823,2.6823,2.6945,2.7244,2.7271,2.7406,2.7691,2.7705,2.744,2.6982,2.6401,2.6016,2.5822,2.5192,2.5059,2.5312,2.5312,2.5312,2.5312,2.5312,2.5312,2.5312,2.5312,2.5312,2.5312,2.5312,2.5312,2.5312,2.5312,2.5312,2.5312,2.5312,2.5312,2.5312,2.5312,2.5312,2.5312,2.5312,2.5312,2.5312,2.5312,2.5312,2.5241,2.5123,2.5052,2.504,2.506,2.5394,2.5768,2.6267,2.6371,2.647,2.6472,2.6373,2.6135,2.5895,2.5644,2.5295,2.4946,2.4241,2.3551,2.2882,2.2451,2.2097,2.1741,2.1741,2.1642,2.1365,2.1365,2.1186,2.0645,2.0645,2.0365,1.9646,1.9637,1.9455,1.9188,1.892,1.8912,1.9188,1.8912,1.8827,1.8827,1.8827,1.8827,0.0,0.0,0.0,0.0,0.0,2.107,0.0,0.0,0.0,2.1809,0.0,0.0,0.0,0.0,0.0,0.0,0.0,0.0,0.0,0.0,0.0,0.0,0.0,0.0,0.0,2.5453,2.6009,2.6131,2.6131,2.624,2.6457,2.6579,2.6701,2.6823,2.6702,2.643,2.5936,2.5421,2.5138,2.5061,2.4578,2.4602,2.5011,2.5011,2.5011,2.5023,2.5119,2.5155,2.5168,2.5264,2.5312,2.5312,2.5312,2.5312,2.5312,2.5312,2.5312,2.5312,2.5312,2.5312,2.5312,2.5312,2.5312,2.5312,2.5312,2.5312,2.5312,2.5312,2.5312,2.5312,2.5312,2.5312,2.5312,2.5312,2.5432,2.571,2.621,2.6244,2.6257,2.6332,2.6155,2.5892,2.5863,2.5812,2.5549,2.4946,2.4241,2.3551,2.2882,2.2264,2.182,2.1741,2.1741,2.1553,2.1177,2.1087,2.0997,2.0564,2.0564,2.0374,1.9911,1.9729,1.9546,1.9463,1.9004,1.9004,1.9463,1.9004,1.8827,1.8827,1.8827,1.8827,0.0,0.0,0.0,0.0,2.1762,0.0,0.0,0.0,2.1868,2.1354,0.0,0.0,0.0,0.0,0.0,0.0,0.0,0.0,0.0,0.0,0.0,0.0,0.0,0.0,0.0,2.3065,2.3051,2.3554,2.3595,2.4109,2.5154,2.571,2.6253,2.6809,2.6382,2.5936,2.5434,2.4911,2.4431,2.399,2.3923,2.3881,2.3941,2.3941,2.3941,2.3965,2.4422,2.4602,2.465,2.5107,2.5312,2.5312,2.5312,2.5312,2.5312,2.5312,2.5312,2.5312,2.5312,2.5312,2.5312,2.5312,2.5312,2.5312,2.5312,2.5312,2.5312,2.5312,2.5312,2.5312,2.5312,2.5312,2.5312,2.5312,2.5637,2.6044,2.6104,2.5948,2.5807,2.5787,2.4755,2.4292,2.5659,2.538,2.4946,2.4946,2.4241,2.3551,2.2882,2.2715,2.2441,2.1731,2.1741,2.1651,2.1642,2.1642,2.1553,2.1553,2.1553,2.1365,2.0907,2.0002,1.9371,1.892,1.8827,1.8827,1.892,1.8827,1.8827,1.8827,1.8827,1.8827,0.0,0.0,0.0,0.0,0.0,0.0,2.2712,0.0,2.261,0.0,0.0,0.0,0.0,0.0,0.0,0.0,0.0,0.0,0.0,0.0,0.0,0.0,0.0,0.0,0.0,0.0,0.0,0.0,2.2902,2.3214,2.4422,2.4734,2.5141,2.5751,2.5282,2.4852,2.4307,2.3828,2.3501,2.3316,2.3316,2.3472,2.3773,2.3773,2.3773,2.3785,2.3989,2.4085,2.4121,2.4638,2.4855,2.4879,2.5192,2.5312,2.5312,2.5312,2.5312,2.5312,2.5312,2.5312,2.5312,2.5312,2.5312,2.5312,2.5312,2.5312,2.5312,2.5312,2.5312,2.5312,2.5312,2.5312,2.5312,2.5312,2.548,2.5721,2.6033,2.5843,2.5576,2.5658,2.4736,2.4052,2.448,2.419,2.3862,2.3862,2.3487,2.296,2.2264,2.1961,2.1724,2.1374,2.1374,2.1374,2.1374,2.1594,2.1741,2.1741,2.1195,2.0645,2.0184,1.9546,1.9188,1.9279,1.892,1.8912,1.9279,1.8912,1.8827,1.8827,1.8827,1.8827,2.239,0.0,0.0,0.0,0.0,0.0,0.0,0.0,0.0,0.0,0.0,0.0,0.0,0.0,0.0,0.0,0.0,0.0,0.0,0.0,0.0,0.0,0.0,0.0,0.0,0.0,0.0,0.0,0.0,2.2346,2.3553,2.3947,2.4258,2.4565,2.4271,2.3884,2.3412,2.2957,2.2751,2.2763,2.2763,2.2967,2.334,2.334,2.334,2.334,2.3496,2.3556,2.3592,2.4109,2.4314,2.435,2.4735,2.4891,2.4927,2.5204,2.5312,2.5312,2.5312,2.5312,2.5312,2.5312,2.5312,2.5312,2.5312,2.5312,2.5312,2.5312,2.5312,2.5312,2.5312,2.5312,2.5312,2.5312,2.5312,2.5408,2.5793,2.5453,2.514,2.5059,2.4172,2.3303,2.2918,2.2839,2.2725,2.2735,2.2417,2.2013,2.1401,2.1135,2.0943,2.0943,2.0943,2.0943,2.0943,2.1227,2.1313,2.1225,2.0421,1.9928,1.9669,1.9141,1.9182,1.9828,1.9279,1.9279,1.9828,1.9371,1.9196,1.9196,1.892,1.892,0.0,0.0,0.0,2.2265,0.0,0.0,0.0,0.0,2.4326,0.0,0.0,0.0,0.0,0.0,0.0,0.0,0.0,0.0,0.0,0.0,0.0,0.0,0.0,0.0,0.0,0.0,0.0,0.0,0.0,0.0,2.2305,2.3485,2.3904,2.3461,2.3586,2.3412,2.2909,2.2432,2.2197,2.2221,2.2221,2.2221,2.2246,2.2246,2.2246,2.227,2.2787,2.3003,2.3051,2.358,2.3797,2.3797,2.3809,2.3821,2.3941,2.4939,2.5312,2.5312,2.5312,2.5312,2.5312,2.5312,2.5312,2.5312,2.5312,2.5312,2.5312,2.5312,2.5312,2.5312,2.5312,2.5312,2.5312,2.5312,2.5312,2.5312,2.5336,2.4778,2.4066,2.353,2.2252,2.1282,2.1282,2.146,2.1627,2.1627,2.1053,2.0558,2.0558,2.0549,2.0539,2.0539,2.0539,2.0539,2.0539,2.0549,2.0389,1.9956,1.9521,1.9428,1.9815,1.9301,1.9387,2.0283,1.9828,1.9828,2.0292,2.0292,2.0292,2.0201,1.9288,1.9096,0.0,0.0,2.3555,2.3112,0.0,0.0,0.0,0.0,0.0,0.0,0.0,0.0,0.0,0.0,0.0,0.0,0.0,0.0,0.0,0.0,0.0,0.0,0.0,0.0,0.0,0.0,0.0,0.0,2.0188,0.0,0.0,2.2298,2.2643,2.3002,2.275,2.2689,2.2909,2.2432,2.2197,2.2197,2.2197,2.2197,2.2197,2.2197,2.2197,2.2197,2.2378,2.2462,2.2498,2.3027,2.3244,2.328,2.3628,2.3773,2.3809,2.4157,2.4506,2.4831,2.5192,2.5312,2.5312,2.5312,2.5312,2.5312,2.5312,2.5312,2.5312,2.5312,2.5312,2.5312,2.5312,2.5312,2.5312,2.5312,2.5312,2.5241,2.5052,2.4238,2.3497,2.2979,2.1614,2.0547,2.0547,2.0239,2.0282,2.0962,2.0754,2.0521,2.0521,2.0292,2.0127,2.0127,2.0127,2.0127,2.0127,2.0365,2.0437,2.0352,1.9844,1.965,1.9782,1.935,1.9355,1.9924,1.9745,1.9864,2.0292,2.0011,2.0011,2.0292,1.9288,1.9279,2.3246,2.3595,0.0,2.3564,2.3368,0.0,2.3001,0.0,0.0,0.0,0.0,0.0,0.0,0.0,0.0,0.0,0.0,0.0,0.0,0.0,0.0,0.0,0.0,0.0,0.0,0.0,1.8954,2.0148,0.0,0.0,0.0,0.0,2.193,2.2411,2.2229,2.2266,2.2665,2.2371,2.2197,2.2197,2.2197,2.2197,2.2197,2.2197,2.2197,2.2197,2.2247,2.2247,2.2221,2.2609,2.2754,2.2739,2.3075,2.3207,2.3256,2.3628,2.4085,2.4566,2.4915,2.5155,2.5312,2.5312,2.5312,2.5312,2.5312,2.5312,2.5312,2.5312,2.5312,2.5312,2.5312,2.5312,2.5312,2.5312,2.5312,2.5241,2.5052,2.4166,2.3265,2.2745,2.1385,2.0245,2.002,1.9618,1.9543,2.0203,2.0151,2.0081,2.0081,1.987,1.9705,1.9705,1.9705,1.9705,1.9705,1.9779,1.9851,1.9851,1.927,1.908,1.9379,1.888,1.905,1.9791,1.9713,1.9894,2.0355,1.9996,2.0146,2.0555,1.9911,2.0011]},{"header":{"parameterUnit":"m.s-1","parameterCategory":1,"la1":30.6,"la2":29.2853,"lo1":-89.7004,"lo2":-87.6739,"dy":0.0162,"dx":0.0183,"nx":112,"ny":82,"refTime":"2024-08-19T06:00:00:Z","depth":0,"parameterNumber":3,"parameterNumberName":"V-component_of_WINDS"},"data":[0.0,0.0,0.0,0.0,0.0,0.0,0.0,0.0,0.0,0.0,0.0,0.0,0.0,0.0,0.0,0.0,0.0,0.0,0.0,0.0,0.0,0.0,0.0,0.0,0.0,0.0,0.0,0.0,0.0,0.0,0.0,0.0,0.0,0.0,0.0,0.0,0.0,0.0,0.0,0.0,0.0,0.0,0.0,0.0,0.0,0.0,0.0,0.0,0.0,0.0,0.0,0.0,0.0,0.0,0.0,0.0,0.0,0.0,0.0,0.0,0.0,0.0,0.0,0.0,0.0,0.0,0.0,0.0,0.0,0.0,0.0,0.0,0.0,0.0,0.0,0.0,0.0,0.0,0.0,0.0,0.0,0.0,0.0,0.0,0.0,0.0,0.0,0.0,0.0,0.0,0.0,2.7138,2.8832,2.9918,2.9918,2.9918,2.8709,2.5956,0.0,0.0,0.0,0.0,0.0,0.0,0.0,0.0,0.0,0.0,0.0,0.0,0.0,0.0,0.0,0.0,0.0,0.0,0.0,0.0,0.0,0.0,0.0,0.0,0.0,0.0,0.0,0.0,0.0,0.0,0.0,0.0,0.0,0.0,0.0,0.0,0.0,0.0,0.0,0.0,0.0,0.0,0.0,0.0,0.0,0.0,0.0,0.0,0.0,0.0,0.0,0.0,0.0,0.0,0.0,0.0,0.0,0.0,0.0,0.0,0.0,0.0,0.0,0.0,0.0,0.0,0.0,0.0,0.0,0.0,0.0,0.0,0.0,0.0,0.0,0.0,0.0,0.0,0.0,0.0,0.0,0.0,0.0,0.0,0.0,0.0,0.0,0.0,0.0,0.0,0.0,0.0,0.0,0.0,0.0,0.0,0.0,0.0,0.0,0.0,0.0,0.0,0.0,0.0,2.6701,2.9172,2.9724,2.9918,2.9918,2.9918,2.8962,2.6685,0.0,0.0,0.0,0.0,0.0,0.0,0.0,0.0,0.0,0.0,0.0,0.0,0.0,0.0,0.0,0.0,0.0,0.0,0.0,0.0,0.0,0.0,0.0,0.0,0.0,0.0,0.0,0.0,0.0,0.0,0.0,0.0,0.0,0.0,0.0,0.0,0.0,0.0,0.0,0.0,0.0,0.0,0.0,0.0,0.0,0.0,0.0,0.0,0.0,0.0,0.0,0.0,0.0,0.0,0.0,0.0,0.0,0.0,0.0,0.0,0.0,0.0,0.0,0.0,0.0,0.0,0.0,0.0,0.0,0.0,0.0,0.0,0.0,0.0,0.0,0.0,0.0,0.0,0.0,0.0,0.0,0.0,0.0,0.0,0.0,0.0,0.0,0.0,0.0,0.0,0.0,0.0,0.0,0.0,0.0,0.0,0.0,0.0,0.0,0.0,0.0,0.0,0.0,2.6215,2.7138,2.9643,2.9918,2.9918,2.9918,2.9918,2.879,2.6264,2.5832,0.0,0.0,0.0,0.0,0.0,0.0,0.0,0.0,0.0,0.0,0.0,0.0,0.0,0.0,0.0,0.0,0.0,0.0,0.0,0.0,0.0,0.0,0.0,0.0,0.0,0.0,0.0,0.0,0.0,0.0,0.0,0.0,0.0,0.0,0.0,0.0,0.0,0.0,0.0,0.0,0.0,0.0,0.0,0.0,0.0,0.0,0.0,0.0,0.0,0.0,0.0,0.0,0.0,0.0,0.0,0.0,0.0,0.0,0.0,0.0,0.0,0.0,0.0,0.0,0.0,0.0,0.0,0.0,0.0,0.0,0.0,0.0,0.0,0.0,0.0,0.0,0.0,0.0,0.0,0.0,0.0,0.0,0.0,0.0,0.0,0.0,0.0,0.0,0.0,0.0,0.0,0.0,0.0,0.0,0.0,0.0,0.0,0.0,0.0,0.0,0.0,0.0,2.7348,2.8061,2.974,2.9918,2.9918,2.9918,2.9594,2.8329,2.5762,2.535,0.0,0.0,0.0,0.0,0.0,0.0,0.0,0.0,0.0,0.0,0.0,0.0,0.0,0.0,0.0,0.0,0.0,0.0,0.0,0.0,0.0,0.0,0.0,0.0,0.0,0.0,0.0,0.0,0.0,0.0,0.0,0.0,0.0,0.0,0.0,0.0,0.0,0.0,0.0,0.0,0.0,0.0,0.0,0.0,0.0,0.0,0.0,0.0,0.0,0.0,0.0,0.0,0.0,0.0,0.0,0.0,0.0,0.0,0.0,0.0,0.0,0.0,0.0,0.0,0.0,0.0,0.0,0.0,0.0,0.0,0.0,0.0,0.0,0.0,0.0,0.0,0.0,0.0,0.0,0.0,0.0,0.0,0.0,0.0,0.0,0.0,0.0,0.0,0.0,0.0,0.0,0.0,0.0,0.0,0.0,0.0,0.0,0.0,0.0,0.0,0.0,0.0,2.8029,2.974,2.9902,2.9918,2.9918,2.9918,2.8628,2.7259,2.5756,2.4479,0.0,0.0,0.0,0.0,0.0,0.0,0.0,0.0,0.0,0.0,0.0,0.0,0.0,0.0,0.0,0.0,0.0,0.0,0.0,0.0,0.0,0.0,0.0,0.0,0.0,0.0,0.0,0.0,0.0,0.0,0.0,0.0,0.0,0.0,0.0,0.0,0.0,0.0,0.0,0.0,0.0,0.0,0.0,0.0,0.0,0.0,0.0,0.0,0.0,0.0,0.0,0.0,0.0,0.0,0.0,0.0,0.0,0.0,0.0,0.0,0.0,0.0,0.0,0.0,0.0,0.0,0.0,0.0,0.0,0.0,0.0,0.0,0.0,0.0,0.0,0.0,0.0,0.0,0.0,0.0,0.0,0.0,0.0,0.0,0.0,0.0,0.0,0.0,0.0,0.0,0.0,0.0,0.0,0.0,0.0,0.0,0.0,0.0,0.0,0.0,0.0,0.0,2.7316,2.8913,0.0,2.9946,2.9989,3.0076,2.9137,2.7729,2.5938,0.0,0.0,0.0,0.0,0.0,0.0,0.0,0.0,0.0,0.0,0.0,0.0,0.0,0.0,0.0,0.0,0.0,0.0,0.0,0.0,0.0,0.0,0.0,0.0,0.0,0.0,0.0,0.0,0.0,0.0,0.0,0.0,0.0,0.0,0.0,0.0,0.0,0.0,0.0,0.0,0.0,0.0,0.0,0.0,0.0,0.0,0.0,0.0,0.0,0.0,0.0,0.0,0.0,0.0,0.0,0.0,0.0,0.0,0.0,0.0,0.0,0.0,0.0,0.0,0.0,0.0,0.0,0.0,0.0,0.0,0.0,0.0,0.0,0.0,0.0,0.0,0.0,0.0,0.0,0.0,0.0,0.0,0.0,0.0,0.0,0.0,0.0,0.0,0.0,0.0,0.0,0.0,0.0,0.0,0.0,0.0,0.0,0.0,0.0,0.0,0.0,0.0,2.5486,2.7235,2.8799,0.0,2.9989,3.0017,3.0103,2.9058,2.7653,2.6032,0.0,0.0,0.0,0.0,0.0,0.0,0.0,0.0,0.0,0.0,0.0,0.0,0.0,0.0,0.0,0.0,0.0,0.0,0.0,0.0,0.0,0.0,0.0,0.0,0.0,0.0,0.0,0.0,0.0,0.0,0.0,0.0,0.0,0.0,0.0,0.0,0.0,0.0,0.0,0.0,0.0,0.0,0.0,0.0,0.0,0.0,0.0,0.0,0.0,0.0,0.0,0.0,0.0,0.0,0.0,0.0,0.0,0.0,0.0,0.0,0.0,0.0,0.0,0.0,0.0,0.0,0.0,0.0,0.0,0.0,0.0,0.0,0.0,0.0,0.0,0.0,0.0,0.0,0.0,0.0,0.0,0.0,0.0,0.0,0.0,0.0,0.0,0.0,0.0,0.0,0.0,0.0,0.0,0.0,0.0,0.0,0.0,0.0,0.0,0.0,0.0,0.0,2.5616,2.8109,2.9902,2.9918,2.9973,3.0017,3.0,2.8143,2.6705,0.0,0.0,0.0,0.0,0.0,0.0,0.0,0.0,0.0,0.0,0.0,0.0,0.0,0.0,0.0,0.0,0.0,0.0,0.0,0.0,0.0,0.0,0.0,0.0,0.0,0.0,0.0,0.0,0.0,0.0,0.0,0.0,0.0,0.0,0.0,0.0,0.0,0.0,0.0,0.0,0.0,0.0,0.0,0.0,0.0,0.0,0.0,0.0,0.0,0.0,0.0,0.0,0.0,0.0,0.0,0.0,0.0,0.0,0.0,0.0,0.0,0.0,0.0,0.0,0.0,0.0,0.0,0.0,0.0,0.0,0.0,0.0,0.0,0.0,0.0,0.0,0.0,0.0,0.0,0.0,0.0,0.0,0.0,0.0,0.0,0.0,0.0,0.0,0.0,0.0,0.0,0.0,0.0,0.0,0.0,0.0,0.0,0.0,0.0,0.0,0.0,0.0,0.0,2.5766,2.8298,3.0162,3.0248,3.029,3.0103,2.9617,2.853,2.713,2.5454,0.0,0.0,0.0,0.0,0.0,0.0,0.0,0.0,0.0,0.0,0.0,0.0,0.0,0.0,0.0,0.0,0.0,0.0,0.0,0.0,0.0,0.0,0.0,0.0,0.0,0.0,0.0,0.0,0.0,0.0,0.0,0.0,0.0,0.0,0.0,0.0,0.0,0.0,0.0,0.0,0.0,0.0,0.0,0.0,0.0,0.0,0.0,0.0,0.0,0.0,0.0,0.0,0.0,0.0,0.0,0.0,0.0,0.0,0.0,0.0,0.0,0.0,0.0,0.0,0.0,0.0,0.0,0.0,0.0,0.0,0.0,0.0,0.0,0.0,0.0,0.0,0.0,0.0,0.0,0.0,0.0,0.0,0.0,0.0,0.0,0.0,0.0,0.0,0.0,0.0,0.0,0.0,0.0,0.0,0.0,0.0,0.0,0.0,0.0,0.0,0.0,0.0,2.584,2.8379,3.0231,3.0316,3.0375,3.0236,2.9815,2.8857,2.7507,2.5657,0.0,0.0,0.0,0.0,0.0,0.0,0.0,0.0,0.0,0.0,0.0,0.0,0.0,0.0,0.0,0.0,0.0,0.0,0.0,0.0,0.0,0.0,0.0,0.0,0.0,0.0,0.0,0.0,0.0,0.0,0.0,0.0,0.0,0.0,0.0,0.0,0.0,0.0,0.0,0.0,0.0,0.0,0.0,0.0,0.0,0.0,0.0,0.0,0.0,0.0,0.0,0.0,0.0,0.0,0.0,0.0,0.0,0.0,0.0,0.0,0.0,0.0,0.0,0.0,0.0,0.0,0.0,0.0,0.0,0.0,0.0,0.0,0.0,0.0,0.0,0.0,0.0,0.0,0.0,0.0,0.0,0.0,0.0,0.0,0.0,0.0,0.0,0.0,0.0,0.0,0.0,0.0,0.0,0.0,0.0,0.0,0.0,0.0,0.0,0.0,0.0,0.0,2.6016,2.8493,3.0231,3.0231,3.0333,3.0384,3.0318,2.9128,2.7798,2.6338,0.0,0.0,0.0,0.0,0.0,0.0,0.0,0.0,0.0,0.0,0.0,0.0,0.0,0.0,0.0,0.0,0.0,0.0,0.0,0.0,0.0,0.0,0.0,0.0,0.0,0.0,0.0,0.0,0.0,0.0,0.0,0.0,0.0,0.0,0.0,0.0,0.0,0.0,0.0,0.0,0.0,0.0,0.0,0.0,0.0,0.0,0.0,0.0,0.0,0.0,0.0,0.0,0.0,0.0,0.0,0.0,0.0,0.0,0.0,0.0,2.2263,0.0,0.0,0.0,0.0,0.0,0.0,0.0,0.0,0.0,0.0,0.0,0.0,0.0,0.0,0.0,0.0,0.0,0.0,0.0,0.0,0.0,0.0,0.0,0.0,0.0,0.0,0.0,0.0,0.0,0.0,0.0,0.0,0.0,0.0,0.0,0.0,0.0,0.0,0.0,0.0,0.0,2.6784,2.8949,3.0443,3.0443,3.0485,3.0237,2.9658,2.887,2.7894,2.6673,2.4452,0.0,0.0,0.0,0.0,0.0,0.0,0.0,0.0,0.0,0.0,0.0,0.0,0.0,0.0,0.0,0.0,0.0,0.0,0.0,0.0,0.0,0.0,0.0,0.0,0.0,0.0,0.0,0.0,0.0,0.0,0.0,0.0,0.0,0.0,0.0,0.0,0.0,0.0,0.0,0.0,0.0,0.0,0.0,0.0,0.0,0.0,0.0,0.0,0.0,0.0,0.0,0.0,0.0,0.0,0.0,0.0,0.0,0.0,0.0,0.0,2.3733,0.0,0.0,0.0,0.0,0.0,0.0,0.0,0.0,0.0,0.0,0.0,0.0,0.0,0.0,0.0,0.0,0.0,0.0,0.0,0.0,0.0,0.0,0.0,0.0,0.0,0.0,0.0,0.0,0.0,0.0,0.0,0.0,0.0,0.0,0.0,0.0,0.0,0.0,0.0,0.0,2.7127,2.9128,3.0526,3.0526,3.0526,3.0361,2.998,2.9284,2.8394,2.7299,2.5795,0.0,0.0,0.0,0.0,0.0,0.0,0.0,0.0,0.0,0.0,0.0,0.0,0.0,0.0,0.0,0.0,0.0,0.0,0.0,0.0,0.0,0.0,0.0,0.0,0.0,0.0,0.0,0.0,0.0,0.0,0.0,0.0,0.0,0.0,0.0,0.0,0.0,0.0,0.0,0.0,0.0,0.0,0.0,0.0,0.0,0.0,0.0,0.0,0.0,0.0,0.0,0.0,0.0,2.6588,2.7036,2.7601,2.785,2.8283,2.8701,2.7025,2.647,2.6574,0.0,0.0,0.0,0.0,0.0,0.0,0.0,0.0,0.0,0.0,0.0,0.0,0.0,0.0,0.0,0.0,0.0,0.0,0.0,0.0,0.0,0.0,0.0,0.0,0.0,2.852,2.9175,0.0,0.0,0.0,0.0,0.0,0.0,0.0,0.0,0.0,0.0,0.0,0.0,2.7545,2.945,3.0659,3.0526,3.0526,3.0526,3.0526,2.9831,2.9082,2.83,2.7471,2.6433,0.0,0.0,0.0,0.0,0.0,0.0,0.0,0.0,0.0,0.0,0.0,0.0,0.0,0.0,0.0,0.0,0.0,0.0,0.0,0.0,0.0,0.0,0.0,0.0,0.0,0.0,0.0,0.0,0.0,0.0,0.0,0.0,2.2813,2.2991,0.0,0.0,0.0,0.0,0.0,0.0,0.0,0.0,0.0,0.0,0.0,0.0,0.0,2.7826,2.8014,2.8989,2.961,2.9892,3.0307,3.0528,3.0622,3.0879,3.1086,3.115,3.1098,0.0,2.8169,2.7336,0.0,0.0,0.0,0.0,0.0,0.0,0.0,0.0,0.0,0.0,0.0,0.0,0.0,0.0,0.0,0.0,0.0,0.0,0.0,0.0,0.0,0.0,3.0059,3.0162,3.1317,3.2582,0.0,3.0071,2.7214,2.7016,2.6152,0.0,0.0,0.0,0.0,0.0,0.0,0.0,2.9036,3.051,3.1196,3.0593,3.0526,3.0526,3.0526,2.9831,2.9616,3.0106,2.8836,2.8265,2.8696,2.7371,0.0,0.0,0.0,0.0,0.0,0.0,0.0,0.0,0.0,0.0,0.0,0.0,0.0,0.0,0.0,0.0,0.0,0.0,0.0,0.0,0.0,0.0,0.0,0.0,0.0,0.0,0.0,0.0,0.0,2.1987,2.3288,2.3323,2.3677,2.3681,0.0,0.0,0.0,0.0,0.0,0.0,0.0,0.0,0.0,2.8801,2.9383,2.9897,3.0252,3.072,3.1198,3.1563,3.1899,3.2233,3.2615,3.2866,3.303,3.3014,3.3129,3.2385,3.0999,2.9855,2.9253,2.9,0.0,0.0,0.0,0.0,2.8352,2.8126,2.8919,2.8676,0.0,2.7527,0.0,0.0,0.0,0.0,0.0,0.0,0.0,0.0,0.0,0.0,3.2071,3.2924,3.371,3.431,3.4542,3.2819,3.1046,0.0,2.9694,2.8485,2.6435,0.0,0.0,0.0,0.0,2.9161,2.9947,3.0957,3.1295,3.0593,3.0526,3.0526,3.0526,3.0212,3.0135,3.0487,2.9885,2.9687,3.0,2.8941,2.7817,0.0,0.0,0.0,0.0,0.0,0.0,0.0,0.0,0.0,0.0,0.0,0.0,0.0,0.0,0.0,0.0,0.0,0.0,0.0,0.0,0.0,0.0,0.0,0.0,0.0,0.0,0.0,0.0,2.3301,2.4211,2.4124,2.5002,2.5319,0.0,0.0,0.0,0.0,0.0,0.0,2.9826,3.0231,3.0911,3.1979,3.2206,3.2369,3.2546,3.2497,3.2624,3.2774,3.2976,3.3349,3.3797,3.4,3.4101,3.4101,3.4101,3.3809,3.3259,3.1996,3.1364,3.1154,3.0619,3.0453,3.0474,3.1008,3.0878,3.0571,3.1639,3.1299,3.0328,2.9793,0.0,2.8336,2.7284,0.0,0.0,0.0,0.0,3.0942,3.24,3.2849,3.3218,3.4646,3.5161,3.5376,3.5532,3.513,3.4387,0.0,3.2604,3.1482,2.8965,0.0,0.0,0.0,0.0,3.0444,3.1007,3.1719,3.1818,3.0907,3.0808,3.0725,3.0543,3.0593,3.069,3.0797,3.0905,3.1025,3.1105,3.0386,2.9619,2.8816,0.0,0.0,0.0,0.0,0.0,0.0,0.0,0.0,0.0,0.0,0.0,0.0,0.0,0.0,0.0,0.0,0.0,0.0,0.0,0.0,0.0,0.0,0.0,0.0,0.0,0.0,0.0,0.0,0.0,2.6604,2.8336,0.0,0.0,0.0,0.0,2.9643,3.0959,3.206,3.2838,3.4133,3.4894,3.4959,3.5655,3.5704,3.5024,3.5024,3.47,3.4002,3.4052,3.4068,3.4101,3.4101,3.4101,3.4101,3.4101,3.4084,3.3987,3.3275,3.2579,3.1947,3.1915,3.1898,3.1898,3.1931,3.1931,3.1898,3.1979,3.1963,3.1898,3.185,3.1348,3.0703,3.0639,3.0936,0.0,0.0,3.1863,3.2591,3.2691,3.2877,3.3415,3.4665,3.5374,3.599,3.7198,3.6768,3.5728,0.0,3.3633,3.2975,3.209,0.0,3.1883,3.1447,3.2034,3.2531,3.2564,3.3226,3.3143,3.1676,3.1527,3.1288,3.0576,3.0861,3.1206,3.1625,3.2004,3.2384,3.2759,3.201,3.1207,3.0404,2.8834,0.0,0.0,0.0,0.0,0.0,0.0,0.0,0.0,0.0,0.0,0.0,0.0,0.0,0.0,0.0,0.0,0.0,0.0,0.0,0.0,0.0,0.0,0.0,0.0,0.0,0.0,0.0,0.0,2.8709,2.9694,0.0,2.9442,3.0295,3.1348,3.2498,3.3501,3.4376,3.5121,3.5639,3.5898,3.5898,3.6157,3.6173,3.5914,3.5898,3.5785,3.5525,3.5525,3.5525,3.5525,3.5525,3.5525,3.5493,3.5007,3.4797,3.4732,3.4036,3.3582,3.3356,3.3356,3.3356,3.3356,3.3356,3.3356,3.3356,3.3356,3.3064,3.2627,3.2158,3.1834,3.1623,3.1716,3.2541,3.3446,3.3489,3.4457,3.5514,3.5636,3.5757,3.5889,3.615,3.6122,3.6069,3.6264,3.582,3.5232,3.4751,3.4501,3.3934,3.2717,3.29,3.3023,3.2426,3.2928,3.3392,3.3392,3.3624,3.3408,3.2415,3.2315,3.2017,3.1246,3.1349,3.1486,3.1674,3.1823,3.2197,3.2884,3.2616,3.2081,3.1296,3.0225,2.8281,0.0,0.0,0.0,0.0,0.0,0.0,0.0,0.0,0.0,0.0,0.0,0.0,0.0,0.0,0.0,0.0,0.0,0.0,0.0,0.0,0.0,0.0,0.0,0.0,0.0,0.0,3.0116,3.0554,3.1725,3.2369,3.1997,3.2886,3.3939,3.5088,3.5623,3.6222,3.6967,3.7015,3.7015,3.7015,3.7015,3.6902,3.6659,3.6659,3.6529,3.6303,3.6303,3.6303,3.6303,3.6303,3.6303,3.627,3.5768,3.5558,3.5525,3.504,3.4845,3.4797,3.4295,3.4101,3.4101,3.4101,3.4101,3.4101,3.4101,3.3809,3.3356,3.287,3.2835,3.3025,3.3041,3.4013,3.5113,3.4984,3.5887,3.6834,3.6696,3.6776,3.6895,3.6701,3.6563,3.6399,3.6291,3.5907,3.5639,3.5938,3.5408,3.4584,3.3607,3.3839,3.4005,3.3508,3.3856,3.417,3.417,3.417,3.3889,3.3143,3.3061,3.2663,3.1659,3.1732,3.1773,3.1691,3.1841,3.2197,3.2884,3.2616,3.2224,3.1706,3.0672,2.9101,2.7014,0.0,0.0,0.0,0.0,0.0,0.0,0.0,0.0,0.0,0.0,0.0,0.0,0.0,0.0,0.0,0.0,0.0,0.0,0.0,0.0,0.0,0.0,0.0,2.9016,3.1364,3.2902,3.2222,3.4603,3.5752,3.4343,3.5493,3.6627,3.7307,3.7355,3.7663,3.8359,3.8391,3.8391,3.8391,3.8391,3.8068,3.7355,3.7355,3.7015,3.6367,3.6367,3.6367,3.6367,3.6367,3.6367,3.6367,3.6351,3.6335,3.6335,3.6319,3.6303,3.6157,3.4732,3.4165,3.4165,3.4133,3.4117,3.4101,3.4101,3.4101,3.4101,3.4101,3.4496,3.4941,3.4771,3.5464,3.6232,3.5681,3.6062,3.6433,3.5644,3.5847,3.6232,3.6232,3.6563,3.7034,3.7484,3.7241,3.7123,3.7953,3.6382,3.4965,3.5013,3.4965,3.4965,3.4932,3.4932,0.0,3.4899,3.4899,3.4618,3.3905,3.3822,3.3243,3.1818,3.2018,3.2111,3.1763,3.2109,3.2506,3.292,3.2188,3.176,3.176,3.0279,2.9494,2.9476,0.0,0.0,0.0,0.0,0.0,0.0,0.0,0.0,0.0,0.0,0.0,0.0,0.0,0.0,0.0,0.0,0.0,0.0,0.0,0.0,0.0,0.0,3.2141,3.1931,3.3469,3.4732,3.5088,3.5817,3.6335,3.6432,3.6805,3.7339,3.8051,3.81,3.8197,3.8391,3.8391,3.8391,3.8391,3.8391,3.8311,3.81,3.81,3.8003,3.7825,3.7825,3.7825,3.7825,3.7825,3.7825,3.7792,3.7274,3.7048,3.6999,3.6513,3.6303,3.627,3.5866,3.5704,3.5639,3.5088,3.4554,3.4101,3.4101,3.4101,3.4101,3.4201,3.4382,3.4561,3.5068,3.5419,3.5715,3.5959,3.6399,3.6781,3.6563,3.686,3.7111,3.6781,3.6821,3.7018,3.7359,3.7077,3.7082,3.8218,3.7424,3.6621,3.6925,3.6734,3.6307,3.5777,3.5694,0.0,3.4965,3.4899,3.4816,3.4618,3.4601,3.4343,3.3748,3.3271,3.2997,3.3017,3.2564,3.2753,3.374,3.3562,3.3437,3.3437,3.2438,3.1635,0.0,0.0,0.0,0.0,0.0,0.0,0.0,0.0,0.0,0.0,0.0,0.0,0.0,0.0,0.0,0.0,0.0,0.0,0.0,0.0,0.0,0.0,3.3032,3.4538,3.4829,3.5558,3.6238,3.6675,3.6999,3.7339,3.7728,3.7776,3.7954,3.8375,3.8391,3.8391,3.8391,3.8391,3.8391,3.8391,3.8391,3.8391,3.8391,3.8391,3.8391,3.8391,3.8391,3.8391,3.8391,3.8391,3.8391,0.0,3.7954,3.7776,3.7744,3.7339,3.7193,0.0,0.0,0.0,0.0,0.0,3.5185,3.4554,3.4554,3.441,3.4249,3.4658,3.5103,3.5646,3.6291,3.6874,3.7334,3.7561,3.7865,3.8121,3.794,3.8217,3.8427,3.802,3.8042,3.8166,3.8136,3.794,3.8006,3.8836,3.8547,0.0,3.8938,3.8001,3.6953,3.6539,3.6208,3.5843,3.5413,3.5081,3.4899,3.4899,3.4899,3.4772,3.4513,3.4083,0.0,0.0,0.0,3.3547,3.4064,3.4115,0.0,0.0,0.0,0.0,0.0,0.0,0.0,0.0,3.3366,3.363,0.0,0.0,0.0,0.0,0.0,0.0,0.0,0.0,0.0,0.0,0.0,0.0,0.0,0.0,0.0,0.0,3.5121,3.6659,3.7339,3.7436,3.7436,3.7436,3.8003,3.8391,3.8391,3.8391,3.8391,3.8391,3.8391,3.8391,3.8391,0.0,0.0,0.0,0.0,3.8391,3.8391,3.8391,3.8391,3.8391,3.8391,3.8391,3.8391,3.8391,3.8391,3.8391,3.8391,3.8391,3.8391,3.8391,3.8391,3.8278,3.7031,3.6497,3.6416,3.6416,3.5946,3.5351,3.5351,0.0,0.0,3.5429,3.6396,3.7418,3.7986,3.8903,3.974,3.962,3.97,3.9757,3.9394,3.9598,3.9797,3.9435,3.9638,3.9815,3.9464,3.9357,3.9458,3.9811,3.983,3.9962,4.0728,3.8986,3.7503,3.7419,3.6853,3.6387,3.6304,3.5654,3.5141,3.511,0.0,0.0,3.4718,3.4626,3.4665,3.4902,3.4974,3.4871,3.4492,3.4668,3.4722,3.4633,3.5364,3.6399,3.7719,3.854,3.9325,3.995,3.5667,3.5221,0.0,0.0,0.0,0.0,0.0,0.0,0.0,0.0,0.0,0.0,0.0,0.0,0.0,0.0,0.0,3.5331,3.6497,3.7371,3.81,3.8197,3.8197,3.8197,3.8311,3.8391,3.8391,3.8391,3.8391,3.8391,3.8391,3.8391,3.8391,3.8391,3.8391,3.8391,3.8391,3.8391,3.8391,3.8391,3.8391,3.8391,0.0,0.0,3.8391,3.8391,3.8391,3.8391,3.8391,3.8391,3.8391,3.8391,3.8391,3.8375,3.81,3.763,3.7128,3.7128,3.6713,3.6254,3.6254,3.6536,3.6901,3.7099,3.7611,3.8284,3.8885,3.8981,0.0,3.9252,3.9394,3.9394,3.9311,3.9598,3.9875,3.9797,3.9836,4.0036,4.0597,4.0435,4.0496,4.1587,4.1128,4.0723,4.1276,4.0637,3.9864,3.9311,3.9088,3.8763,3.8191,3.7408,3.6768,3.6472,3.5869,3.5548,3.5856,3.5324,3.5278,3.6025,3.6702,3.6987,3.6916,3.813,3.8504,3.7916,3.8629,3.8861,3.8576,3.9325,4.011,4.0842,3.9272,3.9218,0.0,0.0,0.0,0.0,0.0,0.0,0.0,0.0,0.0,0.0,0.0,3.1297,3.2319,0.0,3.5169,3.6578,3.7404,3.7987,3.8359,3.8391,3.8391,3.8391,3.8391,3.8391,3.8391,3.8391,3.8391,3.8391,3.8391,3.8391,3.8391,3.8391,3.8391,3.8391,3.8391,3.8391,3.8391,3.8391,3.8391,3.8391,3.8391,3.8391,3.8391,3.8391,3.8391,3.8391,3.8391,3.8391,3.8391,3.8391,3.8391,3.8408,3.8448,3.8293,3.7968,3.8007,3.7677,3.7126,3.7126,3.7178,3.7286,3.795,3.8533,3.9192,3.9832,4.0263,4.0418,4.0393,4.0581,4.0807,4.0807,4.093,4.1092,4.1092,4.1092,4.1118,4.1286,4.1102,4.1078,4.1464,4.1356,4.1202,4.1472,4.1534,4.1261,4.0377,3.9951,3.9571,3.9174,3.8466,3.7895,3.7706,3.7346,3.73,3.7686,3.7603,3.7672,3.811,3.854,3.8754,3.8754,3.9504,3.9736,3.9361,4.011,4.0324,3.995,4.0735,4.1306,4.168,4.1288,4.1324,0.0,0.0,0.0,0.0,0.0,0.0,0.0,0.0,3.0471,3.127,3.2718,3.3989,3.4586,3.5704,3.6724,3.742,3.8019,3.8391,3.8391,3.8391,3.8391,3.8391,3.8391,3.8391,3.8391,3.8391,3.8391,3.8391,3.8391,3.8391,3.8391,3.8391,3.8391,3.8391,3.8391,3.8391,3.8391,3.8391,3.8391,3.8391,3.8391,3.8391,3.8391,3.8391,3.8391,3.8391,3.8391,3.8391,3.8391,3.8391,3.8391,3.8391,3.856,3.8616,3.8672,3.875,3.8444,3.8023,3.8167,3.7945,3.782,3.8886,3.9697,4.0311,4.0891,4.164,4.2187,4.177,4.1959,4.2287,4.2287,4.2287,4.2287,4.2287,4.2287,4.2187,4.1753,4.1666,4.1534,4.1174,4.1401,4.1666,4.1666,4.2002,4.2002,4.122,4.0589,4.0207,4.0207,3.9573,3.9042,3.8955,3.8816,3.8877,3.9269,3.9678,3.9914,3.9914,4.0057,4.0146,4.0146,4.0289,4.0378,4.0378,4.1002,4.1324,4.1324,4.1966,4.2287,4.2287,4.2287,4.2287,2.5174,2.6455,2.8051,3.0427,3.079,3.1314,0.0,0.0,3.4429,3.5575,3.5997,3.6283,3.6821,3.7096,3.7452,3.8165,3.8359,3.8391,3.8391,3.8391,3.8391,3.8391,3.8391,3.8391,3.8391,3.8391,3.8391,3.8391,3.8391,3.8391,3.8391,3.8391,3.8391,3.8391,3.8391,3.8391,3.8391,3.8391,3.8391,3.8391,3.8391,3.8391,3.8391,3.8391,3.8391,3.8391,3.8391,3.8391,3.8391,3.8391,3.8391,3.8464,3.8711,3.8805,3.8805,3.8805,3.881,3.8945,3.9425,3.9917,4.0449,4.1,4.1542,4.2021,4.2127,4.2187,4.2287,4.2246,4.2246,4.2287,4.2287,4.2287,4.2287,4.2287,4.2287,4.2287,4.2228,4.2187,4.2187,4.2145,4.2187,4.2187,4.2187,4.2287,4.2287,4.2145,4.2074,4.2021,4.2021,4.1327,4.0648,4.0235,3.9596,3.9228,3.9311,3.9678,3.9914,3.9914,4.0574,4.0967,4.0967,4.1645,4.2019,4.2019,4.2109,4.2162,4.2162,4.2251,4.2287,4.2287,4.2287,4.2287,2.8553,2.9555,0.0,0.0,3.3095,3.3723,3.5497,3.5943,3.6222,3.7154,3.7551,3.7818,3.8001,3.7994,3.8051,0.0,3.8391,3.8391,3.8391,3.8391,3.8391,3.8391,3.8391,3.8391,3.8391,3.8391,3.8391,3.8391,3.8391,3.8391,3.8391,3.8391,3.8391,3.8391,3.8391,3.8391,3.8391,3.8391,3.8391,3.8391,3.8391,3.8391,3.8391,3.8391,3.8391,3.8391,3.8391,3.8391,3.8391,3.8391,3.8391,3.8391,3.8616,3.8711,3.886,3.9312,3.9558,3.9662,4.0203,4.0546,4.0896,4.1356,4.1666,4.1856,4.1856,4.2044,4.2228,4.1899,4.2044,4.2287,4.2287,4.2287,4.2287,4.2287,4.2287,4.2287,4.2287,4.2287,4.2287,4.2287,4.2287,4.2287,4.2287,4.2287,4.2287,4.2287,4.2287,4.2287,4.2287,4.2002,4.1729,4.1505,4.1239,4.1044,4.1044,4.1207,4.1306,4.1306,4.1609,4.1787,4.1787,4.2109,4.2287,4.2287,4.2287,4.2287,4.2287,4.2287,4.2287,4.2287,4.2287,4.2287,3.0775,0.0,0.0,3.3723,3.48,3.5694,3.6439,3.7118,3.7692,3.8167,3.8477,3.8672,3.8672,3.8504,3.8391,3.8464,3.8391,3.8391,3.8391,3.8391,3.8391,3.8391,3.8391,3.8391,3.8391,3.8391,3.8391,3.8391,3.8391,3.8391,3.8391,3.8391,3.8391,3.8391,3.8391,3.8391,3.8391,3.8391,3.8391,3.8391,3.8391,3.8391,3.8391,3.8391,3.8391,3.8391,3.8391,3.8391,3.8391,3.8391,3.8391,3.8391,3.8576,3.8672,3.886,3.98,4.0103,4.0103,4.0737,4.0972,4.1065,4.1578,4.1709,4.1709,4.1709,4.2002,4.2228,4.1813,4.2002,4.2287,4.2287,4.2287,4.2287,4.2287,4.2287,4.2287,4.2287,4.2287,4.2287,4.2287,4.2287,4.2287,4.2287,4.2287,4.2287,4.2287,4.2287,4.2287,4.2287,4.2287,4.2287,4.2287,4.2287,4.2287,4.2287,4.2287,4.2287,4.2287,4.2287,4.2287,4.2287,4.2287,4.2287,4.2287,4.2287,4.2287,4.2287,4.2287,4.2287,4.2287,4.2287,4.2287,0.0,0.0,3.3011,3.4485,3.5959,3.7235,3.798,3.8692,3.9152,3.899,3.8898,3.8805,3.8805,3.86,3.8448,3.856,3.8504,3.8391,3.8391,3.8391,3.8391,3.8391,3.8391,3.8391,0.0,3.8391,3.8391,3.8391,3.8391,3.8391,3.8391,3.8391,3.8391,3.8391,3.8391,3.8391,3.8391,3.8391,3.8391,3.8391,3.8391,3.8391,3.8391,3.8391,3.8391,3.8391,3.8391,3.8391,3.8391,3.8391,3.8391,3.8391,3.8576,3.8616,3.8766,4.0086,4.0334,4.0153,4.1139,4.1472,4.1578,4.2086,4.2287,4.2287,4.2287,4.2287,4.2287,4.2287,4.2287,4.2287,4.2287,4.2287,4.2287,4.2287,4.2287,4.2287,4.2287,4.2287,4.2287,4.2287,4.2287,4.2287,4.2287,4.2287,4.2287,4.2287,4.2287,4.2287,4.2287,4.2287,4.2287,4.2287,4.2287,4.2287,4.2287,4.2287,4.2287,4.2287,4.2287,4.2287,4.2287,4.2287,4.2287,4.2287,4.2287,4.2287,4.2287,4.2287,4.2287,4.2287,4.2287,4.2287,0.0,0.0,3.4618,3.6605,3.7466,3.803,3.8758,3.9106,3.9272,3.9202,3.904,3.8914,3.8805,3.8655,3.8504,3.8448,3.8464,3.8391,3.8391,3.8391,3.8391,3.8391,3.8391,0.0,0.0,0.0,0.0,3.8391,3.8391,3.8391,3.8391,3.8391,3.8391,3.8391,3.8391,3.8391,3.8391,3.8391,3.8391,3.8391,3.8391,3.8391,3.8391,3.8391,3.8391,3.8391,3.8391,3.8391,3.8391,3.8391,3.8391,3.8391,3.8464,3.8504,3.8727,3.9489,4.0036,4.0528,4.1666,4.2044,4.2044,4.2246,4.2287,4.2287,4.2287,4.2287,4.2287,4.2287,4.2287,4.2287,4.2287,4.2287,4.2287,4.2287,4.2287,4.2287,4.2287,4.2287,4.2287,4.2287,4.2287,4.2287,4.2287,4.2287,4.2287,4.2287,4.2287,4.2287,4.2287,4.2287,4.2287,4.2287,4.2287,4.2287,4.2287,4.2287,4.2287,4.2287,4.2287,4.2287,4.2287,4.2287,4.2287,4.2287,4.2287,4.2287,4.2287,4.2287,4.2287,4.2287,4.2287,4.2287,3.4104,3.528,3.6092,3.7798,3.8411,3.8709,3.9172,3.9272,3.9272,3.9272,3.895,3.8727,3.8936,3.857,3.8267,3.8511,3.8448,3.8391,3.8391,3.8391,3.8391,3.8391,3.8634,3.878,0.0,0.0,0.0,3.844,3.8391,3.8391,3.8391,3.8391,3.8391,3.8391,3.8391,3.8391,3.8391,3.8391,3.8391,3.8391,3.8391,3.8391,3.8391,3.8391,3.8391,3.8391,3.8391,3.8391,3.8391,3.8391,3.8391,3.8391,3.8391,3.8448,3.8616,3.9242,3.9919,4.0655,4.1604,4.2086,4.2287,4.2287,4.2287,4.2287,4.2287,4.2287,4.2287,4.2287,4.2287,4.2287,4.2287,4.2287,4.2287,4.2287,4.2287,4.2287,4.2287,4.2287,4.2287,4.2287,4.2287,4.2287,4.2287,4.2287,4.2287,4.2287,4.2287,4.2287,4.2287,4.2287,4.2287,4.2287,4.2287,4.2287,4.2287,4.2287,4.2287,4.2287,4.2287,4.2287,4.2287,4.2287,4.2287,4.2287,4.2287,4.2287,4.2287,4.2287,4.2287,4.2287,4.2287,4.2287,3.4551,3.6025,3.7334,3.8079,3.8775,3.9272,3.9272,3.9272,3.9309,3.9222,3.8553,3.8187,3.899,0.0,3.7688,3.8521,3.8495,3.8391,3.8391,3.8391,3.8408,0.0,0.0,0.0,0.0,0.0,0.0,3.8602,0.0,3.8505,3.8505,3.8505,3.8505,3.8505,3.8472,3.8456,3.8456,3.8424,3.8391,3.8391,3.8391,3.8391,3.8391,3.8391,3.8391,3.8391,3.8391,3.8391,3.8391,3.8391,3.8391,3.8391,3.8391,3.8391,3.8488,3.9295,3.9868,4.038,4.1059,4.1753,4.2287,4.2287,4.2287,4.2287,4.2287,4.2287,4.2287,4.2287,4.2287,4.2287,4.2287,4.2287,4.2287,4.2287,4.2287,4.2287,4.2287,4.2287,4.2287,4.2287,4.2287,4.2287,4.2287,4.2287,4.2287,4.2287,4.2287,4.2287,4.2287,4.2287,4.2287,4.2287,4.2287,4.2287,4.2287,4.2287,4.2287,4.2287,4.2287,4.2287,4.2287,4.2287,4.2287,4.2287,4.2287,4.2287,4.2287,4.2287,4.2287,4.2287,4.2287,4.2287,3.5313,3.6804,3.8112,3.8825,3.9139,3.9272,3.9272,3.9272,3.9123,3.8593,3.7845,3.7217,3.6752,0.0,0.0,3.7008,3.7806,0.0,3.8391,3.8391,0.0,3.9136,0.0,3.9687,4.0189,4.0383,0.0,0.0,3.9946,3.9946,3.9946,3.9946,3.9946,3.9946,3.946,3.9201,3.9201,3.8667,3.8391,3.8391,3.8391,3.8391,3.8391,3.8391,3.8391,3.8391,3.8391,3.8391,3.8391,3.8391,3.8391,3.8391,3.8391,3.8391,3.8448,3.8969,3.9558,4.0186,4.0861,4.1622,4.2287,4.2287,4.2287,4.2287,4.2287,4.2287,4.2287,4.2287,4.2287,4.2287,4.2287,4.2287,4.2287,4.2287,4.2287,4.2287,4.2287,4.2287,4.2287,4.2287,4.2287,4.2287,4.2287,4.2287,4.2287,4.2287,4.2287,4.2287,4.2287,4.2287,4.2287,4.2287,4.2287,4.2287,4.2287,4.2287,4.2287,4.2287,4.2287,4.2287,4.2287,4.2287,4.2287,4.2287,4.2287,4.2287,4.2287,4.2287,4.2287,4.2287,4.2287,4.2287,3.6174,3.7566,3.8775,3.9172,3.9272,3.9106,3.8477,3.8328,3.803,3.697,3.6174,0.0,3.5431,0.0,0.0,0.0,0.0,0.0,3.8391,3.8683,3.9023,0.0,4.0027,0.0,4.0934,4.1241,4.1436,0.0,4.0853,4.0496,4.0496,4.0496,4.0496,4.0496,4.0124,3.9784,3.9476,3.9072,3.8715,3.8391,3.8391,3.8391,3.8391,3.8391,3.8391,3.8391,0.0,3.8391,3.8391,3.8391,3.8391,3.8391,3.8391,3.8504,3.8711,3.8952,3.961,4.0351,4.0737,4.1445,4.2145,4.2246,4.2287,4.2287,4.2287,4.2287,4.2287,4.2287,4.2287,4.2287,4.2287,4.2287,4.2287,4.2287,4.2287,4.2287,4.2287,4.2287,4.2287,4.2287,4.2287,4.2287,4.2287,4.2287,4.2287,4.2287,4.2287,4.2287,4.2287,4.2287,4.2287,4.2287,4.2287,4.2287,4.2287,4.2287,4.2287,4.2287,4.2287,4.2287,4.2287,4.2287,4.2287,4.2287,4.2287,4.2287,4.2287,4.2287,4.2287,4.2287,4.2287,4.2287,3.6936,3.8179,3.9272,3.9272,3.9206,3.8775,3.7417,3.6953,3.6423,3.5032,0.0,3.369,3.4336,3.484,3.5397,3.6217,0.0,3.8197,3.8375,3.9023,3.9509,3.9606,4.0772,4.1614,4.1695,4.2278,4.2634,4.2634,4.1484,4.0772,4.0772,4.0772,4.0739,4.0642,4.0545,4.0173,3.9493,3.9379,3.9023,3.8391,3.8391,3.8391,3.8391,3.8391,3.8391,3.8391,3.8391,0.0,3.8391,3.8391,3.8391,3.8391,3.8391,3.8655,3.9023,3.9206,3.98,4.0594,4.0849,4.1311,4.1892,4.2145,4.2287,4.2287,4.2287,4.2287,4.2287,4.2287,4.2287,4.2287,4.2287,4.2287,4.2287,4.2287,4.2287,4.2287,4.2287,4.2287,4.2287,4.2287,4.2287,4.2287,4.2287,4.2287,4.2287,4.2287,4.2287,4.2287,4.2287,4.2287,4.2287,4.2287,4.2287,4.2287,4.2287,4.2287,4.2287,4.2287,4.2287,4.2287,4.2287,4.2287,4.2287,4.2287,4.2287,4.2287,4.2287,4.2287,4.2287,4.2287,4.2287,4.2287,3.7069,3.8179,3.9272,3.9272,3.8825,3.8162,3.7301,3.6158,0.0,0.0,3.2928,3.2034,3.2166,3.2554,3.3334,3.4644,0.0,0.0,0.0,0.0,3.9687,0.0,0.0,0.0,0.0,0.0,0.0,0.0,0.0,4.2261,4.2261,4.2261,4.1986,4.1403,4.0804,4.0173,3.9493,3.8893,3.8521,3.8391,3.8391,3.8391,3.8391,3.8391,3.8391,3.8391,3.8391,0.0,3.8391,3.8391,3.8391,3.8391,3.8391,3.8655,3.9023,3.9401,3.9885,4.0468,4.1226,4.1542,4.1692,4.1892,4.2103,4.2287,4.2287,4.2287,4.2287,4.2287,4.2287,4.2287,4.2287,4.2287,4.2287,4.2287,4.2287,4.2287,4.2287,4.2287,4.2287,4.2287,4.2287,4.2287,4.2287,4.2287,4.2287,4.2287,4.2287,4.2287,4.2287,4.2287,4.2287,4.2287,4.2287,4.2287,4.2287,4.2287,4.2287,4.2287,4.2287,4.2287,4.2287,4.2287,4.2287,4.2287,4.2287,4.2287,4.2287,4.2287,4.2287,4.2287,4.2287,4.2287,3.7003,3.7897,3.8808,3.9172,3.8742,3.7814,3.6307,0.0,0.0,0.0,3.0898,3.0005,3.0243,0.0,0.0,0.0,0.0,0.0,0.0,0.0,0.0,0.0,0.0,0.0,0.0,0.0,0.0,0.0,0.0,4.2634,4.2634,4.2634,4.2472,4.2132,4.1436,4.0707,4.0011,3.9314,3.8764,3.8391,3.8391,3.8391,3.8391,3.8391,3.8391,3.8391,3.8391,0.0,3.8391,3.8391,3.8391,3.8391,3.86,3.8969,3.9365,3.9799,4.0221,4.068,4.1105,4.1318,4.1391,4.1328,4.177,4.2287,4.2287,4.2287,4.2287,4.2287,4.2287,4.2287,4.2287,4.2287,4.2287,4.2287,4.2287,4.2228,4.1941,4.1899,4.1899,4.1899,4.1683,4.1507,4.1507,4.1507,4.1507,4.1507,4.1727,4.1899,4.1899,4.1899,4.2002,4.2287,4.2287,4.2287,4.2287,4.2287,4.2287,4.2287,4.2287,4.2287,4.2287,4.2287,4.2287,4.2287,4.2287,4.2287,4.2287,4.2287,4.2287,4.2287,4.2287,4.2287,3.6903,3.7597,3.8325,3.909,3.8626,3.74,3.5133,3.3363,0.0,0.0,2.8916,2.824,2.8788,0.0,0.0,0.0,0.0,0.0,0.0,0.0,0.0,0.0,0.0,0.0,0.0,0.0,0.0,0.0,0.0,0.0,4.2634,4.2634,4.2553,4.2407,4.1711,4.0998,4.0286,3.959,3.8958,3.8391,3.8391,3.8391,3.8391,3.8391,3.8391,3.8391,3.8391,0.0,0.0,3.8391,3.8391,3.8448,3.8766,3.9115,3.9523,3.9867,4.0271,4.0614,4.071,4.0789,4.0896,4.0737,4.1293,4.2061,4.2019,4.1959,4.1959,4.1959,4.1959,4.1959,4.1959,4.1959,4.1959,4.1959,4.1959,4.1856,4.1445,4.1338,4.1338,4.1338,4.1019,4.0802,4.0802,4.0802,4.0802,4.0802,4.1111,4.1338,4.1338,4.1338,4.1534,4.1917,4.1959,4.2002,4.2103,4.2145,4.2187,4.2287,4.2287,4.2287,4.2287,4.2287,4.2287,4.2287,4.2287,4.2287,4.2287,4.2287,4.2287,4.2287,4.2287,4.2287,3.6853,3.7546,3.822,3.9106,3.8228,3.6588,3.431,0.0,0.0,2.8648,2.7673,2.7344,2.8083,2.8216,0.0,0.0,0.0,0.0,0.0,0.0,0.0,0.0,0.0,0.0,0.0,0.0,0.0,0.0,0.0,0.0,4.2634,4.2634,4.2342,4.1695,4.0966,4.027,3.9573,3.8861,3.8472,3.8391,3.8391,3.8391,3.8391,3.8391,3.8391,3.8391,3.8391,0.0,0.0,3.8391,3.8391,3.8391,3.8448,3.8711,3.9077,3.9077,3.9365,3.9765,4.0003,4.0103,4.0153,4.03,4.0767,4.1255,4.099,4.0943,4.0943,4.0943,4.0943,4.0943,4.0943,4.0943,4.0943,4.0943,4.0943,4.0943,4.0896,4.0849,4.0849,4.0849,4.0849,4.0802,4.0802,4.0802,4.0802,4.0802,4.0849,4.0849,4.0849,4.0849,4.0896,4.0943,4.0943,4.1128,4.1534,4.1561,4.177,4.2287,4.2287,4.2287,4.2287,4.2287,4.2287,4.2287,4.2287,4.2287,4.2287,4.2287,4.2287,4.2287,4.2287,4.2287,3.586,3.6818,3.7612,3.8233,3.7708,3.6372,3.4036,0.0,2.9969,2.8862,2.7414,2.6646,2.7671,2.7541,2.7761,0.0,3.0162,3.1558,3.4554,0.0,0.0,0.0,0.0,0.0,0.0,0.0,0.0,0.0,0.0,0.0,4.2634,4.2634,4.2294,4.1598,4.0869,4.0173,3.9493,3.8764,3.8391,3.8391,3.8391,3.8391,3.8391,3.8391,3.8391,3.8391,3.8391,0.0,0.0,3.8391,3.8391,3.8391,3.8655,3.886,3.9023,3.9259,3.9454,3.961,3.9697,3.9749,3.9749,3.968,3.9783,4.0103,4.0546,4.0689,4.0689,4.0802,4.0802,4.0802,4.0802,4.0802,4.0707,4.04,4.0563,4.0707,4.04,4.0302,4.0302,4.0302,4.007,3.9901,3.9901,3.9901,3.9901,3.9901,4.012,4.0302,4.0302,4.0302,4.0302,4.0302,4.0611,4.0896,4.1065,4.1065,4.1311,4.1813,4.1813,4.1959,4.2287,4.2287,4.2287,4.2287,4.2287,4.2287,4.2287,4.2287,4.2287,4.2287,4.2287,4.2555,3.4874,3.5908,3.675,3.7334,3.6845,3.5563,0.0,3.1226,2.9531,2.8509,2.715,2.6423,2.7259,2.721,2.738,0.0,2.9178,3.0765,3.3696,0.0,0.0,0.0,0.0,0.0,0.0,0.0,0.0,0.0,0.0,0.0,4.2002,4.2002,4.1759,4.1274,4.0561,3.9865,3.9169,3.8651,3.8391,3.8391,3.8391,3.8391,3.8391,3.8391,3.8335,3.8262,3.8335,0.0,0.0,3.8335,3.8391,3.8448,3.8711,3.8821,3.886,3.9152,3.9259,3.9259,3.9259,3.9259,3.9206,3.899,3.8952,3.9098,3.98,4.0036,4.0153,4.0319,4.0385,4.0385,4.0385,4.0385,4.0269,3.9868,4.007,4.0269,3.9868,3.9765,3.9765,3.9765,3.9504,3.9272,3.9272,3.9272,3.9272,3.9272,3.9592,3.9765,3.9765,3.9765,3.9765,3.9765,4.012,4.0417,4.0546,4.0546,4.0784,4.1248,4.1293,4.1445,4.1831,4.1874,4.1874,4.1874,4.1874,4.1917,4.2044,4.2044,4.2145,4.2287,4.2287,4.284,3.4072,3.4938,3.5622,3.6512,3.5594,3.3956,0.0,3.0027,2.8567,2.7048,2.6701,2.6685,2.6701,2.7251,2.7705,2.7721,3.0117,3.2481,3.3906,0.0,0.0,0.0,0.0,0.0,0.0,0.0,0.0,0.0,0.0,0.0,4.0545,4.0513,4.0513,4.0496,3.9849,3.9136,3.8424,3.8391,3.8391,3.8391,3.8391,3.8391,3.8391,3.8391,3.8205,0.0,0.0,0.0,0.0,3.8262,3.8391,3.8391,3.8391,3.8408,3.8408,3.8391,3.8391,3.8391,3.8391,3.8391,3.8391,3.8391,3.8408,3.8448,3.856,3.8821,3.9077,3.9272,3.9325,3.9325,3.9325,3.9325,3.9325,3.9325,3.9325,3.9325,3.9325,3.9325,3.9325,3.9325,3.9325,3.9272,3.9272,3.9272,3.9272,3.9272,3.9325,3.9325,3.9325,3.9325,3.9325,3.9325,3.9325,3.9504,3.9952,4.0003,4.0252,4.0754,4.0802,4.0802,4.0802,4.0802,4.0802,4.0802,4.0802,4.1019,4.1516,4.1516,4.177,4.2287,4.2287,4.3126,3.1271,3.2311,3.3254,3.2819,3.2818,3.2311,3.0071,2.9183,2.8556,2.7575,2.7025,2.6992,2.7948,2.7899,2.819,2.9664,3.0668,0.0,0.0,0.0,0.0,0.0,0.0,0.0,0.0,0.0,0.0,0.0,0.0,0.0,4.0496,4.0059,3.98,3.98,3.959,3.9136,3.8408,3.8205,3.8075,3.8075,3.7844,3.7727,3.7727,3.7727,3.7653,0.0,0.0,0.0,0.0,3.7653,3.7727,3.7727,3.796,3.8075,3.8075,3.8335,3.8391,3.8391,3.8391,3.8391,3.8391,3.8391,3.8391,3.8464,3.856,3.8672,3.8766,3.904,3.9202,3.9272,3.9272,3.9272,3.9272,3.9272,3.9272,3.9272,3.9272,3.9272,3.9272,3.9272,3.9272,3.9272,3.9272,3.9272,3.9272,3.9272,3.9272,3.9272,3.9272,3.9272,3.9272,3.9272,3.9272,3.9379,3.9504,3.9504,3.9747,4.0203,4.0252,4.04,4.0802,4.0802,4.0802,4.0802,4.0802,4.1036,4.1472,4.1472,4.2053,4.3144,4.3643,4.4428,0.0,3.0429,3.1299,3.068,3.0742,3.0477,2.8783,2.819,2.7867,2.7429,2.7187,2.7348,2.8223,2.845,2.8871,2.9939,3.0797,0.0,0.0,0.0,0.0,0.0,0.0,0.0,0.0,0.0,0.0,0.0,0.0,0.0,3.9511,3.9108,3.8808,3.8691,3.8808,3.8599,3.8033,3.7844,3.7695,3.7711,3.7476,3.7417,3.7417,3.7417,3.7358,0.0,0.0,0.0,0.0,3.7358,3.7417,3.7401,3.777,3.7886,3.7943,3.8278,3.8391,3.8391,3.8391,3.8391,3.8391,3.8391,3.8391,3.8408,3.8504,3.8616,3.8766,3.8914,3.9094,3.9272,3.9202,3.9218,3.9272,3.9272,3.9272,3.9272,3.9272,3.9272,3.9272,3.9272,3.9272,3.9272,3.9272,3.9272,3.9272,3.9272,3.9272,3.9272,3.9272,3.9272,3.9272,3.9272,3.9272,3.9272,3.9272,3.9272,3.9415,3.9731,3.9731,3.9885,4.0237,4.0237,4.0237,4.0237,4.0417,4.0737,4.1265,4.1622,4.2384,4.3536,4.4268,4.5035,0.0,2.9091,2.9675,2.9626,2.9097,2.845,2.7721,2.7106,0.0,2.6701,2.7203,2.7688,2.7834,2.8919,2.9675,2.9162,0.0,0.0,0.0,0.0,0.0,0.0,0.0,0.0,0.0,0.0,0.0,0.0,0.0,0.0,3.7918,3.7886,3.7695,3.7358,3.7653,3.7711,3.7417,3.7358,3.7358,3.7358,3.7358,3.7358,3.7358,3.7358,3.7194,0.0,0.0,0.0,0.0,3.7254,3.7358,3.7358,3.7711,3.7828,3.7886,3.8262,3.8391,3.8391,3.8391,3.8391,3.8391,3.8391,3.8391,3.8391,3.8391,3.8655,3.8969,3.8805,3.904,3.9218,3.9023,3.9148,3.9272,3.9272,3.9272,3.9272,3.9272,3.9272,3.9272,3.9272,3.9272,3.9272,3.9272,3.9272,3.9272,3.9272,3.9272,3.9272,3.9272,3.9272,3.9272,3.9272,3.9272,3.9272,3.9272,3.9272,3.9272,3.9272,3.9272,3.9272,3.9272,3.9272,3.9272,3.9272,3.9782,4.0252,4.0754,4.1727,4.2614,4.3476,4.4224,4.4991,2.5211,0.0,2.7316,2.6749,2.6895,2.6992,0.0,2.6409,2.6701,0.0,0.0,0.0,2.9065,0.0,0.0,0.0,0.0,0.0,0.0,0.0,0.0,0.0,0.0,0.0,0.0,0.0,0.0,0.0,0.0,3.8062,3.7535,3.7535,3.7373,3.7105,3.7165,3.727,3.7417,3.721,3.7105,3.7105,3.6846,3.6723,3.6723,3.6723,3.6662,0.0,0.0,0.0,3.6616,3.6677,3.6723,3.6723,3.7105,3.7329,3.7535,3.7886,3.8205,3.8391,3.8391,3.8391,3.8391,3.8391,3.8391,3.8391,3.8391,3.856,3.8672,3.8672,3.8766,3.8914,3.886,3.886,3.8914,3.8914,3.8985,3.9094,3.9094,3.9202,3.9272,3.9272,3.9272,3.9272,3.9272,3.9272,3.9272,3.9272,3.9272,3.9272,3.9272,3.9272,3.9272,3.9272,3.9272,3.9272,3.9272,3.9272,3.9272,3.9272,3.9272,3.9272,3.9272,3.9272,3.9272,3.9272,3.9782,4.0053,4.0203,4.0832,4.1758,4.2908,4.3684,4.4706,2.343,2.4839,2.6183,2.6118,2.6409,2.6587,2.6199,0.0,0.0,0.0,0.0,0.0,0.0,0.0,0.0,0.0,0.0,0.0,0.0,0.0,0.0,0.0,0.0,0.0,0.0,0.0,0.0,0.0,0.0,3.7535,3.721,3.721,3.7089,3.6754,3.6754,3.6862,3.7013,3.6862,3.6754,3.6754,3.6554,3.6492,3.6492,3.6492,3.6492,0.0,0.0,0.0,3.6492,3.6492,3.6492,3.6554,3.6877,3.7105,3.727,3.7711,3.8001,3.8205,3.8335,3.8391,3.8391,3.8391,3.8391,3.8391,3.8391,3.8448,3.852,3.852,3.8655,3.8805,3.8711,3.875,3.8805,3.8805,3.886,3.8914,3.8914,3.9023,3.9148,3.9148,3.9218,3.9272,3.9272,3.9272,3.9272,3.9272,3.9272,3.9272,3.9272,3.9272,3.9272,3.9272,3.9272,3.9272,3.9272,3.9272,3.9272,3.9272,3.9272,3.9272,3.9272,3.9272,3.9415,3.9592,3.9868,4.0252,4.0672,4.0972,4.1803,4.3076,4.3881,4.4813,2.262,2.4172,2.5782,2.6264,2.6523,2.6668,2.6555,0.0,0.0,0.0,0.0,0.0,0.0,0.0,0.0,0.0,0.0,0.0,0.0,0.0,0.0,0.0,0.0,0.0,0.0,0.0,0.0,0.0,0.0,3.721,3.6938,3.6938,3.6816,3.6492,3.6492,3.6492,3.6492,3.6492,3.6492,3.6492,3.6492,3.6492,3.6492,3.6492,3.6492,3.6492,0.0,0.0,3.6492,3.6492,3.6492,3.6554,3.6816,3.6999,3.7105,3.7669,3.7886,3.8017,3.8278,3.8391,3.8391,3.8391,3.8391,3.8391,3.8391,3.8391,3.8391,3.8391,3.8544,3.8694,3.8616,3.8655,3.875,3.875,3.875,3.875,3.875,3.886,3.8969,3.8969,3.9148,3.9272,3.9272,3.9272,3.9272,3.9272,3.9272,3.9272,3.9272,3.9272,3.9272,3.9272,3.9272,3.9272,3.9272,3.9272,3.9272,3.9272,3.9272,3.9272,3.9272,3.9272,3.9504,3.9868,3.9952,4.0383,4.1139,4.1338,4.1974,4.3109,4.4066,4.4893,2.3673,2.5104,2.5902,2.5061,2.5778,2.6539,2.5924,0.0,0.0,0.0,0.0,0.0,0.0,0.0,0.0,0.0,0.0,0.0,0.0,0.0,0.0,0.0,0.0,0.0,0.0,0.0,0.0,0.0,0.0,0.0,3.6616,3.6554,3.6554,3.6492,3.6492,3.6492,3.6492,3.6492,3.6492,3.6492,3.6492,3.6492,3.6492,3.6492,3.6492,3.6492,0.0,3.6492,3.6492,3.6492,3.6492,3.6492,3.6554,3.6907,3.7358,3.7417,3.7844,3.8335,3.8391,3.8391,3.8391,3.8391,3.8391,3.8391,3.8391,3.8391,3.8391,3.8391,3.8448,3.8448,3.8448,3.8448,3.8448,3.8448,3.856,3.8616,3.8616,3.8711,3.886,3.8969,3.9023,3.9094,3.9272,3.9272,3.9272,3.9272,3.9272,3.9272,3.9272,3.9272,3.9272,3.9272,3.9272,3.9272,3.9272,3.9272,3.9272,3.9272,3.9272,3.9272,3.9272,3.9272,3.9325,3.9415,3.9817,3.9868,3.9661,4.0514,4.0995,4.1244,4.3138,4.4306,2.2721,2.4074,2.5137,2.5233,2.7032,2.8603,2.8036,0.0,0.0,0.0,0.0,0.0,0.0,0.0,0.0,0.0,0.0,0.0,0.0,0.0,0.0,0.0,0.0,0.0,0.0,0.0,0.0,0.0,0.0,0.0,3.6492,3.6492,3.6492,3.6492,3.6492,3.6492,3.6492,3.6492,3.6492,3.6492,3.6492,3.6492,3.6492,3.6492,3.6492,3.6492,0.0,3.6492,3.6492,3.6492,3.6492,3.6492,3.6492,3.6662,3.6968,3.7089,3.7567,3.8132,3.8132,3.8262,3.8391,3.8391,3.8391,3.8391,3.8391,3.8391,3.8391,3.8391,3.8391,3.8391,3.8391,3.8391,3.8391,3.8391,3.8464,3.8504,3.8504,3.8616,3.8711,3.8766,3.886,3.8914,3.904,3.904,3.904,3.9148,3.9148,3.9202,3.9272,3.9272,3.9272,3.9272,3.9272,3.9272,3.9272,3.9272,3.9272,3.9272,3.9272,3.9272,3.9272,3.9272,3.9272,3.9272,3.9504,3.9782,4.0087,4.0269,4.1009,4.2281,4.3388,4.4357,2.1906,2.3158,2.4576,2.5693,0.0,2.9521,2.9846,0.0,0.0,0.0,0.0,0.0,0.0,0.0,0.0,0.0,0.0,0.0,0.0,0.0,0.0,0.0,0.0,0.0,0.0,0.0,0.0,0.0,0.0,0.0,3.6492,3.6492,3.6492,3.6492,3.6492,3.6492,3.6492,3.6492,3.6492,3.6492,3.6492,3.6492,3.6492,3.6492,3.6492,3.6492,3.6492,3.6492,3.6492,3.6492,3.6492,3.6492,3.6492,3.6554,3.6693,3.6984,3.7389,3.7754,3.7754,3.8017,3.8262,3.8262,3.8335,3.8391,3.8391,3.8391,3.8391,3.8391,3.8391,3.8391,3.8391,3.8391,3.8391,3.8391,3.8391,3.8391,3.8391,3.8448,3.856,3.856,3.8655,3.875,3.8805,3.8805,3.886,3.8969,3.9023,3.9148,3.9272,3.9272,3.9272,3.9272,3.9272,3.9272,3.9272,3.9272,3.9272,3.9272,3.9272,3.9272,3.9272,3.9272,3.9272,3.9272,3.9415,3.9833,4.0594,4.0449,4.1267,4.3045,4.3748,4.4599,2.2477,2.3683,2.482,2.5819,0.0,0.0,2.9454,0.0,0.0,0.0,0.0,0.0,0.0,0.0,0.0,0.0,0.0,0.0,0.0,0.0,0.0,0.0,0.0,0.0,0.0,0.0,0.0,0.0,0.0,0.0,3.6492,3.6492,3.6492,3.6492,3.6492,3.6492,3.6492,3.6492,3.6492,3.6492,3.6492,3.6492,3.6492,3.6492,3.6492,3.6492,3.6492,3.6492,3.6492,3.6492,3.6492,3.6492,3.6492,3.6677,3.6999,3.7254,3.7417,3.7417,3.7417,3.7653,3.7943,3.7943,3.8148,3.8391,3.8391,3.8391,3.8391,3.8391,3.8391,3.8391,3.8391,3.8391,3.8391,3.8391,3.8391,3.8391,3.8391,3.8408,3.8448,3.8576,3.8616,3.8655,3.8805,3.8914,3.8969,3.9023,3.9148,3.9272,3.9272,3.9272,3.9272,3.9272,3.9272,3.9272,3.9272,3.9272,3.9272,3.9272,3.9272,3.9272,3.9272,3.9272,3.9272,3.9272,3.9731,4.0003,4.0053,4.0955,4.1463,4.1701,4.3616,4.4599,2.1717,2.3219,2.4854,2.5932,0.0,0.0,0.0,0.0,0.0,0.0,0.0,0.0,0.0,0.0,0.0,0.0,0.0,0.0,0.0,0.0,0.0,0.0,0.0,0.0,0.0,0.0,0.0,0.0,0.0,0.0,0.0,3.6492,3.6492,3.6492,3.6492,3.6492,3.6492,3.6492,3.6492,3.6492,3.6492,3.6492,3.6492,3.6492,3.6492,3.6492,3.6492,3.6492,3.6492,3.6492,3.6492,3.6492,3.6492,3.6554,3.6677,3.6785,3.6968,3.715,3.7358,3.7653,3.7943,3.8132,3.8278,3.8391,3.8391,3.8391,3.8391,3.8391,3.8391,3.8391,3.8391,3.8391,3.8391,3.8391,3.8391,3.8391,3.8391,3.8391,3.8391,3.8464,3.8464,3.8504,3.8544,3.86,3.8672,3.8711,3.8838,3.8876,3.8985,3.904,3.9094,3.9094,3.9218,3.9272,3.9272,3.9272,3.9272,3.9272,3.9272,3.9272,3.9272,3.9592,3.9731,3.9731,4.022,4.0642,4.0955,4.1019,4.1646,4.2764,4.32,4.3864,2.1173,2.2415,2.394,0.0,0.0,0.0,0.0,0.0,0.0,0.0,0.0,0.0,0.0,0.0,0.0,0.0,0.0,0.0,0.0,0.0,0.0,0.0,0.0,0.0,0.0,0.0,0.0,0.0,0.0,0.0,0.0,3.6492,3.6492,3.6492,3.6492,3.6492,3.6492,3.6492,3.6492,3.6492,3.6492,3.6492,3.6492,3.6492,3.6492,3.6492,3.6492,3.6492,3.6492,3.6492,3.6492,3.6492,3.6492,3.6492,3.6492,3.6492,3.6631,3.6877,3.7074,3.7314,3.7669,3.7976,3.8148,3.8262,3.8391,3.8391,3.8391,3.8391,3.8391,3.8391,3.8391,3.8391,3.8391,3.8391,3.8391,3.8391,3.8391,3.8391,3.8391,3.8391,3.8391,3.8391,3.8391,3.8464,3.8504,3.8576,3.8616,3.8711,3.8805,3.886,3.8914,3.8914,3.9094,3.9218,3.9218,3.9272,3.9272,3.9272,3.9272,3.9379,3.9504,3.9817,4.0103,4.0252,4.0594,4.1036,4.1472,4.1157,4.1726,4.3126,4.2996,4.343,2.1137,2.1337,0.0,0.0,0.0,0.0,0.0,0.0,0.0,0.0,0.0,0.0,0.0,0.0,0.0,0.0,0.0,0.0,0.0,0.0,0.0,0.0,0.0,0.0,0.0,0.0,0.0,0.0,0.0,0.0,0.0,3.6492,3.6492,3.6492,3.6492,3.6492,3.6492,3.6492,3.6492,3.6492,3.6492,3.6492,3.6492,3.6492,3.6492,3.6492,3.6492,3.6492,3.6492,3.6492,3.6492,3.6492,3.6492,3.6492,3.6492,3.6492,3.6492,3.6492,3.6492,3.6739,3.706,3.7314,3.7653,3.7943,3.8278,3.8391,3.8391,3.8391,3.8391,3.8391,3.8391,3.8391,3.8391,3.8391,3.8391,3.8391,3.8391,3.8391,3.8391,3.8391,3.8391,3.8391,3.8391,3.8504,3.8616,3.8616,3.8711,3.8805,3.8805,3.8805,3.8805,3.8805,3.8914,3.9023,3.9023,3.9202,3.9272,3.9272,3.9272,3.9504,3.9952,4.0003,4.0252,4.0802,4.0802,4.1019,4.1534,4.1534,4.177,4.2305,4.3126,4.35,2.1137,2.2671,0.0,0.0,0.0,0.0,0.0,0.0,0.0,0.0,0.0,0.0,0.0,0.0,0.0,0.0,0.0,0.0,0.0,0.0,0.0,0.0,0.0,0.0,0.0,0.0,0.0,0.0,0.0,0.0,0.0,3.6492,3.6492,3.6492,3.6492,3.6492,3.6492,3.6492,3.6492,3.6492,3.6492,3.6492,3.6492,3.6492,3.6492,3.6492,3.6492,3.6492,3.6492,3.6492,3.6492,3.6492,3.6492,3.6492,3.6492,3.6492,3.6492,3.6554,3.6754,3.7044,3.7314,3.7653,3.796,3.8278,3.8391,3.8391,3.8391,3.8391,3.8391,3.8391,3.8391,3.8391,3.8391,3.8391,3.8391,3.8391,3.8391,3.8391,3.8391,3.8391,3.8391,3.8391,3.8391,3.8448,3.8448,3.8448,3.8504,3.8544,3.8672,3.8672,3.8711,3.8805,3.8914,3.9023,3.9023,3.9202,3.9272,3.9272,3.9272,3.9379,3.9504,4.017,4.0659,4.0802,4.149,4.1917,4.2044,4.2044,4.2145,4.2287,4.2537,4.2662,2.1686,0.0,0.0,0.0,0.0,0.0,0.0,0.0,0.0,0.0,0.0,0.0,0.0,0.0,0.0,0.0,0.0,0.0,0.0,0.0,0.0,0.0,0.0,0.0,0.0,0.0,0.0,0.0,0.0,0.0,0.0,3.6352,3.6492,3.6492,3.6492,3.6492,3.6492,3.6492,3.6492,3.6492,3.6492,3.6492,3.6492,3.6492,3.6492,3.6492,3.6492,3.6492,3.6492,3.6492,3.6492,3.6492,3.6492,3.6492,3.6492,3.6492,3.6492,3.6554,3.6754,3.6907,3.7134,3.7433,3.7685,3.7876,3.7976,3.8091,3.8205,3.8205,3.8278,3.8391,3.8391,3.8391,3.8391,3.8391,3.8391,3.8391,3.8391,3.8391,3.8391,3.8391,3.8391,3.8391,3.8391,3.8391,3.8391,3.8391,3.8391,3.8464,3.8504,3.8504,3.856,3.8655,3.8766,3.886,3.8914,3.9094,3.9292,3.954,3.9592,3.9644,3.9901,4.0466,4.099,4.1401,4.2002,4.2287,4.2287,4.2287,4.2287,4.2287,4.2287,4.2287,0.0,0.0,0.0,0.0,0.0,0.0,0.0,0.0,0.0,0.0,0.0,0.0,0.0,0.0,0.0,0.0,0.0,0.0,0.0,0.0,0.0,0.0,0.0,0.0,0.0,0.0,0.0,0.0,0.0,0.0,0.0,3.6163,3.6429,3.6429,3.6492,3.6492,3.6492,3.6492,3.6492,3.6492,3.6492,3.6492,3.6492,3.6492,3.6492,3.6492,3.6492,3.6492,3.6492,3.6492,3.6492,3.6492,3.6492,3.6492,3.6492,3.6492,3.6492,3.6492,3.6492,3.6492,3.6631,3.6877,3.7015,3.706,3.7314,3.7578,3.787,3.787,3.8075,3.8335,3.8335,3.8335,3.8335,3.8391,3.8391,3.8391,3.8391,3.8391,3.8391,3.8391,3.8391,3.8391,3.8391,3.8391,3.8391,3.8391,3.8391,3.8391,3.8391,3.8391,3.8391,3.8391,3.8504,3.8655,3.8805,3.8914,3.9276,3.9902,4.0003,4.0252,4.0802,4.0849,4.1311,4.2187,4.2287,4.2287,4.2287,4.2287,4.2287,4.2287,4.2287,4.2287,0.0,0.0,0.0,0.0,0.0,0.0,0.0,0.0,0.0,0.0,0.0,0.0,0.0,0.0,0.0,0.0,0.0,0.0,0.0,0.0,0.0,0.0,0.0,0.0,0.0,0.0,0.0,0.0,0.0,0.0,3.5073,3.5544,3.5879,3.5879,3.6289,3.6492,3.6492,3.6492,3.6492,0.0,3.6492,3.6492,3.6492,3.6492,3.6492,3.6492,3.6492,3.6492,3.6492,3.6492,3.6492,3.6492,3.6492,3.6492,3.6492,3.6492,3.6492,3.6492,3.6492,3.6677,3.6877,3.6954,3.7165,3.7298,3.7358,3.7476,3.7535,3.7535,3.7535,3.7669,3.796,3.8017,3.8075,3.8335,3.8391,3.8391,3.8391,3.8391,3.8391,3.8391,3.8391,3.8391,3.8391,3.8391,3.8391,3.8391,3.8391,3.8391,3.8391,3.8391,3.8391,3.8391,3.8504,3.8655,3.8805,3.8914,3.9239,3.9713,3.9919,4.0351,4.11,4.1265,4.1428,4.1666,4.2103,4.2287,4.2287,4.2287,4.2287,4.2287,4.2287,4.2287,0.0,0.0,0.0,0.0,0.0,0.0,0.0,0.0,0.0,0.0,0.0,0.0,0.0,0.0,0.0,0.0,0.0,0.0,0.0,0.0,0.0,0.0,0.0,0.0,0.0,0.0,0.0,0.0,0.0,3.4206,3.4476,3.5023,3.535,3.535,3.5831,3.6022,3.5752,3.6226,3.6367,3.6085,3.6367,3.6492,3.6492,3.6492,3.6492,3.6492,3.6492,3.6492,3.6492,3.6492,3.6492,3.6492,3.6492,3.6492,3.6492,3.6492,3.6492,3.6492,3.6492,3.6616,3.6754,3.6754,3.6862,3.6952,3.6952,3.7074,3.727,3.7358,3.7535,3.7711,3.8075,3.8132,3.8205,3.8335,3.8391,3.8391,3.8391,3.8391,3.8391,3.8391,3.8391,3.8391,3.8391,3.8391,3.8391,3.8391,3.8391,3.8391,3.8391,3.8391,3.8391,3.8391,3.8448,3.856,3.8711,3.8821,3.9169,3.9731,4.017,4.0689,4.1311,4.1683,4.1899,4.1899,4.2145,4.2287,4.2287,4.2287,4.2287,4.2287,4.2287,4.2287,0.0,0.0,0.0,0.0,0.0,0.0,0.0,0.0,0.0,0.0,0.0,0.0,0.0,0.0,0.0,0.0,0.0,0.0,0.0,0.0,0.0,0.0,0.0,0.0,0.0,0.0,0.0,0.0,0.0,3.3948,3.3948,3.4476,3.4743,3.4743,3.5285,3.535,3.4876,3.5752,3.6022,3.5559,3.6085,3.6429,3.6492,3.6492,3.6492,3.6492,3.6492,3.6492,3.6492,3.6492,3.6492,3.6492,3.6492,3.6492,3.6492,3.6492,3.6492,3.6492,3.6492,3.6492,3.6492,3.6492,3.6492,3.6492,3.6492,3.6677,3.6938,3.7194,3.7417,3.777,3.8148,3.8221,3.8278,3.8391,3.8391,3.8391,3.8391,3.8391,3.8391,3.8391,3.8391,3.8391,3.8391,3.8391,3.8391,3.8391,3.8391,3.8391,3.8391,3.8391,3.8391,3.8391,3.8391,3.8504,3.8672,3.8805,3.9152,3.9902,4.0497,4.1036,4.1445,4.2002,4.2287,4.2246,4.2287,4.2287,4.2246,4.2287,4.2287,4.2246,4.2287,4.2287,0.0,0.0,0.0,0.0,0.0,0.0,0.0,0.0,0.0,0.0,0.0,0.0,0.0,0.0,0.0,0.0,0.0,0.0,0.0,0.0,0.0,0.0,0.0,0.0,0.0,0.0,0.0,0.0,3.3382,3.3382,3.3382,3.3894,3.4206,3.4206,3.4743,3.4942,3.4876,3.5008,3.5088,3.5008,3.5559,3.6022,3.6492,3.6492,3.6492,3.6492,3.6492,3.6492,3.6492,3.6492,3.6492,3.6492,3.6492,3.6492,3.6492,3.6492,3.6492,3.6492,3.6492,3.6492,3.6492,3.6492,3.6492,3.6492,3.6492,3.6554,3.6554,3.66,3.6662,3.6846,3.7373,3.7535,3.7669,3.8278,3.8391,3.8391,3.8391,3.8391,3.8391,3.8391,3.8391,3.8391,3.8391,3.8391,3.8391,3.8391,3.8391,3.8391,3.8391,3.8391,3.8391,3.8391,3.8391,3.86,3.9061,3.9152,3.9523,4.0353,4.0884,4.1146,4.1237,4.1917,4.2187,4.1977,4.2187,4.2205,4.1959,4.2205,4.2187,4.1977,4.2187,4.2287,0.0,0.0,0.0,0.0,0.0,0.0,0.0,0.0,0.0,0.0,0.0,0.0,0.0,0.0,0.0,0.0,0.0,0.0,0.0,0.0,0.0,0.0,0.0,0.0,0.0,0.0,0.0,0.0,3.23,3.23,3.23,3.2543,3.2663,3.2663,3.318,3.3311,3.2996,3.3527,3.3834,3.3834,3.4385,3.4783,3.513,3.5661,3.6138,3.6492,3.6492,3.6492,3.6492,3.6492,3.6492,3.6492,3.6492,3.6492,3.6492,3.6492,3.6492,3.6492,3.6492,3.6492,3.6492,3.6492,3.6492,3.6492,3.6492,3.6492,3.6554,3.6892,3.7013,3.7134,3.7786,3.796,3.8017,3.8335,3.8391,3.8391,3.8391,3.8391,3.8391,3.8391,3.8391,3.8391,3.8391,3.8391,3.8391,3.8391,3.8391,3.8391,3.8391,3.8616,3.8711,3.8711,3.8952,3.9259,3.961,3.9697,4.0003,4.0514,4.1082,4.1356,4.1356,4.1959,4.2246,4.2103,4.2246,4.2246,4.2103,4.2246,4.2145,4.1917,4.2019,4.2061,0.0,0.0,0.0,0.0,0.0,0.0,0.0,0.0,0.0,0.0,0.0,0.0,0.0,0.0,0.0,0.0,0.0,0.0,0.0,0.0,0.0,0.0,0.0,0.0,0.0,0.0,0.0,0.0,3.1485,3.1485,3.1485,3.1485,3.1485,3.1485,3.1866,3.1931,3.1485,3.2263,3.2679,3.279,3.3208,3.36,3.3999,3.4713,3.5431,3.5984,3.6153,3.6245,3.6215,3.6045,3.5984,3.5984,3.5984,3.5984,3.5984,3.5984,3.5984,3.5984,3.5984,3.5984,3.5984,3.5984,3.6107,3.6245,3.6245,3.6245,3.6353,3.6808,3.6927,3.7046,3.7703,3.8019,3.8205,3.8335,3.8391,3.8391,3.8391,3.8391,3.8391,3.8391,3.8391,3.8391,3.8391,3.8391,3.8391,3.8391,3.8504,3.856,3.856,3.8914,3.9169,3.9169,3.9401,3.9714,4.002,4.017,4.0351,4.0737,4.1157,4.1445,4.1534,4.1959,4.2205,4.2205,4.2287,4.2246,4.2121,4.2246,4.2163,4.1849,4.1934,4.2019,0.0,0.0,0.0,0.0,0.0,0.0,0.0,0.0,0.0,0.0,0.0,0.0,0.0,0.0,0.0,0.0,0.0,0.0,0.0,0.0,0.0,0.0,0.0,0.0,0.0,0.0,0.0,0.0,3.1485,3.1485,3.1485,3.1485,3.1485,3.1485,3.1551,3.1551,3.1485,3.1551,3.1786,3.2263,3.2356,3.2878,3.3834,3.3834,3.4166,3.4614,3.526,3.5537,3.5476,3.4845,3.4568,3.4568,3.4568,3.4568,3.4568,3.4568,3.4568,3.4568,3.4568,3.4568,3.4568,3.4568,3.5014,3.5537,3.5537,3.5537,3.5537,3.5598,3.5598,3.5763,3.6321,3.6986,3.7594,3.8278,3.8391,3.8391,3.8391,3.8391,3.8391,3.8391,3.8391,3.8391,3.8391,3.8391,3.8391,3.8391,3.8711,3.8969,3.8969,3.9312,3.9558,3.9558,3.961,3.9782,4.0238,4.0288,4.0517,4.11,4.1209,4.1346,4.1604,4.1805,4.1917,4.1917,4.2145,4.2079,4.1648,4.2061,4.2061,4.1648,4.2079,4.2287,0.0,0.0,0.0,0.0,0.0,0.0,0.0,0.0,0.0,0.0,0.0,0.0,0.0,0.0,0.0,0.0,0.0,0.0,0.0,0.0,0.0,0.0,0.0,0.0,0.0,0.0,0.0,0.0,0.0,3.0277,3.0277,3.0277,3.0277,3.0277,3.0277,3.0277,3.0277,3.0277,3.0517,3.0989,3.1311,3.1882,3.2585,3.3243,3.3722,3.4014,3.4112,3.4414,3.4814,3.4568,3.4475,3.4475,3.4475,3.4475,3.4475,3.4475,3.4475,3.4475,3.4475,3.4475,3.4475,3.4475,3.4629,3.4845,3.4845,3.4845,3.4889,3.505,3.5093,3.5319,3.6148,3.6564,3.698,3.7847,3.8262,3.8391,3.8391,3.8391,3.8391,3.8391,3.8391,3.8391,3.8391,3.8391,3.8504,3.8766,3.8914,3.9061,3.9365,3.9782,4.007,4.007,4.0303,4.0549,4.0836,4.1041,4.1272,4.1613,4.1788,4.1934,4.2037,4.2121,4.2163,4.2163,4.2246,4.2205,4.2037,4.2205,4.2121,4.1805,4.1977,4.2061,0.0,0.0,0.0,0.0,0.0,0.0,0.0,0.0,0.0,0.0,0.0,0.0,0.0,0.0,0.0,0.0,0.0,0.0,0.0,0.0,0.0,0.0,0.0,0.0,0.0,0.0,0.0,0.0,0.0,0.0,2.9602,2.9602,2.9602,2.9602,2.9602,2.9602,2.9602,2.9602,2.9851,3.0312,3.0613,3.1131,3.1842,3.2546,3.2977,3.3256,3.3146,3.346,3.4091,3.3875,3.3783,3.3783,3.3783,3.3783,3.3783,3.3783,3.3783,3.3783,3.3783,3.3783,3.3783,3.3783,3.3921,3.4106,3.4106,3.4106,3.4164,3.4322,3.4379,3.4602,3.5341,3.6042,3.6794,3.7726,3.8148,3.8391,3.8391,3.8391,3.8391,3.8391,3.8391,3.8391,3.8391,3.8504,3.8711,3.8969,3.9239,3.954,3.9782,4.0221,4.0485,4.0485,4.0728,4.0965,4.1088,4.1272,4.1453,4.1657,4.1744,4.1892,4.2079,4.2079,4.2121,4.2145,4.2246,4.2287,4.2287,4.2287,4.2145,4.1874,4.1977,4.2019,0.0,0.0,0.0,0.0,0.0,0.0,0.0,0.0,0.0,0.0,0.0,0.0,0.0,0.0,0.0,0.0,0.0,0.0,0.0,0.0,0.0,0.0,0.0,0.0,0.0,0.0,0.0,0.0,2.9602,2.9602,2.9602,2.9602,2.9602,2.9602,2.9602,2.9602,2.9602,2.9602,2.9851,3.0312,3.0312,3.0851,3.1724,3.1724,3.1951,3.2398,3.2398,3.2767,3.3321,3.2659,3.2398,3.2398,3.2398,3.2398,3.2398,3.2398,3.2398,3.2398,3.2398,3.2398,3.2398,3.2398,3.2844,3.3367,3.3367,3.3367,3.3367,3.3367,3.3367,3.3439,3.3808,3.5347,3.7022,3.7694,3.81,3.8375,3.8391,3.8391,3.8391,3.8391,3.8391,3.8391,3.8391,3.8711,3.9023,3.9023,3.9764,4.0288,4.0305,4.0631,4.0888,4.0888,4.0888,4.0888,4.0888,4.0935,4.1012,4.1209,4.1041,4.1152,4.1604,4.1604,4.1719,4.1934,4.2163,4.2287,4.2287,4.2287,4.2163,4.1917,4.2187,4.2287,1.5941,0.0,0.0,0.0,0.0,0.0,0.0,0.0,0.0,0.0,0.0,0.0,0.0,0.0,0.0,0.0,0.0,0.0,0.0,0.0,0.0,0.0,0.0,0.0,0.0,0.0,0.0,0.0,2.9602,2.9602,2.9602,2.9602,2.9602,2.9602,2.9602,2.9602,2.9602,2.9974,3.0312,3.0792,3.1146,3.161,3.2231,3.2231,3.2287,3.2398,3.2398,3.2505,3.2659,3.2475,3.2398,3.2398,3.2398,3.2398,3.2398,3.2398,3.2398,3.2398,3.2398,3.2398,3.2398,3.2398,3.2521,3.2675,3.2675,3.2675,3.2675,3.2675,3.2675,3.2854,3.3684,3.4872,3.6006,3.6901,3.7359,3.776,3.8278,3.8391,3.8391,3.8391,3.8391,3.8391,3.8391,3.8711,3.9115,3.9401,3.9918,4.0404,4.068,4.084,4.0888,4.0888,4.0888,4.0888,4.0888,4.1041,4.1209,4.1453,4.1587,4.1762,4.2061,4.2121,4.2103,4.2187,4.2246,4.2287,4.2287,4.2287,4.2246,4.2187,4.2287,4.2287,0.0,0.0,0.0,0.0,0.0,0.0,0.0,2.1766,0.0,0.0,0.0,0.0,0.0,0.0,0.0,0.0,0.0,0.0,0.0,0.0,0.0,0.0,0.0,0.0,0.0,2.9462,2.9602,2.9602,2.9602,2.9602,2.9602,2.9602,2.9602,2.9602,2.9602,2.9602,2.9602,3.0083,3.0553,3.1029,3.1509,3.1951,3.2398,3.2398,3.2398,3.2398,3.2398,3.2398,3.2398,3.2398,3.2398,3.2398,3.2398,3.2398,3.2398,3.2398,3.2398,3.2398,3.2398,3.2398,3.2398,3.2398,3.2398,3.2398,3.2398,3.2398,3.2398,3.2398,3.2398,3.2607,3.347,3.4232,3.4998,3.583,3.6582,3.727,3.7689,3.8125,3.8391,3.8391,3.8391,3.8391,3.8391,3.8711,3.9061,3.9312,3.9918,4.0387,4.0631,4.0793,4.0888,4.0888,4.0888,4.0918,4.0995,4.1117,4.13,4.1604,4.1631,4.1744,4.1995,4.1995,4.2037,4.2145,4.2246,4.2287,4.2287,4.2287,4.2287,4.2287,4.2287,4.2287,0.0,1.7787,0.0,0.0,0.0,0.0,2.1397,2.151,0.0,0.0,0.0,0.0,0.0,0.0,0.0,0.0,0.0,0.0,0.0,0.0,0.0,0.0,0.0,0.0,2.8591,2.9083,2.9406,2.9406,2.9406,2.9434,2.9504,2.9504,2.9532,2.9602,2.9602,2.9602,2.9665,3.0144,3.0613,3.1087,3.1552,3.2007,3.2398,3.2398,3.2398,3.2398,3.2398,3.2398,3.2398,3.2398,3.2398,3.2398,3.2398,3.2398,3.2398,3.2398,3.2398,3.2398,3.2398,3.2398,3.2398,3.2398,3.2398,3.2398,3.2398,3.2398,3.2398,3.2398,3.2398,3.2536,3.3193,3.3588,3.3998,3.4685,3.5789,3.6725,3.6805,3.7649,3.8335,3.8335,3.8391,3.8391,3.8391,3.8711,3.9023,3.9023,3.9713,4.0238,4.0288,4.0583,4.0823,4.0888,4.0888,4.0965,4.1163,4.1163,4.1272,4.156,4.1346,4.1346,4.1648,4.1648,4.1719,4.1934,4.2187,4.2287,4.2287,4.2287,4.2287,4.2287,4.2287,4.2287,1.9067,1.9039,1.9362,2.0049,0.0,0.0,1.9978,2.0274,0.0,0.0,0.0,0.0,0.0,0.0,0.0,0.0,0.0,0.0,0.0,0.0,0.0,0.0,0.0,0.0,2.7959,2.8057,2.8127,2.8127,2.8127,2.8352,2.8844,2.8872,2.9097,2.9588,2.9602,2.9789,3.0144,3.0613,3.1087,3.1552,3.2064,3.2342,3.2398,3.2398,3.2398,3.2398,3.2398,3.2398,3.2398,3.2398,3.2398,3.2398,3.2398,3.2398,3.2398,3.2398,3.2398,3.2398,3.2398,3.2398,3.2398,3.2398,3.2398,3.2398,3.2398,3.2398,3.2398,3.2398,3.2398,3.2484,3.2874,3.3045,3.331,3.4242,3.5063,3.5855,3.6378,3.7291,3.8001,3.8001,3.8205,3.8391,3.8391,3.8711,3.9023,3.9023,3.9418,3.9885,4.0238,4.0355,4.0534,4.0888,4.0888,4.0935,4.0965,4.0965,4.1041,4.1255,4.1255,4.1391,4.1831,4.1849,4.1977,4.2205,4.2287,4.2287,4.2287,4.2287,4.2287,4.2287,4.2287,4.2287,2.0161,2.0119,2.0498,2.1131,0.0,0.0,0.0,0.0,2.0778,0.0,0.0,0.0,0.0,0.0,0.0,0.0,0.0,0.0,0.0,0.0,0.0,0.0,0.0,0.0,2.6835,2.7411,2.7776,2.7776,2.7776,2.7902,2.8212,2.824,2.838,2.8675,2.8689,2.8916,2.9317,2.9841,3.0461,3.1185,3.1671,3.2074,3.2398,3.2398,3.2398,3.2398,3.2398,3.2398,3.2398,3.2398,3.2398,3.2398,3.2398,3.2398,3.2398,3.2398,3.2398,3.2398,3.2398,3.2398,3.2398,3.2398,3.2398,3.2398,3.2398,3.2398,3.2398,3.2398,3.2398,3.2453,3.2594,3.2648,3.278,3.3256,3.4006,3.4823,3.5498,3.6463,3.7281,3.7806,3.8017,3.8205,3.8391,3.856,3.8766,3.8969,3.9365,3.9782,4.0238,4.0502,4.0697,4.0888,4.0888,4.0918,4.1041,4.1041,4.1134,4.1408,4.1408,4.1525,4.1892,4.1874,4.1959,4.2103,4.2246,4.2228,4.2103,4.2228,4.2287,4.2287,4.2287,4.2287,0.0,0.0,0.0,0.0,0.0,2.1819,0.0,0.0,0.0,2.0969,0.0,0.0,0.0,0.0,0.0,0.0,0.0,0.0,0.0,0.0,0.0,0.0,0.0,0.0,0.0,2.6357,2.6933,2.7059,2.7059,2.7172,2.7397,2.7523,2.765,2.7776,2.7893,2.8096,2.8553,2.8987,2.9694,3.0673,3.1037,3.149,3.2013,3.2013,3.2013,3.2028,3.2151,3.2198,3.2213,3.2336,3.2398,3.2398,3.2398,3.2398,3.2398,3.2398,3.2398,3.2398,3.2398,3.2398,3.2398,3.2398,3.2398,3.2398,3.2398,3.2398,3.2398,3.2398,3.2398,3.2398,3.2398,3.2398,3.2398,3.2398,3.3144,3.3964,3.4467,3.5467,3.6473,3.7259,3.7527,3.785,3.8343,3.8448,3.86,3.8969,3.9365,3.9782,4.0238,4.0583,4.0823,4.0888,4.0888,4.0965,4.1117,4.1163,4.1209,4.1471,4.1471,4.1542,4.1744,4.1831,4.1917,4.1977,4.2187,4.2187,4.1977,4.2187,4.2287,4.2287,4.2287,4.2287,0.0,0.0,0.0,0.0,2.2536,0.0,0.0,0.0,2.0934,1.9396,0.0,0.0,0.0,0.0,0.0,0.0,0.0,0.0,0.0,0.0,0.0,0.0,0.0,0.0,0.0,2.3884,2.387,2.4498,2.454,2.4966,2.6048,2.6624,2.7186,2.7762,2.8168,2.8553,2.9002,2.9426,2.9902,3.0431,3.0483,3.0566,3.0643,3.0643,3.0643,3.0674,3.1259,3.149,3.1551,3.2136,3.2398,3.2398,3.2398,3.2398,3.2398,3.2398,3.2398,3.2398,3.2398,3.2398,3.2398,3.2398,3.2398,3.2398,3.2398,3.2398,3.2398,3.2398,3.2398,3.2398,3.2398,3.2398,3.2398,3.2398,3.2962,3.3486,3.3563,3.4591,3.5521,3.5656,3.6357,3.7229,3.8221,3.8711,3.8969,3.8969,3.9365,3.9782,4.0238,4.0355,4.0485,4.0871,4.0888,4.0935,4.0918,4.0918,4.0965,4.0965,4.0965,4.1041,4.1255,4.1701,4.2019,4.2246,4.2287,4.2287,4.2246,4.2287,4.2287,4.2287,4.2287,4.2287,0.0,0.0,0.0,0.0,0.0,0.0,2.1179,0.0,2.0627,0.0,0.0,0.0,0.0,0.0,0.0,0.0,0.0,0.0,0.0,0.0,0.0,0.0,0.0,0.0,0.0,0.0,0.0,0.0,2.3716,2.4039,2.5289,2.5612,2.6034,2.6666,2.7111,2.748,2.7963,2.8397,2.9021,2.9843,2.9843,3.0043,3.0428,3.0428,3.0428,3.0443,3.0705,3.0828,3.0874,3.1536,3.1813,3.1844,3.2244,3.2398,3.2398,3.2398,3.2398,3.2398,3.2398,3.2398,3.2398,3.2398,3.2398,3.2398,3.2398,3.2398,3.2398,3.2398,3.2398,3.2398,3.2398,3.2398,3.2398,3.2398,3.2613,3.2921,3.3321,3.3985,3.4722,3.5315,3.5991,3.6685,3.7339,3.8154,3.875,3.875,3.9479,4.0171,4.0583,4.0237,4.001,4.0198,4.0198,4.0198,4.0198,4.0612,4.0888,4.0888,4.1152,4.1408,4.1613,4.1917,4.2103,4.2061,4.2246,4.2228,4.2061,4.2228,4.2287,4.2287,4.2287,4.2287,2.1434,0.0,0.0,0.0,0.0,0.0,0.0,0.0,0.0,0.0,0.0,0.0,0.0,0.0,0.0,0.0,0.0,0.0,0.0,0.0,0.0,0.0,0.0,0.0,0.0,0.0,0.0,0.0,0.0,2.314,2.439,2.4797,2.523,2.5774,2.6371,2.6878,2.7291,2.7725,2.8347,2.9135,2.9135,2.9396,2.9874,2.9874,2.9874,2.9874,3.0074,3.0151,3.0197,3.0859,3.112,3.1166,3.1659,3.1859,3.1905,3.2259,3.2398,3.2398,3.2398,3.2398,3.2398,3.2398,3.2398,3.2398,3.2398,3.2398,3.2398,3.2398,3.2398,3.2398,3.2398,3.2398,3.2398,3.2398,3.2398,3.2521,3.3013,3.3472,3.3975,3.4809,3.5501,3.6055,3.6323,3.7453,3.8387,3.8404,3.9221,3.9918,4.025,3.975,3.9388,3.9388,3.9388,3.9388,3.9388,3.9922,4.0296,4.0343,4.0734,4.1086,4.147,4.176,4.1848,4.1805,4.2061,4.2061,4.1805,4.2019,4.2121,4.2121,4.2246,4.2246,0.0,0.0,0.0,2.0136,0.0,0.0,0.0,0.0,2.0142,0.0,0.0,0.0,0.0,0.0,0.0,0.0,0.0,0.0,0.0,0.0,0.0,0.0,0.0,0.0,0.0,0.0,0.0,0.0,0.0,0.0,2.3097,2.432,2.519,2.5603,2.6542,2.7291,2.779,2.8201,2.8411,2.8442,2.8442,2.8442,2.8473,2.8473,2.8473,2.8504,2.9166,2.9443,2.9504,3.0181,3.0458,3.0458,3.0474,3.0489,3.0643,3.1921,3.2398,3.2398,3.2398,3.2398,3.2398,3.2398,3.2398,3.2398,3.2398,3.2398,3.2398,3.2398,3.2398,3.2398,3.2398,3.2398,3.2398,3.2398,3.2398,3.2398,3.2428,3.2881,3.343,3.3761,3.4594,3.5245,3.5245,3.6797,3.8031,3.8031,3.8374,3.8663,3.8663,3.8646,3.8629,3.8629,3.8629,3.8629,3.8629,3.8646,3.8753,3.8955,3.9153,3.9613,4.0403,4.0694,4.1107,4.1587,4.1805,4.1805,4.1604,4.1604,4.1604,4.1648,4.2079,4.2145,0.0,0.0,2.0297,1.9914,0.0,0.0,0.0,0.0,0.0,0.0,0.0,0.0,0.0,0.0,0.0,0.0,0.0,0.0,0.0,0.0,0.0,0.0,0.0,0.0,0.0,0.0,0.0,0.0,2.0906,0.0,0.0,2.3912,2.471,2.5885,2.652,2.716,2.779,2.8201,2.8411,2.8411,2.8411,2.8411,2.8411,2.8411,2.8411,2.8411,2.8642,2.875,2.8796,2.9473,2.975,2.9797,3.0243,3.0428,3.0474,3.092,3.1366,3.1782,3.2244,3.2398,3.2398,3.2398,3.2398,3.2398,3.2398,3.2398,3.2398,3.2398,3.2398,3.2398,3.2398,3.2398,3.2398,3.2398,3.2398,3.2453,3.2648,3.3208,3.3713,3.4068,3.4927,3.5588,3.5588,3.6324,3.697,3.724,3.8025,3.8594,3.8594,3.8163,3.7853,3.7853,3.7853,3.7853,3.7853,3.8301,3.8639,3.8684,3.8947,3.9198,3.946,3.9673,4.0127,4.0849,4.0936,4.1182,4.1604,4.1719,4.1719,4.1604,4.2079,4.2061,2.0207,1.9798,0.0,1.9253,1.9092,0.0,1.8051,0.0,0.0,0.0,0.0,0.0,0.0,0.0,0.0,0.0,0.0,0.0,0.0,0.0,0.0,0.0,0.0,0.0,0.0,0.0,1.9627,2.0864,0.0,0.0,0.0,0.0,2.4355,2.5781,2.6374,2.7131,2.7989,2.825,2.8411,2.8411,2.8411,2.8411,2.8411,2.8411,2.8411,2.8411,2.8348,2.8348,2.8442,2.8808,2.8993,2.9104,2.9535,2.9704,2.9766,3.0243,3.0828,3.1443,3.189,3.2198,3.2398,3.2398,3.2398,3.2398,3.2398,3.2398,3.2398,3.2398,3.2398,3.2398,3.2398,3.2398,3.2398,3.2398,3.2398,3.2453,3.2648,3.3261,3.385,3.4202,3.5068,3.5783,3.5932,3.6131,3.6371,3.6635,3.7308,3.7767,3.7767,3.737,3.706,3.706,3.706,3.706,3.706,3.7595,3.7932,3.7932,3.8231,3.8478,3.8657,3.8925,3.9276,3.9913,3.9974,4.0342,4.1051,4.1227,4.1306,4.1453,4.1744,4.1719]}]]